<?xml version='1.0' encoding='UTF-8'?><gpx version="1.1" creator="JPX - https://github.com/jenetics/jpx" xmlns="http://www.topografix.com/GPX/1/1"><trk><trkseg><trkpt lat="43.7415847" lon="11.2778791"><ele>74.0</ele><time>2026-04-18T14:05:30.347Z</time></trkpt><trkpt lat="43.7416307" lon="11.2779523"><ele>74.0</ele><time>2026-04-18T14:05:33.34Z</time></trkpt><trkpt lat="43.7416833" lon="11.2780451"><ele>74.0</ele><time>2026-04-18T14:05:36.361Z</time></trkpt><trkpt lat="43.7417454" lon="11.2781315"><ele>74.0</ele><time>2026-04-18T14:05:38.359Z</time></trkpt><trkpt lat="43.7418098" lon="11.2782145"><ele>74.0</ele><time>2026-04-18T14:05:39.367Z</time></trkpt><trkpt lat="43.7418849" lon="11.2783005"><ele>74.0</ele><time>2026-04-18T14:05:40.354Z</time></trkpt><trkpt lat="43.7419559" lon="11.278372"><ele>74.2</ele><time>2026-04-18T14:05:41.358Z</time></trkpt><trkpt lat="43.7420235" lon="11.2784336"><ele>74.4</ele><time>2026-04-18T14:05:42.552Z</time></trkpt><trkpt lat="43.7420863" lon="11.2784898"><ele>74.6</ele><time>2026-04-18T14:05:43.352Z</time></trkpt><trkpt lat="43.7421494" lon="11.2785501"><ele>74.8</ele><time>2026-04-18T14:05:44.351Z</time></trkpt><trkpt lat="43.7422535" lon="11.2786694"><ele>75.0</ele><time>2026-04-18T14:05:46.148Z</time></trkpt><trkpt lat="43.7423386" lon="11.2787895"><ele>75.0</ele><time>2026-04-18T14:05:47.953Z</time></trkpt><trkpt lat="43.7424198" lon="11.2788895"><ele>75.0</ele><time>2026-04-18T14:05:49.769Z</time></trkpt><trkpt lat="43.7425097" lon="11.2789999"><ele>75.0</ele><time>2026-04-18T14:05:51.769Z</time></trkpt><trkpt lat="43.7425688" lon="11.279069"><ele>75.0</ele><time>2026-04-18T14:05:52.803Z</time></trkpt><trkpt lat="43.7426382" lon="11.279148"><ele>75.0</ele><time>2026-04-18T14:05:53.768Z</time></trkpt><trkpt lat="43.7427175" lon="11.2792307"><ele>74.8</ele><time>2026-04-18T14:05:54.779Z</time></trkpt><trkpt lat="43.7428024" lon="11.2793075"><ele>74.6</ele><time>2026-04-18T14:05:55.769Z</time></trkpt><trkpt lat="43.7428869" lon="11.2793781"><ele>74.4</ele><time>2026-04-18T14:05:56.773Z</time></trkpt><trkpt lat="43.742964" lon="11.2794421"><ele>74.2</ele><time>2026-04-18T14:05:57.77Z</time></trkpt><trkpt lat="43.7430317" lon="11.2795087"><ele>74.0</ele><time>2026-04-18T14:05:58.768Z</time></trkpt><trkpt lat="43.743098" lon="11.2795702"><ele>74.0</ele><time>2026-04-18T14:05:59.76Z</time></trkpt><trkpt lat="43.7431504" lon="11.279624"><ele>74.0</ele><time>2026-04-18T14:06:00.76Z</time></trkpt><trkpt lat="43.7432067" lon="11.2797127"><ele>74.0</ele><time>2026-04-18T14:06:02.765Z</time></trkpt><trkpt lat="43.7432407" lon="11.2798217"><ele>74.0</ele><time>2026-04-18T14:06:04.782Z</time></trkpt><trkpt lat="43.7432783" lon="11.2799807"><ele>74.0</ele><time>2026-04-18T14:06:06.768Z</time></trkpt><trkpt lat="43.7432973" lon="11.2800724"><ele>74.0</ele><time>2026-04-18T14:06:07.768Z</time></trkpt><trkpt lat="43.7433104" lon="11.2801715"><ele>74.28571428571429</ele><time>2026-04-18T14:06:08.76Z</time></trkpt><trkpt lat="43.7433151" lon="11.2802646"><ele>74.57142857142857</ele><time>2026-04-18T14:06:09.767Z</time></trkpt><trkpt lat="43.7433241" lon="11.2803535"><ele>74.85714285714286</ele><time>2026-04-18T14:06:10.775Z</time></trkpt><trkpt lat="43.7433245" lon="11.280441"><ele>75.14285714285714</ele><time>2026-04-18T14:06:11.765Z</time></trkpt><trkpt lat="43.7433148" lon="11.280533"><ele>75.42857142857143</ele><time>2026-04-18T14:06:12.779Z</time></trkpt><trkpt lat="43.7433056" lon="11.280656"><ele>75.71428571428571</ele><time>2026-04-18T14:06:14.764Z</time></trkpt><trkpt lat="43.7432827" lon="11.2807743"><ele>76.0</ele><time>2026-04-18T14:06:16.779Z</time></trkpt><trkpt lat="43.7432751" lon="11.2809688"><ele>76.16666666666666</ele><time>2026-04-18T14:06:18.765Z</time></trkpt><trkpt lat="43.7432712" lon="11.2810916"><ele>76.33333333333333</ele><time>2026-04-18T14:06:19.771Z</time></trkpt><trkpt lat="43.7432555" lon="11.2812134"><ele>76.5</ele><time>2026-04-18T14:06:20.756Z</time></trkpt><trkpt lat="43.7432407" lon="11.2813345"><ele>76.66666666666667</ele><time>2026-04-18T14:06:21.748Z</time></trkpt><trkpt lat="43.7432168" lon="11.2814547"><ele>76.83333333333334</ele><time>2026-04-18T14:06:22.764Z</time></trkpt><trkpt lat="43.743176" lon="11.2815244"><ele>77.0</ele><time>2026-04-18T14:06:23.767Z</time></trkpt><trkpt lat="43.7431151" lon="11.2815621"><ele>76.8</ele><time>2026-04-18T14:06:24.745Z</time></trkpt><trkpt lat="43.7430363" lon="11.2815767"><ele>76.6</ele><time>2026-04-18T14:06:25.759Z</time></trkpt><trkpt lat="43.7429406" lon="11.2815764"><ele>76.39999999999999</ele><time>2026-04-18T14:06:26.751Z</time></trkpt><trkpt lat="43.7428432" lon="11.2815817"><ele>76.2</ele><time>2026-04-18T14:06:27.759Z</time></trkpt><trkpt lat="43.7427405" lon="11.2815934"><ele>76.0</ele><time>2026-04-18T14:06:28.764Z</time></trkpt><trkpt lat="43.7426413" lon="11.2815988"><ele>76.0</ele><time>2026-04-18T14:06:29.762Z</time></trkpt><trkpt lat="43.7425447" lon="11.281605"><ele>76.0</ele><time>2026-04-18T14:06:30.764Z</time></trkpt><trkpt lat="43.7424501" lon="11.2816355"><ele>76.0</ele><time>2026-04-18T14:06:31.776Z</time></trkpt><trkpt lat="43.7423707" lon="11.2817015"><ele>76.0</ele><time>2026-04-18T14:06:32.773Z</time></trkpt><trkpt lat="43.742315" lon="11.2817947"><ele>76.0</ele><time>2026-04-18T14:06:33.772Z</time></trkpt><trkpt lat="43.7422825" lon="11.2819225"><ele>76.0</ele><time>2026-04-18T14:06:34.762Z</time></trkpt><trkpt lat="43.7422708" lon="11.2820631"><ele>76.0</ele><time>2026-04-18T14:06:35.765Z</time></trkpt><trkpt lat="43.742274" lon="11.2822123"><ele>76.0</ele><time>2026-04-18T14:06:36.761Z</time></trkpt><trkpt lat="43.7422781" lon="11.2823712"><ele>76.0</ele><time>2026-04-18T14:06:37.763Z</time></trkpt><trkpt lat="43.7422752" lon="11.2825291"><ele>76.0</ele><time>2026-04-18T14:06:38.769Z</time></trkpt><trkpt lat="43.7422642" lon="11.2826891"><ele>76.0</ele><time>2026-04-18T14:06:39.765Z</time></trkpt><trkpt lat="43.7422516" lon="11.2828486"><ele>76.0</ele><time>2026-04-18T14:06:40.767Z</time></trkpt><trkpt lat="43.7422423" lon="11.2830014"><ele>76.0</ele><time>2026-04-18T14:06:41.76Z</time></trkpt><trkpt lat="43.7422341" lon="11.2831402"><ele>76.0</ele><time>2026-04-18T14:06:42.757Z</time></trkpt><trkpt lat="43.7422305" lon="11.2832737"><ele>76.0</ele><time>2026-04-18T14:06:43.764Z</time></trkpt><trkpt lat="43.7422187" lon="11.2834188"><ele>76.0</ele><time>2026-04-18T14:06:44.76Z</time></trkpt><trkpt lat="43.7421862" lon="11.2835682"><ele>76.0</ele><time>2026-04-18T14:06:45.767Z</time></trkpt><trkpt lat="43.7421297" lon="11.2837163"><ele>76.0</ele><time>2026-04-18T14:06:46.775Z</time></trkpt><trkpt lat="43.742044" lon="11.2838529"><ele>76.0</ele><time>2026-04-18T14:06:47.768Z</time></trkpt><trkpt lat="43.7419399" lon="11.2839634"><ele>77.25</ele><time>2026-04-18T14:06:48.77Z</time></trkpt><trkpt lat="43.7418254" lon="11.2840397"><ele>78.5</ele><time>2026-04-18T14:06:49.781Z</time></trkpt><trkpt lat="43.7417036" lon="11.2840764"><ele>79.75</ele><time>2026-04-18T14:06:50.788Z</time></trkpt><trkpt lat="43.7415834" lon="11.284082"><ele>81.0</ele><time>2026-04-18T14:06:51.765Z</time></trkpt><trkpt lat="43.7414587" lon="11.2840655"><ele>81.0</ele><time>2026-04-18T14:06:52.789Z</time></trkpt><trkpt lat="43.7413268" lon="11.2840365"><ele>81.0</ele><time>2026-04-18T14:06:53.777Z</time></trkpt><trkpt lat="43.7411937" lon="11.2839934"><ele>81.0</ele><time>2026-04-18T14:06:54.787Z</time></trkpt><trkpt lat="43.7410529" lon="11.2839513"><ele>81.0</ele><time>2026-04-18T14:06:55.779Z</time></trkpt><trkpt lat="43.7409056" lon="11.2839163"><ele>82.75</ele><time>2026-04-18T14:06:56.779Z</time></trkpt><trkpt lat="43.7407649" lon="11.2838786"><ele>84.5</ele><time>2026-04-18T14:06:57.774Z</time></trkpt><trkpt lat="43.7406211" lon="11.2838293"><ele>86.25</ele><time>2026-04-18T14:06:58.761Z</time></trkpt><trkpt lat="43.7404888" lon="11.2837817"><ele>88.0</ele><time>2026-04-18T14:06:59.749Z</time></trkpt><trkpt lat="43.7403553" lon="11.2837376"><ele>91.0</ele><time>2026-04-18T14:07:00.73Z</time></trkpt><trkpt lat="43.7402094" lon="11.2836615"><ele>94.0</ele><time>2026-04-18T14:07:01.714Z</time></trkpt><trkpt lat="43.7400769" lon="11.2836071"><ele>97.0</ele><time>2026-04-18T14:07:02.721Z</time></trkpt><trkpt lat="43.7399822" lon="11.2835371"><ele>100.0</ele><time>2026-04-18T14:07:03.725Z</time></trkpt><trkpt lat="43.7399237" lon="11.2834189"><ele>100.0</ele><time>2026-04-18T14:07:04.729Z</time></trkpt><trkpt lat="43.7399129" lon="11.2832263"><ele>100.0</ele><time>2026-04-18T14:07:05.733Z</time></trkpt><trkpt lat="43.7399247" lon="11.2830159"><ele>100.0</ele><time>2026-04-18T14:07:06.743Z</time></trkpt><trkpt lat="43.739941" lon="11.2828184"><ele>100.0</ele><time>2026-04-18T14:07:07.751Z</time></trkpt><trkpt lat="43.7399506" lon="11.2826291"><ele>99.75</ele><time>2026-04-18T14:07:08.751Z</time></trkpt><trkpt lat="43.7399658" lon="11.2824364"><ele>99.5</ele><time>2026-04-18T14:07:09.758Z</time></trkpt><trkpt lat="43.7399887" lon="11.2822452"><ele>99.25</ele><time>2026-04-18T14:07:10.767Z</time></trkpt><trkpt lat="43.74001" lon="11.2820663"><ele>99.0</ele><time>2026-04-18T14:07:11.761Z</time></trkpt><trkpt lat="43.7400236" lon="11.2819141"><ele>99.6</ele><time>2026-04-18T14:07:12.764Z</time></trkpt><trkpt lat="43.7400324" lon="11.2817873"><ele>100.2</ele><time>2026-04-18T14:07:13.756Z</time></trkpt><trkpt lat="43.7400272" lon="11.2816788"><ele>100.8</ele><time>2026-04-18T14:07:14.77Z</time></trkpt><trkpt lat="43.7399501" lon="11.2815438"><ele>101.39999999999999</ele><time>2026-04-18T14:07:16.756Z</time></trkpt><trkpt lat="43.7398648" lon="11.2815068"><ele>102.0</ele><time>2026-04-18T14:07:17.756Z</time></trkpt><trkpt lat="43.7397665" lon="11.281499"><ele>102.0</ele><time>2026-04-18T14:07:18.773Z</time></trkpt><trkpt lat="43.7396594" lon="11.2815228"><ele>102.0</ele><time>2026-04-18T14:07:19.774Z</time></trkpt><trkpt lat="43.7395569" lon="11.2815916"><ele>102.0</ele><time>2026-04-18T14:07:20.769Z</time></trkpt><trkpt lat="43.7394756" lon="11.2817072"><ele>102.0</ele><time>2026-04-18T14:07:21.757Z</time></trkpt><trkpt lat="43.7394209" lon="11.2818493"><ele>102.0</ele><time>2026-04-18T14:07:22.763Z</time></trkpt><trkpt lat="43.7393943" lon="11.2819986"><ele>102.0</ele><time>2026-04-18T14:07:23.76Z</time></trkpt><trkpt lat="43.739367" lon="11.2821093"><ele>102.0</ele><time>2026-04-18T14:07:24.767Z</time></trkpt><trkpt lat="43.7393258" lon="11.2821826"><ele>102.0</ele><time>2026-04-18T14:07:25.784Z</time></trkpt><trkpt lat="43.7392066" lon="11.282187"><ele>102.0</ele><time>2026-04-18T14:07:27.767Z</time></trkpt><trkpt lat="43.7391605" lon="11.2821165"><ele>104.33333333333333</ele><time>2026-04-18T14:07:28.761Z</time></trkpt><trkpt lat="43.7391431" lon="11.2820203"><ele>106.66666666666666</ele><time>2026-04-18T14:07:29.762Z</time></trkpt><trkpt lat="43.739155" lon="11.2819091"><ele>109.0</ele><time>2026-04-18T14:07:30.75Z</time></trkpt><trkpt lat="43.7391817" lon="11.2817927"><ele>111.33333333333333</ele><time>2026-04-18T14:07:31.758Z</time></trkpt><trkpt lat="43.739185" lon="11.2816748"><ele>113.66666666666666</ele><time>2026-04-18T14:07:32.763Z</time></trkpt><trkpt lat="43.7391548" lon="11.2815708"><ele>116.0</ele><time>2026-04-18T14:07:33.771Z</time></trkpt><trkpt lat="43.7390935" lon="11.2814949"><ele>116.0</ele><time>2026-04-18T14:07:34.757Z</time></trkpt><trkpt lat="43.739012" lon="11.2814338"><ele>116.0</ele><time>2026-04-18T14:07:35.763Z</time></trkpt><trkpt lat="43.7389252" lon="11.2813658"><ele>116.0</ele><time>2026-04-18T14:07:36.764Z</time></trkpt><trkpt lat="43.738838" lon="11.2812859"><ele>116.0</ele><time>2026-04-18T14:07:37.762Z</time></trkpt><trkpt lat="43.7387472" lon="11.2812058"><ele>116.0</ele><time>2026-04-18T14:07:38.771Z</time></trkpt><trkpt lat="43.7386541" lon="11.2811218"><ele>115.0</ele><time>2026-04-18T14:07:39.772Z</time></trkpt><trkpt lat="43.7385596" lon="11.281038"><ele>114.0</ele><time>2026-04-18T14:07:40.774Z</time></trkpt><trkpt lat="43.7384679" lon="11.2809464"><ele>113.0</ele><time>2026-04-18T14:07:41.768Z</time></trkpt><trkpt lat="43.7383735" lon="11.280851"><ele>112.0</ele><time>2026-04-18T14:07:42.767Z</time></trkpt><trkpt lat="43.7382891" lon="11.2807331"><ele>114.0</ele><time>2026-04-18T14:07:43.768Z</time></trkpt><trkpt lat="43.7382163" lon="11.2806011"><ele>116.0</ele><time>2026-04-18T14:07:44.768Z</time></trkpt><trkpt lat="43.7381429" lon="11.280469"><ele>118.0</ele><time>2026-04-18T14:07:45.769Z</time></trkpt><trkpt lat="43.738068" lon="11.2803334"><ele>120.0</ele><time>2026-04-18T14:07:46.761Z</time></trkpt><trkpt lat="43.7379882" lon="11.2802"><ele>120.0</ele><time>2026-04-18T14:07:47.768Z</time></trkpt><trkpt lat="43.7379153" lon="11.2800684"><ele>120.0</ele><time>2026-04-18T14:07:48.763Z</time></trkpt><trkpt lat="43.7378423" lon="11.2799346"><ele>120.0</ele><time>2026-04-18T14:07:49.763Z</time></trkpt><trkpt lat="43.7377804" lon="11.2798144"><ele>120.0</ele><time>2026-04-18T14:07:50.758Z</time></trkpt><trkpt lat="43.7377295" lon="11.2797047"><ele>120.0</ele><time>2026-04-18T14:07:51.761Z</time></trkpt><trkpt lat="43.7376618" lon="11.2796014"><ele>123.5</ele><time>2026-04-18T14:07:52.76Z</time></trkpt><trkpt lat="43.7375775" lon="11.2794964"><ele>127.0</ele><time>2026-04-18T14:07:53.756Z</time></trkpt><trkpt lat="43.7374857" lon="11.2793864"><ele>130.5</ele><time>2026-04-18T14:07:54.763Z</time></trkpt><trkpt lat="43.7373865" lon="11.279269"><ele>134.0</ele><time>2026-04-18T14:07:55.76Z</time></trkpt><trkpt lat="43.737281" lon="11.2791548"><ele>134.0</ele><time>2026-04-18T14:07:56.786Z</time></trkpt><trkpt lat="43.7371712" lon="11.2790459"><ele>134.0</ele><time>2026-04-18T14:07:57.767Z</time></trkpt><trkpt lat="43.7370591" lon="11.2789413"><ele>134.0</ele><time>2026-04-18T14:07:58.761Z</time></trkpt><trkpt lat="43.7369627" lon="11.2788419"><ele>134.0</ele><time>2026-04-18T14:07:59.76Z</time></trkpt><trkpt lat="43.7368877" lon="11.2787311"><ele>133.66666666666666</ele><time>2026-04-18T14:08:00.756Z</time></trkpt><trkpt lat="43.7368571" lon="11.2786207"><ele>133.33333333333331</ele><time>2026-04-18T14:08:01.754Z</time></trkpt><trkpt lat="43.7368428" lon="11.2785311"><ele>133.0</ele><time>2026-04-18T14:08:02.755Z</time></trkpt><trkpt lat="43.736867" lon="11.2783871"><ele>132.66666666666666</ele><time>2026-04-18T14:08:04.759Z</time></trkpt><trkpt lat="43.7369074" lon="11.2783152"><ele>132.33333333333334</ele><time>2026-04-18T14:08:05.76Z</time></trkpt><trkpt lat="43.736947" lon="11.278233"><ele>132.0</ele><time>2026-04-18T14:08:06.757Z</time></trkpt><trkpt lat="43.7369782" lon="11.2781331"><ele>132.0</ele><time>2026-04-18T14:08:07.751Z</time></trkpt><trkpt lat="43.7369891" lon="11.2780114"><ele>132.0</ele><time>2026-04-18T14:08:08.757Z</time></trkpt><trkpt lat="43.7369707" lon="11.2778798"><ele>132.0</ele><time>2026-04-18T14:08:09.757Z</time></trkpt><trkpt lat="43.7369297" lon="11.2777477"><ele>132.0</ele><time>2026-04-18T14:08:10.766Z</time></trkpt><trkpt lat="43.7368727" lon="11.2776151"><ele>132.0</ele><time>2026-04-18T14:08:11.767Z</time></trkpt><trkpt lat="43.7368137" lon="11.2774759"><ele>135.79999999999998</ele><time>2026-04-18T14:08:12.767Z</time></trkpt><trkpt lat="43.7367532" lon="11.2773478"><ele>139.6</ele><time>2026-04-18T14:08:13.764Z</time></trkpt><trkpt lat="43.7366851" lon="11.2772416"><ele>143.39999999999998</ele><time>2026-04-18T14:08:14.774Z</time></trkpt><trkpt lat="43.7365927" lon="11.2771654"><ele>147.2</ele><time>2026-04-18T14:08:15.768Z</time></trkpt><trkpt lat="43.7364929" lon="11.2771091"><ele>151.0</ele><time>2026-04-18T14:08:16.769Z</time></trkpt><trkpt lat="43.7364108" lon="11.2770574"><ele>151.0</ele><time>2026-04-18T14:08:17.767Z</time></trkpt><trkpt lat="43.7363528" lon="11.2769921"><ele>151.0</ele><time>2026-04-18T14:08:18.779Z</time></trkpt><trkpt lat="43.7362984" lon="11.2768494"><ele>151.0</ele><time>2026-04-18T14:08:20.772Z</time></trkpt><trkpt lat="43.7362968" lon="11.2766573"><ele>151.0</ele><time>2026-04-18T14:08:22.766Z</time></trkpt><trkpt lat="43.7362971" lon="11.27654"><ele>151.0</ele><time>2026-04-18T14:08:23.764Z</time></trkpt><trkpt lat="43.7362874" lon="11.2764026"><ele>151.0</ele><time>2026-04-18T14:08:24.766Z</time></trkpt><trkpt lat="43.7362768" lon="11.2762654"><ele>151.0</ele><time>2026-04-18T14:08:25.756Z</time></trkpt><trkpt lat="43.7362688" lon="11.2761529"><ele>151.0</ele><time>2026-04-18T14:08:26.761Z</time></trkpt><trkpt lat="43.7362709" lon="11.2759848"><ele>151.0</ele><time>2026-04-18T14:08:28.756Z</time></trkpt><trkpt lat="43.7362882" lon="11.2758935"><ele>151.0</ele><time>2026-04-18T14:08:29.77Z</time></trkpt><trkpt lat="43.7363052" lon="11.2757876"><ele>151.0</ele><time>2026-04-18T14:08:30.763Z</time></trkpt><trkpt lat="43.7363103" lon="11.27566"><ele>149.6</ele><time>2026-04-18T14:08:31.771Z</time></trkpt><trkpt lat="43.736301" lon="11.2755241"><ele>148.2</ele><time>2026-04-18T14:08:32.768Z</time></trkpt><trkpt lat="43.7362816" lon="11.2753959"><ele>146.8</ele><time>2026-04-18T14:08:33.779Z</time></trkpt><trkpt lat="43.736243" lon="11.2752785"><ele>145.4</ele><time>2026-04-18T14:08:34.774Z</time></trkpt><trkpt lat="43.7361852" lon="11.2751644"><ele>144.0</ele><time>2026-04-18T14:08:35.765Z</time></trkpt><trkpt lat="43.7361092" lon="11.2750408"><ele>145.25</ele><time>2026-04-18T14:08:36.766Z</time></trkpt><trkpt lat="43.7360198" lon="11.2749138"><ele>146.5</ele><time>2026-04-18T14:08:37.77Z</time></trkpt><trkpt lat="43.7359389" lon="11.2747753"><ele>147.75</ele><time>2026-04-18T14:08:38.762Z</time></trkpt><trkpt lat="43.7358632" lon="11.2746208"><ele>149.0</ele><time>2026-04-18T14:08:39.771Z</time></trkpt><trkpt lat="43.7357954" lon="11.2744615"><ele>149.0</ele><time>2026-04-18T14:08:40.767Z</time></trkpt><trkpt lat="43.735728" lon="11.2743048"><ele>149.0</ele><time>2026-04-18T14:08:41.765Z</time></trkpt><trkpt lat="43.7356533" lon="11.2741514"><ele>149.0</ele><time>2026-04-18T14:08:42.761Z</time></trkpt><trkpt lat="43.7355718" lon="11.2739913"><ele>149.0</ele><time>2026-04-18T14:08:43.764Z</time></trkpt><trkpt lat="43.7354881" lon="11.2738375"><ele>148.75</ele><time>2026-04-18T14:08:44.772Z</time></trkpt><trkpt lat="43.7354058" lon="11.2736912"><ele>148.5</ele><time>2026-04-18T14:08:45.791Z</time></trkpt><trkpt lat="43.735331" lon="11.2735477"><ele>148.25</ele><time>2026-04-18T14:08:46.84Z</time></trkpt><trkpt lat="43.7352643" lon="11.2733717"><ele>148.0</ele><time>2026-04-18T14:08:47.859Z</time></trkpt><trkpt lat="43.7352107" lon="11.2731817"><ele>148.0</ele><time>2026-04-18T14:08:48.858Z</time></trkpt><trkpt lat="43.7351541" lon="11.2729967"><ele>148.0</ele><time>2026-04-18T14:08:49.841Z</time></trkpt><trkpt lat="43.7350981" lon="11.2728137"><ele>148.0</ele><time>2026-04-18T14:08:50.839Z</time></trkpt><trkpt lat="43.73505" lon="11.2726321"><ele>148.0</ele><time>2026-04-18T14:08:51.845Z</time></trkpt><trkpt lat="43.7350116" lon="11.2724566"><ele>148.0</ele><time>2026-04-18T14:08:52.838Z</time></trkpt><trkpt lat="43.7349861" lon="11.2723027"><ele>148.0</ele><time>2026-04-18T14:08:53.856Z</time></trkpt><trkpt lat="43.7349557" lon="11.2721607"><ele>148.0</ele><time>2026-04-18T14:08:54.85Z</time></trkpt><trkpt lat="43.7349289" lon="11.27205"><ele>148.0</ele><time>2026-04-18T14:08:55.851Z</time></trkpt><trkpt lat="43.7348895" lon="11.2719343"><ele>148.0</ele><time>2026-04-18T14:08:56.858Z</time></trkpt><trkpt lat="43.7348554" lon="11.2717999"><ele>147.0</ele><time>2026-04-18T14:08:57.851Z</time></trkpt><trkpt lat="43.734778" lon="11.2716901"><ele>146.0</ele><time>2026-04-18T14:08:58.852Z</time></trkpt><trkpt lat="43.7346818" lon="11.2715989"><ele>145.0</ele><time>2026-04-18T14:08:59.84Z</time></trkpt><trkpt lat="43.7345661" lon="11.2715091"><ele>144.0</ele><time>2026-04-18T14:09:00.843Z</time></trkpt><trkpt lat="43.7344426" lon="11.271424"><ele>144.0</ele><time>2026-04-18T14:09:01.756Z</time></trkpt><trkpt lat="43.7343425" lon="11.2713308"><ele>144.0</ele><time>2026-04-18T14:09:02.77Z</time></trkpt><trkpt lat="43.734271" lon="11.2712342"><ele>144.0</ele><time>2026-04-18T14:09:03.755Z</time></trkpt><trkpt lat="43.734215" lon="11.2711165"><ele>144.0</ele><time>2026-04-18T14:09:04.77Z</time></trkpt><trkpt lat="43.7341913" lon="11.2709691"><ele>144.0</ele><time>2026-04-18T14:09:05.765Z</time></trkpt><trkpt lat="43.7341593" lon="11.2708218"><ele>144.0</ele><time>2026-04-18T14:09:06.773Z</time></trkpt><trkpt lat="43.7340968" lon="11.2706735"><ele>144.0</ele><time>2026-04-18T14:09:07.771Z</time></trkpt><trkpt lat="43.7340215" lon="11.2705198"><ele>144.0</ele><time>2026-04-18T14:09:08.767Z</time></trkpt><trkpt lat="43.7339434" lon="11.2703569"><ele>144.0</ele><time>2026-04-18T14:09:09.77Z</time></trkpt><trkpt lat="43.7338639" lon="11.2701811"><ele>142.25</ele><time>2026-04-18T14:09:10.772Z</time></trkpt><trkpt lat="43.7337843" lon="11.270012"><ele>140.5</ele><time>2026-04-18T14:09:11.771Z</time></trkpt><trkpt lat="43.733716" lon="11.2698421"><ele>138.75</ele><time>2026-04-18T14:09:12.769Z</time></trkpt><trkpt lat="43.7336554" lon="11.2696784"><ele>137.0</ele><time>2026-04-18T14:09:13.771Z</time></trkpt><trkpt lat="43.7335849" lon="11.2695146"><ele>137.75</ele><time>2026-04-18T14:09:14.771Z</time></trkpt><trkpt lat="43.7335215" lon="11.2693427"><ele>138.5</ele><time>2026-04-18T14:09:15.766Z</time></trkpt><trkpt lat="43.7334656" lon="11.2691679"><ele>139.25</ele><time>2026-04-18T14:09:16.77Z</time></trkpt><trkpt lat="43.7333995" lon="11.2690263"><ele>140.0</ele><time>2026-04-18T14:09:17.773Z</time></trkpt><trkpt lat="43.7333357" lon="11.26889"><ele>140.0</ele><time>2026-04-18T14:09:18.766Z</time></trkpt><trkpt lat="43.733263" lon="11.2687807"><ele>140.0</ele><time>2026-04-18T14:09:19.765Z</time></trkpt><trkpt lat="43.7331925" lon="11.2687012"><ele>140.0</ele><time>2026-04-18T14:09:20.763Z</time></trkpt><trkpt lat="43.7331167" lon="11.2686315"><ele>140.0</ele><time>2026-04-18T14:09:21.768Z</time></trkpt><trkpt lat="43.7330422" lon="11.2685948"><ele>140.0</ele><time>2026-04-18T14:09:22.775Z</time></trkpt><trkpt lat="43.7329345" lon="11.2685818"><ele>140.0</ele><time>2026-04-18T14:09:24.78Z</time></trkpt><trkpt lat="43.732901" lon="11.2684991"><ele>140.0</ele><time>2026-04-18T14:09:30.779Z</time></trkpt><trkpt lat="43.7329384" lon="11.2684281"><ele>140.0</ele><time>2026-04-18T14:09:33.764Z</time></trkpt><trkpt lat="43.7329642" lon="11.268338"><ele>140.0</ele><time>2026-04-18T14:09:36.768Z</time></trkpt><trkpt lat="43.7329978" lon="11.2682295"><ele>140.0</ele><time>2026-04-18T14:09:59.76Z</time></trkpt><trkpt lat="43.7330337" lon="11.26815"><ele>140.0</ele><time>2026-04-18T14:10:01.762Z</time></trkpt><trkpt lat="43.7330613" lon="11.2680591"><ele>140.0</ele><time>2026-04-18T14:10:03.767Z</time></trkpt><trkpt lat="43.7330789" lon="11.2679592"><ele>138.6</ele><time>2026-04-18T14:10:05.771Z</time></trkpt><trkpt lat="43.733098" lon="11.2678379"><ele>137.2</ele><time>2026-04-18T14:10:07.775Z</time></trkpt><trkpt lat="43.7331227" lon="11.2676978"><ele>135.8</ele><time>2026-04-18T14:10:09.782Z</time></trkpt><trkpt lat="43.7331646" lon="11.2675622"><ele>134.4</ele><time>2026-04-18T14:10:11.777Z</time></trkpt><trkpt lat="43.7332033" lon="11.2674217"><ele>133.0</ele><time>2026-04-18T14:10:13.78Z</time></trkpt><trkpt lat="43.733225" lon="11.267273"><ele>131.4</ele><time>2026-04-18T14:10:15.777Z</time></trkpt><trkpt lat="43.7332413" lon="11.2671188"><ele>129.8</ele><time>2026-04-18T14:10:17.781Z</time></trkpt><trkpt lat="43.7332609" lon="11.2669697"><ele>128.2</ele><time>2026-04-18T14:10:19.787Z</time></trkpt><trkpt lat="43.7332718" lon="11.2668218"><ele>126.6</ele><time>2026-04-18T14:10:21.78Z</time></trkpt><trkpt lat="43.7332937" lon="11.2667047"><ele>125.0</ele><time>2026-04-18T14:10:23.791Z</time></trkpt><trkpt lat="43.7332998" lon="11.2665992"><ele>124.99999999999999</ele><time>2026-04-18T14:10:25.791Z</time></trkpt><trkpt lat="43.7332894" lon="11.2665069"><ele>125.0</ele><time>2026-04-18T14:10:27.791Z</time></trkpt><trkpt lat="43.7332792" lon="11.2664185"><ele>125.0</ele><time>2026-04-18T14:10:31.804Z</time></trkpt><trkpt lat="43.7332736" lon="11.2665385"><ele>125.0</ele><time>2026-04-18T14:11:25.785Z</time></trkpt><trkpt lat="43.7332962" lon="11.26663"><ele>124.99999999999999</ele><time>2026-04-18T14:11:27.786Z</time></trkpt><trkpt lat="43.7332443" lon="11.266688"><ele>125.0</ele><time>2026-04-18T14:11:52.796Z</time></trkpt><trkpt lat="43.7332935" lon="11.2668525"><ele>124.99999999999999</ele><time>2026-04-18T14:11:54.772Z</time></trkpt><trkpt lat="43.7333359" lon="11.2669538"><ele>125.0</ele><time>2026-04-18T14:11:56.749Z</time></trkpt><trkpt lat="43.7332638" lon="11.2670901"><ele>125.0</ele><time>2026-04-18T14:11:57.773Z</time></trkpt><trkpt lat="43.7332445" lon="11.2671798"><ele>125.0</ele><time>2026-04-18T14:11:58.774Z</time></trkpt><trkpt lat="43.7332295" lon="11.2672683"><ele>124.99999999999999</ele><time>2026-04-18T14:11:59.775Z</time></trkpt><trkpt lat="43.7332146" lon="11.2673535"><ele>125.0</ele><time>2026-04-18T14:12:00.775Z</time></trkpt><trkpt lat="43.7331881" lon="11.2675141"><ele>126.6</ele><time>2026-04-18T14:12:02.773Z</time></trkpt><trkpt lat="43.7331482" lon="11.2676654"><ele>128.2</ele><time>2026-04-18T14:12:04.792Z</time></trkpt><trkpt lat="43.733114" lon="11.2678158"><ele>129.8</ele><time>2026-04-18T14:12:06.779Z</time></trkpt><trkpt lat="43.7330815" lon="11.2679547"><ele>131.4</ele><time>2026-04-18T14:12:08.776Z</time></trkpt><trkpt lat="43.7330467" lon="11.2680967"><ele>133.0</ele><time>2026-04-18T14:12:10.778Z</time></trkpt><trkpt lat="43.7329995" lon="11.2682307"><ele>134.16666666666669</ele><time>2026-04-18T14:12:12.773Z</time></trkpt><trkpt lat="43.7329653" lon="11.2683459"><ele>135.33333333333334</ele><time>2026-04-18T14:12:14.761Z</time></trkpt><trkpt lat="43.7329283" lon="11.2684499"><ele>136.5</ele><time>2026-04-18T14:12:16.765Z</time></trkpt><trkpt lat="43.7328738" lon="11.2685293"><ele>137.66666666666666</ele><time>2026-04-18T14:12:18.766Z</time></trkpt><trkpt lat="43.7327877" lon="11.2685733"><ele>138.83333333333331</ele><time>2026-04-18T14:12:20.769Z</time></trkpt><trkpt lat="43.7326901" lon="11.2685699"><ele>140.0</ele><time>2026-04-18T14:12:22.777Z</time></trkpt><trkpt lat="43.7325864" lon="11.2685598"><ele>141.4</ele><time>2026-04-18T14:12:24.769Z</time></trkpt><trkpt lat="43.7324881" lon="11.2685493"><ele>142.8</ele><time>2026-04-18T14:12:26.773Z</time></trkpt><trkpt lat="43.7323587" lon="11.268522"><ele>144.2</ele><time>2026-04-18T14:12:28.776Z</time></trkpt><trkpt lat="43.7322899" lon="11.2685029"><ele>145.6</ele><time>2026-04-18T14:12:29.774Z</time></trkpt><trkpt lat="43.7322236" lon="11.2684872"><ele>147.0</ele><time>2026-04-18T14:12:30.773Z</time></trkpt><trkpt lat="43.7321089" lon="11.2684539"><ele>147.0</ele><time>2026-04-18T14:12:32.771Z</time></trkpt><trkpt lat="43.7319821" lon="11.2684312"><ele>147.0</ele><time>2026-04-18T14:12:34.77Z</time></trkpt><trkpt lat="43.731864" lon="11.2684058"><ele>147.0</ele><time>2026-04-18T14:12:36.77Z</time></trkpt><trkpt lat="43.7317681" lon="11.2683842"><ele>147.0</ele><time>2026-04-18T14:12:38.771Z</time></trkpt><trkpt lat="43.7317003" lon="11.2683677"><ele>147.0</ele><time>2026-04-18T14:12:40.787Z</time></trkpt><trkpt lat="43.7316328" lon="11.2683636"><ele>147.16666666666666</ele><time>2026-04-18T14:12:42.795Z</time></trkpt><trkpt lat="43.7315606" lon="11.2683686"><ele>147.33333333333334</ele><time>2026-04-18T14:12:44.793Z</time></trkpt><trkpt lat="43.7314967" lon="11.2683654"><ele>147.5</ele><time>2026-04-18T14:12:46.793Z</time></trkpt><trkpt lat="43.7314008" lon="11.268383"><ele>147.66666666666669</ele><time>2026-04-18T14:12:48.784Z</time></trkpt><trkpt lat="43.7312852" lon="11.2684105"><ele>147.83333333333334</ele><time>2026-04-18T14:12:50.78Z</time></trkpt><trkpt lat="43.731222" lon="11.2684266"><ele>148.0</ele><time>2026-04-18T14:12:51.778Z</time></trkpt><trkpt lat="43.7311522" lon="11.2684484"><ele>148.0</ele><time>2026-04-18T14:12:52.783Z</time></trkpt><trkpt lat="43.731075" lon="11.2684837"><ele>148.0</ele><time>2026-04-18T14:12:53.776Z</time></trkpt><trkpt lat="43.7309962" lon="11.2685187"><ele>148.0</ele><time>2026-04-18T14:12:54.78Z</time></trkpt><trkpt lat="43.7309244" lon="11.268555"><ele>148.0</ele><time>2026-04-18T14:12:55.78Z</time></trkpt><trkpt lat="43.7308218" lon="11.2686129"><ele>148.0</ele><time>2026-04-18T14:12:57.789Z</time></trkpt><trkpt lat="43.7307055" lon="11.2686747"><ele>148.5</ele><time>2026-04-18T14:12:59.793Z</time></trkpt><trkpt lat="43.7306394" lon="11.2687046"><ele>149.0</ele><time>2026-04-18T14:13:00.786Z</time></trkpt><trkpt lat="43.7305742" lon="11.2687272"><ele>149.5</ele><time>2026-04-18T14:13:01.777Z</time></trkpt><trkpt lat="43.730479" lon="11.2687541"><ele>150.0</ele><time>2026-04-18T14:13:03.78Z</time></trkpt><trkpt lat="43.7304139" lon="11.2687893"><ele>150.5</ele><time>2026-04-18T14:13:06.808Z</time></trkpt><trkpt lat="43.7303604" lon="11.2688584"><ele>151.0</ele><time>2026-04-18T14:13:39.793Z</time></trkpt><trkpt lat="43.7303088" lon="11.2689305"><ele>153.0</ele><time>2026-04-18T14:13:41.789Z</time></trkpt><trkpt lat="43.7302442" lon="11.2690155"><ele>155.0</ele><time>2026-04-18T14:13:43.791Z</time></trkpt><trkpt lat="43.7301463" lon="11.2691312"><ele>157.0</ele><time>2026-04-18T14:13:45.781Z</time></trkpt><trkpt lat="43.7300859" lon="11.269208"><ele>159.0</ele><time>2026-04-18T14:13:46.783Z</time></trkpt><trkpt lat="43.7300207" lon="11.2692897"><ele>161.0</ele><time>2026-04-18T14:13:47.78Z</time></trkpt><trkpt lat="43.7299465" lon="11.2693727"><ele>161.0</ele><time>2026-04-18T14:13:48.784Z</time></trkpt><trkpt lat="43.7298852" lon="11.2694386"><ele>161.0</ele><time>2026-04-18T14:13:49.772Z</time></trkpt><trkpt lat="43.7297906" lon="11.2695443"><ele>161.0</ele><time>2026-04-18T14:13:51.785Z</time></trkpt><trkpt lat="43.7297373" lon="11.2696097"><ele>161.0</ele><time>2026-04-18T14:13:52.788Z</time></trkpt><trkpt lat="43.7296847" lon="11.2696897"><ele>161.0</ele><time>2026-04-18T14:13:53.788Z</time></trkpt><trkpt lat="43.7296406" lon="11.2697984"><ele>161.0</ele><time>2026-04-18T14:13:54.787Z</time></trkpt><trkpt lat="43.7295997" lon="11.2699144"><ele>164.0</ele><time>2026-04-18T14:13:55.786Z</time></trkpt><trkpt lat="43.7295677" lon="11.2700266"><ele>167.0</ele><time>2026-04-18T14:13:56.783Z</time></trkpt><trkpt lat="43.7295475" lon="11.2701358"><ele>170.0</ele><time>2026-04-18T14:13:57.789Z</time></trkpt><trkpt lat="43.729477" lon="11.2702277"><ele>173.0</ele><time>2026-04-18T14:13:59.781Z</time></trkpt><trkpt lat="43.7293633" lon="11.2701796"><ele>176.0</ele><time>2026-04-18T14:14:01.781Z</time></trkpt><trkpt lat="43.7292977" lon="11.2701187"><ele>176.0</ele><time>2026-04-18T14:14:02.776Z</time></trkpt><trkpt lat="43.7292277" lon="11.2700443"><ele>176.0</ele><time>2026-04-18T14:14:03.772Z</time></trkpt><trkpt lat="43.7291493" lon="11.2699603"><ele>176.0</ele><time>2026-04-18T14:14:04.775Z</time></trkpt><trkpt lat="43.7290623" lon="11.2698826"><ele>176.0</ele><time>2026-04-18T14:14:05.852Z</time></trkpt><trkpt lat="43.7289757" lon="11.2698085"><ele>176.0</ele><time>2026-04-18T14:14:06.854Z</time></trkpt><trkpt lat="43.7288921" lon="11.2697266"><ele>176.20000000000002</ele><time>2026-04-18T14:14:07.852Z</time></trkpt><trkpt lat="43.7288101" lon="11.2696456"><ele>176.4</ele><time>2026-04-18T14:14:08.872Z</time></trkpt><trkpt lat="43.7287309" lon="11.2695703"><ele>176.6</ele><time>2026-04-18T14:14:09.854Z</time></trkpt><trkpt lat="43.7286511" lon="11.2695069"><ele>176.8</ele><time>2026-04-18T14:14:10.845Z</time></trkpt><trkpt lat="43.7285685" lon="11.2694728"><ele>177.0</ele><time>2026-04-18T14:14:11.846Z</time></trkpt><trkpt lat="43.7284756" lon="11.2694493"><ele>177.0</ele><time>2026-04-18T14:14:12.854Z</time></trkpt><trkpt lat="43.7283845" lon="11.2694332"><ele>177.0</ele><time>2026-04-18T14:14:13.835Z</time></trkpt><trkpt lat="43.7282946" lon="11.2694167"><ele>177.0</ele><time>2026-04-18T14:14:14.84Z</time></trkpt><trkpt lat="43.7282029" lon="11.269399"><ele>177.0</ele><time>2026-04-18T14:14:15.834Z</time></trkpt><trkpt lat="43.7281099" lon="11.2693773"><ele>177.0</ele><time>2026-04-18T14:14:16.843Z</time></trkpt><trkpt lat="43.7280187" lon="11.2693528"><ele>177.0</ele><time>2026-04-18T14:14:17.858Z</time></trkpt><trkpt lat="43.7279319" lon="11.2693324"><ele>177.0</ele><time>2026-04-18T14:14:18.855Z</time></trkpt><trkpt lat="43.727848" lon="11.2693236"><ele>177.0</ele><time>2026-04-18T14:14:19.854Z</time></trkpt><trkpt lat="43.7277659" lon="11.2693334"><ele>177.0</ele><time>2026-04-18T14:14:20.848Z</time></trkpt><trkpt lat="43.7276815" lon="11.2693586"><ele>177.0</ele><time>2026-04-18T14:14:21.837Z</time></trkpt><trkpt lat="43.7275861" lon="11.2693894"><ele>177.0</ele><time>2026-04-18T14:14:22.847Z</time></trkpt><trkpt lat="43.7274825" lon="11.269417"><ele>178.8</ele><time>2026-04-18T14:14:23.837Z</time></trkpt><trkpt lat="43.7273741" lon="11.2694516"><ele>180.6</ele><time>2026-04-18T14:14:24.838Z</time></trkpt><trkpt lat="43.7272726" lon="11.2695011"><ele>182.4</ele><time>2026-04-18T14:14:25.851Z</time></trkpt><trkpt lat="43.7271817" lon="11.2695602"><ele>184.20000000000002</ele><time>2026-04-18T14:14:26.85Z</time></trkpt><trkpt lat="43.7270966" lon="11.2696325"><ele>186.0</ele><time>2026-04-18T14:14:27.848Z</time></trkpt><trkpt lat="43.7270286" lon="11.2696967"><ele>187.8</ele><time>2026-04-18T14:14:28.841Z</time></trkpt><trkpt lat="43.7269571" lon="11.2697825"><ele>189.60000000000002</ele><time>2026-04-18T14:14:30.84Z</time></trkpt><trkpt lat="43.7268877" lon="11.2698815"><ele>191.4</ele><time>2026-04-18T14:14:37.868Z</time></trkpt><trkpt lat="43.7268134" lon="11.269983"><ele>193.2</ele><time>2026-04-18T14:14:39.884Z</time></trkpt><trkpt lat="43.7267624" lon="11.2700787"><ele>195.0</ele><time>2026-04-18T14:14:41.859Z</time></trkpt><trkpt lat="43.7267574" lon="11.270199"><ele>195.0</ele><time>2026-04-18T14:14:43.867Z</time></trkpt><trkpt lat="43.7267706" lon="11.2703422"><ele>195.0</ele><time>2026-04-18T14:14:45.86Z</time></trkpt><trkpt lat="43.7267864" lon="11.2705335"><ele>195.0</ele><time>2026-04-18T14:14:47.85Z</time></trkpt><trkpt lat="43.726798" lon="11.2706225"><ele>195.0</ele><time>2026-04-18T14:14:48.841Z</time></trkpt><trkpt lat="43.7268125" lon="11.2707246"><ele>195.0</ele><time>2026-04-18T14:14:49.848Z</time></trkpt><trkpt lat="43.7268276" lon="11.27082"><ele>195.16666666666666</ele><time>2026-04-18T14:14:50.829Z</time></trkpt><trkpt lat="43.7268427" lon="11.2709088"><ele>195.33333333333331</ele><time>2026-04-18T14:14:51.834Z</time></trkpt><trkpt lat="43.7268564" lon="11.2709961"><ele>195.5</ele><time>2026-04-18T14:14:52.835Z</time></trkpt><trkpt lat="43.7268572" lon="11.271126"><ele>195.66666666666666</ele><time>2026-04-18T14:14:54.847Z</time></trkpt><trkpt lat="43.7268368" lon="11.2712487"><ele>195.83333333333331</ele><time>2026-04-18T14:14:56.845Z</time></trkpt><trkpt lat="43.7268417" lon="11.2713967"><ele>196.0</ele><time>2026-04-18T14:14:58.825Z</time></trkpt><trkpt lat="43.7268519" lon="11.2715043"><ele>195.49999999999997</ele><time>2026-04-18T14:14:59.821Z</time></trkpt><trkpt lat="43.7268604" lon="11.2715931"><ele>195.0</ele><time>2026-04-18T14:15:00.821Z</time></trkpt><trkpt lat="43.7268717" lon="11.2717647"><ele>194.5</ele><time>2026-04-18T14:15:02.837Z</time></trkpt><trkpt lat="43.7268833" lon="11.2718564"><ele>194.0</ele><time>2026-04-18T14:15:03.836Z</time></trkpt><trkpt lat="43.7268992" lon="11.2719451"><ele>193.49999999999997</ele><time>2026-04-18T14:15:04.847Z</time></trkpt><trkpt lat="43.7269306" lon="11.2721023"><ele>193.0</ele><time>2026-04-18T14:15:06.849Z</time></trkpt><trkpt lat="43.7269654" lon="11.2722654"><ele>194.42857142857144</ele><time>2026-04-18T14:15:08.85Z</time></trkpt><trkpt lat="43.726985" lon="11.2723489"><ele>195.85714285714286</ele><time>2026-04-18T14:15:09.852Z</time></trkpt><trkpt lat="43.7270029" lon="11.2724367"><ele>197.28571428571428</ele><time>2026-04-18T14:15:10.866Z</time></trkpt><trkpt lat="43.727025" lon="11.2725241"><ele>198.71428571428572</ele><time>2026-04-18T14:15:11.854Z</time></trkpt><trkpt lat="43.7270492" lon="11.2726127"><ele>200.14285714285714</ele><time>2026-04-18T14:15:12.834Z</time></trkpt><trkpt lat="43.7270684" lon="11.272699"><ele>201.57142857142858</ele><time>2026-04-18T14:15:13.837Z</time></trkpt><trkpt lat="43.7271027" lon="11.2728359"><ele>203.0</ele><time>2026-04-18T14:15:15.828Z</time></trkpt><trkpt lat="43.7271375" lon="11.2729247"><ele>203.0</ele><time>2026-04-18T14:15:18.857Z</time></trkpt><trkpt lat="43.7272054" lon="11.2729123"><ele>203.0</ele><time>2026-04-18T14:15:52.864Z</time></trkpt><trkpt lat="43.7272713" lon="11.272876"><ele>203.0</ele><time>2026-04-18T14:15:54.873Z</time></trkpt><trkpt lat="43.7273781" lon="11.2727944"><ele>203.0</ele><time>2026-04-18T14:15:56.856Z</time></trkpt><trkpt lat="43.7274429" lon="11.2727647"><ele>203.0</ele><time>2026-04-18T14:15:57.859Z</time></trkpt><trkpt lat="43.7275652" lon="11.2727127"><ele>203.00000000000003</ele><time>2026-04-18T14:15:59.838Z</time></trkpt><trkpt lat="43.7276295" lon="11.2726818"><ele>203.0</ele><time>2026-04-18T14:16:00.838Z</time></trkpt><trkpt lat="43.7277039" lon="11.2726557"><ele>203.0</ele><time>2026-04-18T14:16:01.835Z</time></trkpt><trkpt lat="43.7278214" lon="11.2726191"><ele>203.0</ele><time>2026-04-18T14:16:03.859Z</time></trkpt><trkpt lat="43.7278882" lon="11.272607"><ele>203.00000000000003</ele><time>2026-04-18T14:16:04.857Z</time></trkpt><trkpt lat="43.7279591" lon="11.2725961"><ele>203.0</ele><time>2026-04-18T14:16:05.831Z</time></trkpt><trkpt lat="43.7280346" lon="11.2725874"><ele>204.0</ele><time>2026-04-18T14:16:06.825Z</time></trkpt><trkpt lat="43.728107" lon="11.2725776"><ele>205.0</ele><time>2026-04-18T14:16:07.822Z</time></trkpt><trkpt lat="43.7281751" lon="11.272565"><ele>206.0</ele><time>2026-04-18T14:16:08.826Z</time></trkpt><trkpt lat="43.7282517" lon="11.2725614"><ele>207.0</ele><time>2026-04-18T14:16:09.843Z</time></trkpt><trkpt lat="43.7283262" lon="11.2725586"><ele>208.0</ele><time>2026-04-18T14:16:10.839Z</time></trkpt><trkpt lat="43.7284002" lon="11.2725497"><ele>209.0</ele><time>2026-04-18T14:16:11.847Z</time></trkpt><trkpt lat="43.7284697" lon="11.272541"><ele>210.0</ele><time>2026-04-18T14:16:12.853Z</time></trkpt><trkpt lat="43.728533" lon="11.2725305"><ele>209.6</ele><time>2026-04-18T14:16:13.844Z</time></trkpt><trkpt lat="43.7286224" lon="11.2724631"><ele>209.2</ele><time>2026-04-18T14:16:15.817Z</time></trkpt><trkpt lat="43.7286992" lon="11.2723644"><ele>208.8</ele><time>2026-04-18T14:16:17.75Z</time></trkpt><trkpt lat="43.7287745" lon="11.2722673"><ele>208.4</ele><time>2026-04-18T14:16:19.764Z</time></trkpt><trkpt lat="43.7288454" lon="11.272159"><ele>208.0</ele><time>2026-04-18T14:16:21.769Z</time></trkpt><trkpt lat="43.7289195" lon="11.2720772"><ele>207.99999999999997</ele><time>2026-04-18T14:16:23.768Z</time></trkpt><trkpt lat="43.7290162" lon="11.2720761"><ele>208.0</ele><time>2026-04-18T14:16:25.771Z</time></trkpt><trkpt lat="43.7291345" lon="11.2721122"><ele>208.0</ele><time>2026-04-18T14:16:27.775Z</time></trkpt><trkpt lat="43.7291987" lon="11.2721335"><ele>208.0</ele><time>2026-04-18T14:16:28.774Z</time></trkpt><trkpt lat="43.7292625" lon="11.2721542"><ele>207.99999999999997</ele><time>2026-04-18T14:16:29.773Z</time></trkpt><trkpt lat="43.7293258" lon="11.2721684"><ele>208.0</ele><time>2026-04-18T14:16:30.769Z</time></trkpt><trkpt lat="43.729446" lon="11.2721963"><ele>208.4</ele><time>2026-04-18T14:16:32.771Z</time></trkpt><trkpt lat="43.7295578" lon="11.2722564"><ele>208.8</ele><time>2026-04-18T14:16:34.775Z</time></trkpt><trkpt lat="43.7296684" lon="11.2723355"><ele>209.2</ele><time>2026-04-18T14:16:36.774Z</time></trkpt><trkpt lat="43.7297287" lon="11.272381"><ele>209.6</ele><time>2026-04-18T14:16:37.768Z</time></trkpt><trkpt lat="43.7297891" lon="11.2724227"><ele>210.0</ele><time>2026-04-18T14:16:38.773Z</time></trkpt><trkpt lat="43.729853" lon="11.2724612"><ele>211.71428571428572</ele><time>2026-04-18T14:16:39.77Z</time></trkpt><trkpt lat="43.7299111" lon="11.2724972"><ele>213.42857142857144</ele><time>2026-04-18T14:16:40.771Z</time></trkpt><trkpt lat="43.729971" lon="11.2725323"><ele>215.14285714285714</ele><time>2026-04-18T14:16:41.77Z</time></trkpt><trkpt lat="43.7300371" lon="11.2725603"><ele>216.85714285714286</ele><time>2026-04-18T14:16:42.77Z</time></trkpt><trkpt lat="43.7301004" lon="11.2725861"><ele>218.57142857142858</ele><time>2026-04-18T14:16:43.802Z</time></trkpt><trkpt lat="43.730168" lon="11.2726091"><ele>220.28571428571428</ele><time>2026-04-18T14:16:44.773Z</time></trkpt><trkpt lat="43.7302404" lon="11.2726217"><ele>222.0</ele><time>2026-04-18T14:16:45.769Z</time></trkpt><trkpt lat="43.7303096" lon="11.272634"><ele>222.8</ele><time>2026-04-18T14:16:46.778Z</time></trkpt><trkpt lat="43.7304214" lon="11.2726602"><ele>223.6</ele><time>2026-04-18T14:16:48.775Z</time></trkpt><trkpt lat="43.7305224" lon="11.2726695"><ele>224.40000000000003</ele><time>2026-04-18T14:16:50.77Z</time></trkpt><trkpt lat="43.7306309" lon="11.2726578"><ele>225.20000000000002</ele><time>2026-04-18T14:16:52.773Z</time></trkpt><trkpt lat="43.7306938" lon="11.2726498"><ele>226.0</ele><time>2026-04-18T14:16:56.776Z</time></trkpt><trkpt lat="43.7307677" lon="11.2726326"><ele>225.99999999999997</ele><time>2026-04-18T14:17:16.783Z</time></trkpt><trkpt lat="43.7308419" lon="11.2726148"><ele>226.0</ele><time>2026-04-18T14:17:18.778Z</time></trkpt><trkpt lat="43.7309314" lon="11.2726046"><ele>226.0</ele><time>2026-04-18T14:17:20.78Z</time></trkpt><trkpt lat="43.7310125" lon="11.2725968"><ele>226.0</ele><time>2026-04-18T14:17:22.783Z</time></trkpt><trkpt lat="43.7311002" lon="11.2726053"><ele>225.99999999999997</ele><time>2026-04-18T14:17:24.789Z</time></trkpt><trkpt lat="43.7311807" lon="11.2726246"><ele>226.0</ele><time>2026-04-18T14:17:26.784Z</time></trkpt><trkpt lat="43.7312435" lon="11.2726541"><ele>224.66666666666666</ele><time>2026-04-18T14:17:28.779Z</time></trkpt><trkpt lat="43.7313059" lon="11.2726808"><ele>223.33333333333331</ele><time>2026-04-18T14:17:30.781Z</time></trkpt><trkpt lat="43.731368" lon="11.2726985"><ele>222.0</ele><time>2026-04-18T14:17:32.784Z</time></trkpt><trkpt lat="43.7314625" lon="11.272716"><ele>220.66666666666669</ele><time>2026-04-18T14:17:35.781Z</time></trkpt><trkpt lat="43.7315357" lon="11.2727531"><ele>219.33333333333334</ele><time>2026-04-18T14:17:37.774Z</time></trkpt><trkpt lat="43.7316202" lon="11.2728175"><ele>218.0</ele><time>2026-04-18T14:17:39.773Z</time></trkpt><trkpt lat="43.7317174" lon="11.2728806"><ele>218.0</ele><time>2026-04-18T14:17:41.777Z</time></trkpt><trkpt lat="43.7317767" lon="11.2729133"><ele>218.0</ele><time>2026-04-18T14:17:42.776Z</time></trkpt><trkpt lat="43.73189" lon="11.2729825"><ele>218.0</ele><time>2026-04-18T14:17:44.791Z</time></trkpt><trkpt lat="43.731997" lon="11.273059"><ele>218.0</ele><time>2026-04-18T14:17:46.783Z</time></trkpt><trkpt lat="43.7320976" lon="11.2731311"><ele>218.0</ele><time>2026-04-18T14:17:48.776Z</time></trkpt><trkpt lat="43.7321906" lon="11.2731934"><ele>218.8</ele><time>2026-04-18T14:17:50.776Z</time></trkpt><trkpt lat="43.7322895" lon="11.2732728"><ele>219.60000000000002</ele><time>2026-04-18T14:17:52.778Z</time></trkpt><trkpt lat="43.7323856" lon="11.2733266"><ele>220.39999999999998</ele><time>2026-04-18T14:17:54.781Z</time></trkpt><trkpt lat="43.7324772" lon="11.273399"><ele>221.2</ele><time>2026-04-18T14:17:56.777Z</time></trkpt><trkpt lat="43.7325575" lon="11.2734868"><ele>222.0</ele><time>2026-04-18T14:17:58.775Z</time></trkpt><trkpt lat="43.7326148" lon="11.2735884"><ele>222.0</ele><time>2026-04-18T14:18:00.775Z</time></trkpt><trkpt lat="43.7326179" lon="11.2736973"><ele>222.0</ele><time>2026-04-18T14:18:02.787Z</time></trkpt><trkpt lat="43.7325536" lon="11.2737667"><ele>222.0</ele><time>2026-04-18T14:18:04.78Z</time></trkpt><trkpt lat="43.7324868" lon="11.2738251"><ele>222.0</ele><time>2026-04-18T14:18:06.771Z</time></trkpt><trkpt lat="43.7324371" lon="11.2739443"><ele>222.0</ele><time>2026-04-18T14:18:08.781Z</time></trkpt><trkpt lat="43.7324142" lon="11.2740885"><ele>222.0</ele><time>2026-04-18T14:18:10.774Z</time></trkpt><trkpt lat="43.732418" lon="11.2742452"><ele>222.75</ele><time>2026-04-18T14:18:12.77Z</time></trkpt><trkpt lat="43.7324572" lon="11.2743823"><ele>223.5</ele><time>2026-04-18T14:18:14.774Z</time></trkpt><trkpt lat="43.7324976" lon="11.2745312"><ele>224.25</ele><time>2026-04-18T14:18:16.77Z</time></trkpt><trkpt lat="43.7325381" lon="11.2746913"><ele>225.0</ele><time>2026-04-18T14:18:18.768Z</time></trkpt><trkpt lat="43.7325763" lon="11.2748651"><ele>225.0</ele><time>2026-04-18T14:18:20.762Z</time></trkpt><trkpt lat="43.7326008" lon="11.2749496"><ele>225.0</ele><time>2026-04-18T14:18:21.763Z</time></trkpt><trkpt lat="43.7326348" lon="11.2751037"><ele>225.0</ele><time>2026-04-18T14:18:23.77Z</time></trkpt><trkpt lat="43.7326746" lon="11.275249"><ele>225.0</ele><time>2026-04-18T14:18:25.773Z</time></trkpt><trkpt lat="43.7327016" lon="11.2753749"><ele>225.0</ele><time>2026-04-18T14:18:27.776Z</time></trkpt><trkpt lat="43.7327431" lon="11.2754695"><ele>225.0</ele><time>2026-04-18T14:18:30.769Z</time></trkpt><trkpt lat="43.732682" lon="11.2755345"><ele>225.0</ele><time>2026-04-18T14:19:02.778Z</time></trkpt><trkpt lat="43.7326144" lon="11.2755451"><ele>225.0</ele><time>2026-04-18T14:19:04.775Z</time></trkpt><trkpt lat="43.7325361" lon="11.2755721"><ele>225.0</ele><time>2026-04-18T14:19:06.783Z</time></trkpt><trkpt lat="43.7324574" lon="11.2756106"><ele>225.0</ele><time>2026-04-18T14:19:08.781Z</time></trkpt><trkpt lat="43.7323748" lon="11.2756624"><ele>225.0</ele><time>2026-04-18T14:19:10.768Z</time></trkpt><trkpt lat="43.7322949" lon="11.2757261"><ele>224.0</ele><time>2026-04-18T14:19:12.778Z</time></trkpt><trkpt lat="43.7322253" lon="11.2757769"><ele>223.0</ele><time>2026-04-18T14:19:14.779Z</time></trkpt><trkpt lat="43.7321504" lon="11.275827"><ele>222.0</ele><time>2026-04-18T14:19:16.781Z</time></trkpt><trkpt lat="43.7320751" lon="11.2758763"><ele>221.0</ele><time>2026-04-18T14:19:18.777Z</time></trkpt><trkpt lat="43.7319958" lon="11.2759242"><ele>220.0</ele><time>2026-04-18T14:19:20.777Z</time></trkpt><trkpt lat="43.7319035" lon="11.2759681"><ele>219.0</ele><time>2026-04-18T14:19:22.776Z</time></trkpt><trkpt lat="43.7318276" lon="11.2760049"><ele>217.83333333333334</ele><time>2026-04-18T14:19:24.779Z</time></trkpt><trkpt lat="43.7317606" lon="11.2760309"><ele>216.66666666666669</ele><time>2026-04-18T14:19:26.785Z</time></trkpt><trkpt lat="43.7316715" lon="11.2760659"><ele>215.5</ele><time>2026-04-18T14:19:29.795Z</time></trkpt><trkpt lat="43.7316104" lon="11.2761322"><ele>214.33333333333334</ele><time>2026-04-18T14:19:31.789Z</time></trkpt><trkpt lat="43.7315436" lon="11.276216"><ele>213.16666666666669</ele><time>2026-04-18T14:19:33.791Z</time></trkpt><trkpt lat="43.7314581" lon="11.2763064"><ele>212.0</ele><time>2026-04-18T14:19:35.779Z</time></trkpt><trkpt lat="43.7313768" lon="11.2763912"><ele>211.0</ele><time>2026-04-18T14:19:37.784Z</time></trkpt><trkpt lat="43.7313053" lon="11.2764582"><ele>210.0</ele><time>2026-04-18T14:19:39.791Z</time></trkpt><trkpt lat="43.7312176" lon="11.2765383"><ele>209.0</ele><time>2026-04-18T14:19:42.787Z</time></trkpt><trkpt lat="43.7311487" lon="11.2766189"><ele>208.0</ele><time>2026-04-18T14:19:44.793Z</time></trkpt><trkpt lat="43.7310765" lon="11.276729"><ele>207.0</ele><time>2026-04-18T14:19:46.797Z</time></trkpt><trkpt lat="43.7310094" lon="11.2768135"><ele>206.57142857142858</ele><time>2026-04-18T14:19:48.799Z</time></trkpt><trkpt lat="43.7309665" lon="11.27688"><ele>206.14285714285714</ele><time>2026-04-18T14:19:50.731Z</time></trkpt><trkpt lat="43.7309131" lon="11.2769302"><ele>205.71428571428572</ele><time>2026-04-18T14:19:51.783Z</time></trkpt><trkpt lat="43.7308543" lon="11.2770261"><ele>205.28571428571428</ele><time>2026-04-18T14:19:53.79Z</time></trkpt><trkpt lat="43.7307911" lon="11.2770883"><ele>204.85714285714286</ele><time>2026-04-18T14:19:55.716Z</time></trkpt><trkpt lat="43.730737" lon="11.2771488"><ele>204.42857142857144</ele><time>2026-04-18T14:19:57.8Z</time></trkpt><trkpt lat="43.7306823" lon="11.2772154"><ele>204.0</ele><time>2026-04-18T14:19:59.78Z</time></trkpt><trkpt lat="43.7306276" lon="11.2772706"><ele>203.66666666666666</ele><time>2026-04-18T14:20:01.794Z</time></trkpt><trkpt lat="43.730569" lon="11.2773337"><ele>203.33333333333331</ele><time>2026-04-18T14:20:03.791Z</time></trkpt><trkpt lat="43.7305166" lon="11.2774073"><ele>203.0</ele><time>2026-04-18T14:20:05.789Z</time></trkpt><trkpt lat="43.730482" lon="11.2774825"><ele>202.66666666666666</ele><time>2026-04-18T14:20:07.792Z</time></trkpt><trkpt lat="43.7304267" lon="11.2775804"><ele>202.33333333333331</ele><time>2026-04-18T14:20:10.785Z</time></trkpt><trkpt lat="43.7303525" lon="11.2776436"><ele>202.0</ele><time>2026-04-18T14:20:13.783Z</time></trkpt><trkpt lat="43.7303156" lon="11.2777239"><ele>202.0</ele><time>2026-04-18T14:20:16.773Z</time></trkpt><trkpt lat="43.7303155" lon="11.2778207"><ele>202.0</ele><time>2026-04-18T14:20:18.777Z</time></trkpt><trkpt lat="43.7303596" lon="11.2779007"><ele>202.0</ele><time>2026-04-18T14:20:20.772Z</time></trkpt><trkpt lat="43.730414" lon="11.277967"><ele>202.0</ele><time>2026-04-18T14:20:22.778Z</time></trkpt><trkpt lat="43.7304701" lon="11.2780261"><ele>202.0</ele><time>2026-04-18T14:20:24.775Z</time></trkpt><trkpt lat="43.7305112" lon="11.2780954"><ele>202.0</ele><time>2026-04-18T14:20:26.774Z</time></trkpt><trkpt lat="43.7305304" lon="11.2781918"><ele>202.0</ele><time>2026-04-18T14:20:28.77Z</time></trkpt><trkpt lat="43.7305912" lon="11.2782696"><ele>199.2</ele><time>2026-04-18T14:20:31.773Z</time></trkpt><trkpt lat="43.7306533" lon="11.2783345"><ele>196.39999999999998</ele><time>2026-04-18T14:20:33.781Z</time></trkpt><trkpt lat="43.7307405" lon="11.2783865"><ele>193.60000000000002</ele><time>2026-04-18T14:20:35.77Z</time></trkpt><trkpt lat="43.7308397" lon="11.2784483"><ele>190.8</ele><time>2026-04-18T14:20:37.772Z</time></trkpt><trkpt lat="43.7309156" lon="11.2784993"><ele>188.0</ele><time>2026-04-18T14:20:39.771Z</time></trkpt><trkpt lat="43.7309927" lon="11.278551"><ele>186.2</ele><time>2026-04-18T14:20:41.78Z</time></trkpt><trkpt lat="43.7310917" lon="11.2785995"><ele>184.4</ele><time>2026-04-18T14:20:43.783Z</time></trkpt><trkpt lat="43.731187" lon="11.2786053"><ele>182.6</ele><time>2026-04-18T14:20:45.773Z</time></trkpt><trkpt lat="43.7312707" lon="11.2785901"><ele>180.79999999999998</ele><time>2026-04-18T14:20:47.781Z</time></trkpt><trkpt lat="43.7313767" lon="11.2785551"><ele>179.0</ele><time>2026-04-18T14:20:49.768Z</time></trkpt><trkpt lat="43.7314428" lon="11.2785388"><ele>179.0</ele><time>2026-04-18T14:20:50.794Z</time></trkpt><trkpt lat="43.7315471" lon="11.2785221"><ele>179.0</ele><time>2026-04-18T14:20:52.776Z</time></trkpt><trkpt lat="43.7316423" lon="11.2785719"><ele>179.0</ele><time>2026-04-18T14:20:54.775Z</time></trkpt><trkpt lat="43.7317195" lon="11.2786365"><ele>179.0</ele><time>2026-04-18T14:20:56.778Z</time></trkpt><trkpt lat="43.731776" lon="11.2787088"><ele>179.0</ele><time>2026-04-18T14:20:58.77Z</time></trkpt><trkpt lat="43.7318068" lon="11.2787949"><ele>179.0</ele><time>2026-04-18T14:21:00.775Z</time></trkpt><trkpt lat="43.7318258" lon="11.2788797"><ele>177.66666666666666</ele><time>2026-04-18T14:21:19.778Z</time></trkpt><trkpt lat="43.7318098" lon="11.2790083"><ele>176.33333333333331</ele><time>2026-04-18T14:21:22.783Z</time></trkpt><trkpt lat="43.731791" lon="11.2791274"><ele>175.0</ele><time>2026-04-18T14:21:24.777Z</time></trkpt><trkpt lat="43.7317552" lon="11.279226"><ele>173.66666666666666</ele><time>2026-04-18T14:21:26.777Z</time></trkpt><trkpt lat="43.7317183" lon="11.2793094"><ele>172.33333333333334</ele><time>2026-04-18T14:21:28.771Z</time></trkpt><trkpt lat="43.7316765" lon="11.2793894"><ele>171.0</ele><time>2026-04-18T14:21:30.779Z</time></trkpt><trkpt lat="43.7316181" lon="11.2794801"><ele>171.0</ele><time>2026-04-18T14:21:33.778Z</time></trkpt><trkpt lat="43.7315492" lon="11.2795183"><ele>171.0</ele><time>2026-04-18T14:21:35.775Z</time></trkpt><trkpt lat="43.731439" lon="11.2795508"><ele>171.0</ele><time>2026-04-18T14:21:37.767Z</time></trkpt><trkpt lat="43.7313698" lon="11.2795817"><ele>171.0</ele><time>2026-04-18T14:21:38.778Z</time></trkpt><trkpt lat="43.7312996" lon="11.2796238"><ele>171.0</ele><time>2026-04-18T14:21:39.77Z</time></trkpt><trkpt lat="43.7312269" lon="11.279661"><ele>171.0</ele><time>2026-04-18T14:21:40.768Z</time></trkpt><trkpt lat="43.7311585" lon="11.2796874"><ele>171.0</ele><time>2026-04-18T14:21:41.769Z</time></trkpt><trkpt lat="43.7310935" lon="11.2797094"><ele>171.0</ele><time>2026-04-18T14:21:42.769Z</time></trkpt><trkpt lat="43.7310307" lon="11.2797369"><ele>171.0</ele><time>2026-04-18T14:21:43.767Z</time></trkpt><trkpt lat="43.7309427" lon="11.2797776"><ele>171.0</ele><time>2026-04-18T14:21:45.764Z</time></trkpt><trkpt lat="43.7308767" lon="11.2798136"><ele>171.0</ele><time>2026-04-18T14:21:51.795Z</time></trkpt><trkpt lat="43.7309193" lon="11.2799256"><ele>171.0</ele><time>2026-04-18T14:21:57.779Z</time></trkpt><trkpt lat="43.7309488" lon="11.2800705"><ele>171.33333333333334</ele><time>2026-04-18T14:21:59.775Z</time></trkpt><trkpt lat="43.7309743" lon="11.280171"><ele>171.66666666666666</ele><time>2026-04-18T14:22:00.771Z</time></trkpt><trkpt lat="43.7309998" lon="11.2802849"><ele>172.0</ele><time>2026-04-18T14:22:01.766Z</time></trkpt><trkpt lat="43.7310162" lon="11.2803702"><ele>172.33333333333331</ele><time>2026-04-18T14:22:02.765Z</time></trkpt><trkpt lat="43.7310372" lon="11.2805092"><ele>172.66666666666666</ele><time>2026-04-18T14:22:04.759Z</time></trkpt><trkpt lat="43.7310599" lon="11.2806627"><ele>173.0</ele><time>2026-04-18T14:22:06.761Z</time></trkpt><trkpt lat="43.7310538" lon="11.2807788"><ele>173.0</ele><time>2026-04-18T14:22:08.752Z</time></trkpt><trkpt lat="43.7309717" lon="11.2808378"><ele>173.0</ele><time>2026-04-18T14:22:10.76Z</time></trkpt><trkpt lat="43.7308631" lon="11.28084"><ele>173.0</ele><time>2026-04-18T14:22:12.767Z</time></trkpt><trkpt lat="43.7308007" lon="11.2808251"><ele>173.0</ele><time>2026-04-18T14:22:13.759Z</time></trkpt><trkpt lat="43.7307354" lon="11.2808035"><ele>173.0</ele><time>2026-04-18T14:22:14.754Z</time></trkpt><trkpt lat="43.7306658" lon="11.2807902"><ele>173.0</ele><time>2026-04-18T14:22:15.754Z</time></trkpt><trkpt lat="43.7305936" lon="11.2807976"><ele>173.0</ele><time>2026-04-18T14:22:16.75Z</time></trkpt><trkpt lat="43.7305213" lon="11.2808198"><ele>173.0</ele><time>2026-04-18T14:22:17.746Z</time></trkpt><trkpt lat="43.7304525" lon="11.2808459"><ele>173.0</ele><time>2026-04-18T14:22:18.743Z</time></trkpt><trkpt lat="43.7303798" lon="11.280881"><ele>173.0</ele><time>2026-04-18T14:22:19.742Z</time></trkpt><trkpt lat="43.7303148" lon="11.2809124"><ele>173.0</ele><time>2026-04-18T14:22:20.754Z</time></trkpt><trkpt lat="43.7302569" lon="11.280947"><ele>173.0</ele><time>2026-04-18T14:22:21.746Z</time></trkpt><trkpt lat="43.730168" lon="11.28101"><ele>173.0</ele><time>2026-04-18T14:22:23.769Z</time></trkpt><trkpt lat="43.7302392" lon="11.28108"><ele>173.0</ele><time>2026-04-18T14:22:40.775Z</time></trkpt><trkpt lat="43.7303166" lon="11.281104"><ele>173.0</ele><time>2026-04-18T14:22:43.765Z</time></trkpt><trkpt lat="43.7303335" lon="11.2811928"><ele>173.0</ele><time>2026-04-18T14:23:02.782Z</time></trkpt><trkpt lat="43.7302765" lon="11.2812562"><ele>173.0</ele><time>2026-04-18T14:23:06.772Z</time></trkpt><trkpt lat="43.7302139" lon="11.2812983"><ele>173.0</ele><time>2026-04-18T14:23:09.77Z</time></trkpt><trkpt lat="43.7302764" lon="11.2813301"><ele>173.0</ele><time>2026-04-18T14:23:16.764Z</time></trkpt><trkpt lat="43.7303477" lon="11.2813244"><ele>173.0</ele><time>2026-04-18T14:23:18.765Z</time></trkpt><trkpt lat="43.7304156" lon="11.2813355"><ele>173.0</ele><time>2026-04-18T14:23:20.768Z</time></trkpt><trkpt lat="43.7303335" lon="11.2813713"><ele>173.0</ele><time>2026-04-18T14:24:33.772Z</time></trkpt><trkpt lat="43.7302504" lon="11.281347"><ele>173.0</ele><time>2026-04-18T14:24:36.778Z</time></trkpt><trkpt lat="43.7302388" lon="11.2812612"><ele>173.0</ele><time>2026-04-18T14:24:40.78Z</time></trkpt><trkpt lat="43.7303044" lon="11.2812277"><ele>173.0</ele><time>2026-04-18T14:24:44.783Z</time></trkpt><trkpt lat="43.7302422" lon="11.2811599"><ele>173.0</ele><time>2026-04-18T14:24:52.782Z</time></trkpt><trkpt lat="43.7301691" lon="11.2811414"><ele>173.0</ele><time>2026-04-18T14:24:55.776Z</time></trkpt><trkpt lat="43.7301672" lon="11.2810537"><ele>173.0</ele><time>2026-04-18T14:24:58.775Z</time></trkpt><trkpt lat="43.7302344" lon="11.2810081"><ele>173.0</ele><time>2026-04-18T14:25:01.771Z</time></trkpt><trkpt lat="43.7303031" lon="11.280968"><ele>173.0</ele><time>2026-04-18T14:25:03.777Z</time></trkpt><trkpt lat="43.7304084" lon="11.2809043"><ele>173.0</ele><time>2026-04-18T14:25:05.775Z</time></trkpt><trkpt lat="43.7304688" lon="11.2808665"><ele>173.0</ele><time>2026-04-18T14:25:06.778Z</time></trkpt><trkpt lat="43.730532" lon="11.2808299"><ele>173.0</ele><time>2026-04-18T14:25:07.756Z</time></trkpt><trkpt lat="43.7305915" lon="11.2807965"><ele>173.0</ele><time>2026-04-18T14:25:08.753Z</time></trkpt><trkpt lat="43.7307074" lon="11.280775"><ele>173.0</ele><time>2026-04-18T14:25:10.739Z</time></trkpt><trkpt lat="43.7307858" lon="11.2807807"><ele>173.0</ele><time>2026-04-18T14:25:11.741Z</time></trkpt><trkpt lat="43.7308584" lon="11.2807852"><ele>173.0</ele><time>2026-04-18T14:25:12.748Z</time></trkpt><trkpt lat="43.7309275" lon="11.2807938"><ele>173.0</ele><time>2026-04-18T14:25:13.75Z</time></trkpt><trkpt lat="43.7310177" lon="11.280793"><ele>173.0</ele><time>2026-04-18T14:25:15.746Z</time></trkpt><trkpt lat="43.7310279" lon="11.2806945"><ele>173.0</ele><time>2026-04-18T14:25:18.763Z</time></trkpt><trkpt lat="43.7309911" lon="11.2804933"><ele>173.0</ele><time>2026-04-18T14:25:20.737Z</time></trkpt><trkpt lat="43.7309645" lon="11.2803723"><ele>173.0</ele><time>2026-04-18T14:25:21.746Z</time></trkpt><trkpt lat="43.7309516" lon="11.2802439"><ele>171.2</ele><time>2026-04-18T14:25:22.757Z</time></trkpt><trkpt lat="43.7309403" lon="11.2801261"><ele>169.4</ele><time>2026-04-18T14:25:23.752Z</time></trkpt><trkpt lat="43.73093" lon="11.2800145"><ele>167.6</ele><time>2026-04-18T14:25:24.76Z</time></trkpt><trkpt lat="43.7309238" lon="11.2798758"><ele>165.79999999999998</ele><time>2026-04-18T14:25:26.746Z</time></trkpt><trkpt lat="43.7308661" lon="11.2798201"><ele>164.0</ele><time>2026-04-18T14:25:30.779Z</time></trkpt><trkpt lat="43.7307538" lon="11.2798332"><ele>164.0</ele><time>2026-04-18T14:25:33.779Z</time></trkpt><trkpt lat="43.7306659" lon="11.2798627"><ele>164.0</ele><time>2026-04-18T14:25:34.761Z</time></trkpt><trkpt lat="43.7305684" lon="11.2798954"><ele>164.0</ele><time>2026-04-18T14:25:35.788Z</time></trkpt><trkpt lat="43.730477" lon="11.2799332"><ele>164.0</ele><time>2026-04-18T14:25:36.776Z</time></trkpt><trkpt lat="43.7303934" lon="11.2799718"><ele>164.0</ele><time>2026-04-18T14:25:37.774Z</time></trkpt><trkpt lat="43.730312" lon="11.2800074"><ele>162.39999999999998</ele><time>2026-04-18T14:25:38.777Z</time></trkpt><trkpt lat="43.7302223" lon="11.2800322"><ele>160.79999999999998</ele><time>2026-04-18T14:25:39.777Z</time></trkpt><trkpt lat="43.7301179" lon="11.2800626"><ele>159.2</ele><time>2026-04-18T14:25:40.85Z</time></trkpt><trkpt lat="43.7300114" lon="11.28007"><ele>157.6</ele><time>2026-04-18T14:25:41.752Z</time></trkpt><trkpt lat="43.7298957" lon="11.2800624"><ele>156.0</ele><time>2026-04-18T14:25:42.759Z</time></trkpt><trkpt lat="43.7297715" lon="11.2800369"><ele>156.0</ele><time>2026-04-18T14:25:43.761Z</time></trkpt><trkpt lat="43.7296629" lon="11.2800113"><ele>156.0</ele><time>2026-04-18T14:25:44.766Z</time></trkpt><trkpt lat="43.7295651" lon="11.2799878"><ele>156.0</ele><time>2026-04-18T14:25:45.767Z</time></trkpt><trkpt lat="43.7294707" lon="11.2799729"><ele>156.0</ele><time>2026-04-18T14:25:46.77Z</time></trkpt><trkpt lat="43.7293873" lon="11.279953"><ele>156.0</ele><time>2026-04-18T14:25:47.757Z</time></trkpt><trkpt lat="43.7292895" lon="11.2799273"><ele>154.85714285714286</ele><time>2026-04-18T14:25:49.759Z</time></trkpt><trkpt lat="43.7292255" lon="11.2799165"><ele>153.7142857142857</ele><time>2026-04-18T14:26:11.766Z</time></trkpt><trkpt lat="43.7291515" lon="11.2799046"><ele>152.57142857142856</ele><time>2026-04-18T14:26:13.769Z</time></trkpt><trkpt lat="43.7290851" lon="11.2798925"><ele>151.42857142857144</ele><time>2026-04-18T14:26:14.766Z</time></trkpt><trkpt lat="43.7290144" lon="11.2798817"><ele>150.28571428571428</ele><time>2026-04-18T14:26:15.755Z</time></trkpt><trkpt lat="43.7289367" lon="11.2798574"><ele>149.14285714285714</ele><time>2026-04-18T14:26:16.758Z</time></trkpt><trkpt lat="43.7288505" lon="11.2798603"><ele>148.0</ele><time>2026-04-18T14:26:17.751Z</time></trkpt><trkpt lat="43.7287706" lon="11.2798747"><ele>148.0</ele><time>2026-04-18T14:26:18.756Z</time></trkpt><trkpt lat="43.7286882" lon="11.2798864"><ele>148.0</ele><time>2026-04-18T14:26:19.747Z</time></trkpt><trkpt lat="43.7286117" lon="11.2798903"><ele>148.0</ele><time>2026-04-18T14:26:20.749Z</time></trkpt><trkpt lat="43.7285483" lon="11.2799068"><ele>148.0</ele><time>2026-04-18T14:26:21.749Z</time></trkpt><trkpt lat="43.7284902" lon="11.2799531"><ele>148.0</ele><time>2026-04-18T14:26:22.748Z</time></trkpt><trkpt lat="43.7284427" lon="11.2800103"><ele>148.0</ele><time>2026-04-18T14:26:23.739Z</time></trkpt><trkpt lat="43.7283892" lon="11.280103"><ele>148.0</ele><time>2026-04-18T14:26:24.747Z</time></trkpt><trkpt lat="43.7283148" lon="11.2802022"><ele>148.0</ele><time>2026-04-18T14:26:25.748Z</time></trkpt><trkpt lat="43.7282326" lon="11.2803065"><ele>148.0</ele><time>2026-04-18T14:26:26.752Z</time></trkpt><trkpt lat="43.7281552" lon="11.2804109"><ele>148.0</ele><time>2026-04-18T14:26:27.753Z</time></trkpt><trkpt lat="43.7280759" lon="11.2805035"><ele>148.0</ele><time>2026-04-18T14:26:28.754Z</time></trkpt><trkpt lat="43.7279955" lon="11.2805921"><ele>148.0</ele><time>2026-04-18T14:26:29.755Z</time></trkpt><trkpt lat="43.7279182" lon="11.2806797"><ele>147.20000000000002</ele><time>2026-04-18T14:26:30.768Z</time></trkpt><trkpt lat="43.7278393" lon="11.2807449"><ele>146.4</ele><time>2026-04-18T14:26:31.75Z</time></trkpt><trkpt lat="43.7277457" lon="11.2807984"><ele>145.60000000000002</ele><time>2026-04-18T14:26:32.764Z</time></trkpt><trkpt lat="43.727637" lon="11.2808507"><ele>144.8</ele><time>2026-04-18T14:26:33.755Z</time></trkpt><trkpt lat="43.7275253" lon="11.2808957"><ele>144.0</ele><time>2026-04-18T14:26:34.755Z</time></trkpt><trkpt lat="43.7274082" lon="11.2809543"><ele>143.25</ele><time>2026-04-18T14:26:35.749Z</time></trkpt><trkpt lat="43.7272844" lon="11.2810161"><ele>142.5</ele><time>2026-04-18T14:26:36.753Z</time></trkpt><trkpt lat="43.7271545" lon="11.2810835"><ele>141.75</ele><time>2026-04-18T14:26:37.753Z</time></trkpt><trkpt lat="43.7270368" lon="11.281135"><ele>141.0</ele><time>2026-04-18T14:26:38.759Z</time></trkpt><trkpt lat="43.7269234" lon="11.2811924"><ele>139.75</ele><time>2026-04-18T14:26:39.757Z</time></trkpt><trkpt lat="43.7268104" lon="11.2812371"><ele>138.5</ele><time>2026-04-18T14:26:40.764Z</time></trkpt><trkpt lat="43.7267057" lon="11.2812882"><ele>137.25</ele><time>2026-04-18T14:26:41.756Z</time></trkpt><trkpt lat="43.7265979" lon="11.2813456"><ele>136.0</ele><time>2026-04-18T14:26:42.76Z</time></trkpt><trkpt lat="43.7264971" lon="11.2814045"><ele>135.75</ele><time>2026-04-18T14:26:43.757Z</time></trkpt><trkpt lat="43.7263914" lon="11.2814807"><ele>135.5</ele><time>2026-04-18T14:26:44.759Z</time></trkpt><trkpt lat="43.7262846" lon="11.2815612"><ele>135.25</ele><time>2026-04-18T14:26:45.759Z</time></trkpt><trkpt lat="43.7261843" lon="11.2816494"><ele>135.0</ele><time>2026-04-18T14:26:46.767Z</time></trkpt><trkpt lat="43.7260938" lon="11.2817277"><ele>133.16666666666666</ele><time>2026-04-18T14:26:47.757Z</time></trkpt><trkpt lat="43.7260144" lon="11.2817892"><ele>131.33333333333334</ele><time>2026-04-18T14:26:48.763Z</time></trkpt><trkpt lat="43.7259529" lon="11.281845"><ele>129.5</ele><time>2026-04-18T14:26:49.758Z</time></trkpt><trkpt lat="43.725873" lon="11.2819197"><ele>127.66666666666667</ele><time>2026-04-18T14:26:51.755Z</time></trkpt><trkpt lat="43.7258035" lon="11.281928"><ele>125.83333333333334</ele><time>2026-04-18T14:26:53.763Z</time></trkpt><trkpt lat="43.7257968" lon="11.2818336"><ele>124.0</ele><time>2026-04-18T14:26:58.769Z</time></trkpt><trkpt lat="43.7258283" lon="11.2817363"><ele>124.00000000000001</ele><time>2026-04-18T14:27:03.769Z</time></trkpt><trkpt lat="43.7258417" lon="11.2816333"><ele>124.0</ele><time>2026-04-18T14:27:05.767Z</time></trkpt><trkpt lat="43.7258163" lon="11.2814852"><ele>124.0</ele><time>2026-04-18T14:27:07.771Z</time></trkpt><trkpt lat="43.725833" lon="11.2816217"><ele>124.0</ele><time>2026-04-18T14:27:35.76Z</time></trkpt><trkpt lat="43.7258365" lon="11.2817112"><ele>124.00000000000001</ele><time>2026-04-18T14:27:36.753Z</time></trkpt><trkpt lat="43.7258179" lon="11.2818243"><ele>124.0</ele><time>2026-04-18T14:27:37.744Z</time></trkpt><trkpt lat="43.7257953" lon="11.2819192"><ele>124.00000000000001</ele><time>2026-04-18T14:27:38.75Z</time></trkpt><trkpt lat="43.7257435" lon="11.2819945"><ele>124.0</ele><time>2026-04-18T14:27:39.756Z</time></trkpt><trkpt lat="43.7256661" lon="11.2820709"><ele>124.0</ele><time>2026-04-18T14:27:40.762Z</time></trkpt><trkpt lat="43.725594" lon="11.2821603"><ele>124.0</ele><time>2026-04-18T14:27:41.76Z</time></trkpt><trkpt lat="43.7255296" lon="11.2822462"><ele>124.00000000000001</ele><time>2026-04-18T14:27:42.763Z</time></trkpt><trkpt lat="43.7254753" lon="11.2823335"><ele>124.0</ele><time>2026-04-18T14:27:43.757Z</time></trkpt><trkpt lat="43.7254243" lon="11.282413"><ele>123.6</ele><time>2026-04-18T14:27:44.759Z</time></trkpt><trkpt lat="43.7253688" lon="11.2825002"><ele>123.2</ele><time>2026-04-18T14:27:45.758Z</time></trkpt><trkpt lat="43.7253101" lon="11.2826036"><ele>122.79999999999998</ele><time>2026-04-18T14:27:46.768Z</time></trkpt><trkpt lat="43.7252263" lon="11.2827147"><ele>122.39999999999999</ele><time>2026-04-18T14:27:47.755Z</time></trkpt><trkpt lat="43.7251271" lon="11.282809"><ele>122.0</ele><time>2026-04-18T14:27:48.761Z</time></trkpt><trkpt lat="43.7250178" lon="11.2828893"><ele>122.0</ele><time>2026-04-18T14:27:49.765Z</time></trkpt><trkpt lat="43.7249212" lon="11.2829688"><ele>121.99999999999999</ele><time>2026-04-18T14:27:50.763Z</time></trkpt><trkpt lat="43.7248398" lon="11.2830564"><ele>121.99999999999999</ele><time>2026-04-18T14:27:51.765Z</time></trkpt><trkpt lat="43.7247613" lon="11.2831438"><ele>122.0</ele><time>2026-04-18T14:27:52.761Z</time></trkpt><trkpt lat="43.7247048" lon="11.2832414"><ele>122.0</ele><time>2026-04-18T14:27:53.76Z</time></trkpt><trkpt lat="43.7246621" lon="11.283354"><ele>121.39999999999999</ele><time>2026-04-18T14:27:54.759Z</time></trkpt><trkpt lat="43.7246112" lon="11.283482"><ele>120.79999999999998</ele><time>2026-04-18T14:27:55.763Z</time></trkpt><trkpt lat="43.7245572" lon="11.2836024"><ele>120.2</ele><time>2026-04-18T14:27:56.761Z</time></trkpt><trkpt lat="43.7245096" lon="11.2837191"><ele>119.6</ele><time>2026-04-18T14:27:57.762Z</time></trkpt><trkpt lat="43.7244624" lon="11.2838347"><ele>119.0</ele><time>2026-04-18T14:27:58.763Z</time></trkpt><trkpt lat="43.7244126" lon="11.2839453"><ele>118.6</ele><time>2026-04-18T14:27:59.762Z</time></trkpt><trkpt lat="43.724359" lon="11.2840512"><ele>118.2</ele><time>2026-04-18T14:28:00.764Z</time></trkpt><trkpt lat="43.7243107" lon="11.2841592"><ele>117.79999999999998</ele><time>2026-04-18T14:28:01.764Z</time></trkpt><trkpt lat="43.7242743" lon="11.2842454"><ele>117.39999999999999</ele><time>2026-04-18T14:28:02.759Z</time></trkpt><trkpt lat="43.7242471" lon="11.284331"><ele>117.0</ele><time>2026-04-18T14:28:03.777Z</time></trkpt><trkpt lat="43.7242547" lon="11.2845093"><ele>117.0</ele><time>2026-04-18T14:28:05.771Z</time></trkpt><trkpt lat="43.7242671" lon="11.2846099"><ele>117.0</ele><time>2026-04-18T14:28:06.759Z</time></trkpt><trkpt lat="43.7242632" lon="11.2847073"><ele>117.0</ele><time>2026-04-18T14:28:07.764Z</time></trkpt><trkpt lat="43.7242419" lon="11.2848047"><ele>117.0</ele><time>2026-04-18T14:28:08.764Z</time></trkpt><trkpt lat="43.724211" lon="11.2849132"><ele>117.0</ele><time>2026-04-18T14:28:09.76Z</time></trkpt><trkpt lat="43.7241698" lon="11.2850253"><ele>117.0</ele><time>2026-04-18T14:28:10.765Z</time></trkpt><trkpt lat="43.7241291" lon="11.2851397"><ele>117.0</ele><time>2026-04-18T14:28:11.768Z</time></trkpt><trkpt lat="43.7240901" lon="11.2852491"><ele>117.0</ele><time>2026-04-18T14:28:12.767Z</time></trkpt><trkpt lat="43.7240554" lon="11.2853603"><ele>117.0</ele><time>2026-04-18T14:28:13.766Z</time></trkpt><trkpt lat="43.7240202" lon="11.2854534"><ele>117.0</ele><time>2026-04-18T14:28:14.767Z</time></trkpt><trkpt lat="43.7239824" lon="11.2855408"><ele>117.0</ele><time>2026-04-18T14:28:15.763Z</time></trkpt><trkpt lat="43.7239326" lon="11.2856264"><ele>117.0</ele><time>2026-04-18T14:28:16.764Z</time></trkpt><trkpt lat="43.723878" lon="11.2857039"><ele>117.0</ele><time>2026-04-18T14:28:17.762Z</time></trkpt><trkpt lat="43.7238121" lon="11.2857715"><ele>116.99999999999999</ele><time>2026-04-18T14:28:18.767Z</time></trkpt><trkpt lat="43.7237317" lon="11.2858391"><ele>116.99999999999999</ele><time>2026-04-18T14:28:19.777Z</time></trkpt><trkpt lat="43.7236544" lon="11.2859256"><ele>117.0</ele><time>2026-04-18T14:28:20.781Z</time></trkpt><trkpt lat="43.72358" lon="11.2860259"><ele>117.0</ele><time>2026-04-18T14:28:21.854Z</time></trkpt><trkpt lat="43.7235053" lon="11.2861318"><ele>115.19999999999999</ele><time>2026-04-18T14:28:22.853Z</time></trkpt><trkpt lat="43.723428" lon="11.2862374"><ele>113.39999999999999</ele><time>2026-04-18T14:28:23.855Z</time></trkpt><trkpt lat="43.7233514" lon="11.286342"><ele>111.60000000000001</ele><time>2026-04-18T14:28:24.847Z</time></trkpt><trkpt lat="43.7232804" lon="11.2864463"><ele>109.80000000000001</ele><time>2026-04-18T14:28:25.855Z</time></trkpt><trkpt lat="43.7232102" lon="11.2865417"><ele>108.0</ele><time>2026-04-18T14:28:26.851Z</time></trkpt><trkpt lat="43.7231456" lon="11.2866387"><ele>107.80000000000001</ele><time>2026-04-18T14:28:27.857Z</time></trkpt><trkpt lat="43.7230808" lon="11.2867283"><ele>107.60000000000001</ele><time>2026-04-18T14:28:28.854Z</time></trkpt><trkpt lat="43.7230181" lon="11.286816"><ele>107.39999999999999</ele><time>2026-04-18T14:28:29.857Z</time></trkpt><trkpt lat="43.7229542" lon="11.2869043"><ele>107.19999999999999</ele><time>2026-04-18T14:28:30.856Z</time></trkpt><trkpt lat="43.7228907" lon="11.28699"><ele>107.0</ele><time>2026-04-18T14:28:31.853Z</time></trkpt><trkpt lat="43.7228242" lon="11.2870784"><ele>106.99999999999999</ele><time>2026-04-18T14:28:32.856Z</time></trkpt><trkpt lat="43.7227583" lon="11.2871404"><ele>107.0</ele><time>2026-04-18T14:28:33.853Z</time></trkpt><trkpt lat="43.7226854" lon="11.2871911"><ele>107.0</ele><time>2026-04-18T14:28:34.868Z</time></trkpt><trkpt lat="43.7226069" lon="11.2872362"><ele>107.0</ele><time>2026-04-18T14:28:35.856Z</time></trkpt><trkpt lat="43.7225298" lon="11.2872882"><ele>106.99999999999999</ele><time>2026-04-18T14:28:36.836Z</time></trkpt><trkpt lat="43.722451" lon="11.2873409"><ele>107.0</ele><time>2026-04-18T14:28:37.833Z</time></trkpt><trkpt lat="43.722373" lon="11.2873976"><ele>105.8</ele><time>2026-04-18T14:28:38.833Z</time></trkpt><trkpt lat="43.7222987" lon="11.2874657"><ele>104.6</ele><time>2026-04-18T14:28:39.832Z</time></trkpt><trkpt lat="43.7222362" lon="11.2875466"><ele>103.39999999999999</ele><time>2026-04-18T14:28:40.847Z</time></trkpt><trkpt lat="43.7221773" lon="11.2876394"><ele>102.19999999999999</ele><time>2026-04-18T14:28:41.843Z</time></trkpt><trkpt lat="43.7221301" lon="11.287737"><ele>101.0</ele><time>2026-04-18T14:28:42.833Z</time></trkpt><trkpt lat="43.7220738" lon="11.2878582"><ele>100.99999999999999</ele><time>2026-04-18T14:28:43.824Z</time></trkpt><trkpt lat="43.7220286" lon="11.2879522"><ele>101.0</ele><time>2026-04-18T14:28:44.833Z</time></trkpt><trkpt lat="43.7219877" lon="11.2880476"><ele>101.0</ele><time>2026-04-18T14:28:45.829Z</time></trkpt><trkpt lat="43.7219563" lon="11.2881332"><ele>101.0</ele><time>2026-04-18T14:28:46.851Z</time></trkpt><trkpt lat="43.7219246" lon="11.2882162"><ele>100.99999999999999</ele><time>2026-04-18T14:28:48.85Z</time></trkpt><trkpt lat="43.7218883" lon="11.2883172"><ele>101.0</ele><time>2026-04-18T14:28:56.848Z</time></trkpt><trkpt lat="43.7218403" lon="11.2882446"><ele>99.99999999999999</ele><time>2026-04-18T14:29:00.85Z</time></trkpt><trkpt lat="43.7217599" lon="11.2881803"><ele>99.0</ele><time>2026-04-18T14:29:02.853Z</time></trkpt><trkpt lat="43.7216609" lon="11.288112"><ele>98.0</ele><time>2026-04-18T14:29:04.837Z</time></trkpt><trkpt lat="43.7215935" lon="11.2881054"><ele>97.0</ele><time>2026-04-18T14:29:06.846Z</time></trkpt><trkpt lat="43.721514" lon="11.2881279"><ele>96.0</ele><time>2026-04-18T14:29:07.852Z</time></trkpt><trkpt lat="43.7214514" lon="11.2881462"><ele>95.0</ele><time>2026-04-18T14:29:08.752Z</time></trkpt><trkpt lat="43.7213791" lon="11.2882648"><ele>95.0</ele><time>2026-04-18T14:29:10.75Z</time></trkpt><trkpt lat="43.7213341" lon="11.2883584"><ele>95.0</ele><time>2026-04-18T14:29:11.749Z</time></trkpt><trkpt lat="43.7212981" lon="11.2884435"><ele>95.0</ele><time>2026-04-18T14:29:12.76Z</time></trkpt><trkpt lat="43.721229" lon="11.2885529"><ele>95.0</ele><time>2026-04-18T14:29:14.757Z</time></trkpt><trkpt lat="43.7211985" lon="11.2886517"><ele>95.0</ele><time>2026-04-18T14:29:16.769Z</time></trkpt><trkpt lat="43.7212418" lon="11.2887175"><ele>95.0</ele><time>2026-04-18T14:29:19.769Z</time></trkpt><trkpt lat="43.7213007" lon="11.2887694"><ele>95.0</ele><time>2026-04-18T14:29:22.761Z</time></trkpt><trkpt lat="43.7213768" lon="11.2888387"><ele>95.0</ele><time>2026-04-18T14:29:24.762Z</time></trkpt><trkpt lat="43.7214546" lon="11.2888893"><ele>95.0</ele><time>2026-04-18T14:29:25.751Z</time></trkpt><trkpt lat="43.7215349" lon="11.288949"><ele>95.0</ele><time>2026-04-18T14:29:26.751Z</time></trkpt><trkpt lat="43.7216171" lon="11.2889917"><ele>95.0</ele><time>2026-04-18T14:29:27.754Z</time></trkpt><trkpt lat="43.7216969" lon="11.289027"><ele>95.0</ele><time>2026-04-18T14:29:28.76Z</time></trkpt><trkpt lat="43.7217759" lon="11.2890463"><ele>94.66666666666667</ele><time>2026-04-18T14:29:29.767Z</time></trkpt><trkpt lat="43.7218453" lon="11.2890641"><ele>94.33333333333334</ele><time>2026-04-18T14:29:30.762Z</time></trkpt><trkpt lat="43.7219134" lon="11.289081"><ele>94.0</ele><time>2026-04-18T14:29:31.756Z</time></trkpt><trkpt lat="43.7219862" lon="11.2890867"><ele>93.66666666666667</ele><time>2026-04-18T14:29:32.75Z</time></trkpt><trkpt lat="43.7220587" lon="11.2890843"><ele>93.33333333333333</ele><time>2026-04-18T14:29:33.747Z</time></trkpt><trkpt lat="43.7221252" lon="11.2890878"><ele>93.0</ele><time>2026-04-18T14:29:34.741Z</time></trkpt><trkpt lat="43.7222159" lon="11.289191"><ele>93.2</ele><time>2026-04-18T14:29:36.757Z</time></trkpt><trkpt lat="43.7222328" lon="11.28929"><ele>93.4</ele><time>2026-04-18T14:29:37.741Z</time></trkpt><trkpt lat="43.722255" lon="11.2894082"><ele>93.60000000000001</ele><time>2026-04-18T14:29:38.742Z</time></trkpt><trkpt lat="43.7222851" lon="11.2895393"><ele>93.80000000000001</ele><time>2026-04-18T14:29:39.732Z</time></trkpt><trkpt lat="43.7223198" lon="11.2896772"><ele>94.0</ele><time>2026-04-18T14:29:40.743Z</time></trkpt><trkpt lat="43.7223588" lon="11.2898215"><ele>94.0</ele><time>2026-04-18T14:29:41.744Z</time></trkpt><trkpt lat="43.7223966" lon="11.2899451"><ele>94.0</ele><time>2026-04-18T14:29:42.751Z</time></trkpt><trkpt lat="43.7224168" lon="11.290058"><ele>94.0</ele><time>2026-04-18T14:29:43.75Z</time></trkpt><trkpt lat="43.72243" lon="11.2901602"><ele>94.0</ele><time>2026-04-18T14:29:44.753Z</time></trkpt><trkpt lat="43.7224439" lon="11.2902647"><ele>94.0</ele><time>2026-04-18T14:29:45.753Z</time></trkpt><trkpt lat="43.7224687" lon="11.2903642"><ele>94.0</ele><time>2026-04-18T14:29:46.76Z</time></trkpt><trkpt lat="43.7224911" lon="11.2904893"><ele>93.6</ele><time>2026-04-18T14:29:47.758Z</time></trkpt><trkpt lat="43.7225072" lon="11.2906213"><ele>93.2</ele><time>2026-04-18T14:29:48.761Z</time></trkpt><trkpt lat="43.7225183" lon="11.2907609"><ele>92.8</ele><time>2026-04-18T14:29:49.752Z</time></trkpt><trkpt lat="43.7225317" lon="11.2909109"><ele>92.39999999999999</ele><time>2026-04-18T14:29:50.754Z</time></trkpt><trkpt lat="43.7225475" lon="11.2910436"><ele>92.0</ele><time>2026-04-18T14:29:51.753Z</time></trkpt><trkpt lat="43.722575" lon="11.2911549"><ele>92.0</ele><time>2026-04-18T14:29:52.748Z</time></trkpt><trkpt lat="43.7226107" lon="11.2912638"><ele>92.0</ele><time>2026-04-18T14:29:53.75Z</time></trkpt><trkpt lat="43.7226607" lon="11.2913595"><ele>92.0</ele><time>2026-04-18T14:29:54.753Z</time></trkpt><trkpt lat="43.7227023" lon="11.2914542"><ele>92.0</ele><time>2026-04-18T14:29:55.745Z</time></trkpt><trkpt lat="43.7227577" lon="11.291544"><ele>92.0</ele><time>2026-04-18T14:29:56.753Z</time></trkpt><trkpt lat="43.7228345" lon="11.2916337"><ele>92.0</ele><time>2026-04-18T14:29:57.755Z</time></trkpt><trkpt lat="43.7229058" lon="11.2917354"><ele>91.83333333333334</ele><time>2026-04-18T14:29:58.752Z</time></trkpt><trkpt lat="43.722972" lon="11.2918365"><ele>91.66666666666667</ele><time>2026-04-18T14:29:59.756Z</time></trkpt><trkpt lat="43.7230242" lon="11.291949"><ele>91.5</ele><time>2026-04-18T14:30:00.751Z</time></trkpt><trkpt lat="43.7230639" lon="11.2920545"><ele>91.33333333333333</ele><time>2026-04-18T14:30:01.74Z</time></trkpt><trkpt lat="43.7231103" lon="11.2921219"><ele>91.16666666666666</ele><time>2026-04-18T14:30:02.743Z</time></trkpt><trkpt lat="43.7232008" lon="11.2921799"><ele>91.0</ele><time>2026-04-18T14:30:04.754Z</time></trkpt><trkpt lat="43.7232662" lon="11.292151"><ele>91.0</ele><time>2026-04-18T14:30:05.748Z</time></trkpt><trkpt lat="43.7233534" lon="11.292119"><ele>91.0</ele><time>2026-04-18T14:30:06.751Z</time></trkpt><trkpt lat="43.7234549" lon="11.2920938"><ele>91.0</ele><time>2026-04-18T14:30:07.762Z</time></trkpt><trkpt lat="43.7235597" lon="11.2920902"><ele>91.0</ele><time>2026-04-18T14:30:08.748Z</time></trkpt><trkpt lat="43.7236663" lon="11.2921066"><ele>91.0</ele><time>2026-04-18T14:30:09.751Z</time></trkpt><trkpt lat="43.7237788" lon="11.2921177"><ele>91.6</ele><time>2026-04-18T14:30:10.753Z</time></trkpt><trkpt lat="43.7238858" lon="11.2921558"><ele>92.19999999999999</ele><time>2026-04-18T14:30:11.751Z</time></trkpt><trkpt lat="43.7239927" lon="11.2921831"><ele>92.80000000000001</ele><time>2026-04-18T14:30:12.753Z</time></trkpt><trkpt lat="43.7240976" lon="11.2921991"><ele>93.4</ele><time>2026-04-18T14:30:13.753Z</time></trkpt><trkpt lat="43.7242015" lon="11.2921891"><ele>94.0</ele><time>2026-04-18T14:30:14.747Z</time></trkpt><trkpt lat="43.7243098" lon="11.2921644"><ele>93.80000000000001</ele><time>2026-04-18T14:30:15.754Z</time></trkpt><trkpt lat="43.7244208" lon="11.2921279"><ele>93.60000000000001</ele><time>2026-04-18T14:30:16.749Z</time></trkpt><trkpt lat="43.72453" lon="11.2920886"><ele>93.4</ele><time>2026-04-18T14:30:17.748Z</time></trkpt><trkpt lat="43.7246388" lon="11.2920507"><ele>93.2</ele><time>2026-04-18T14:30:18.747Z</time></trkpt><trkpt lat="43.7247418" lon="11.2920133"><ele>93.0</ele><time>2026-04-18T14:30:19.742Z</time></trkpt><trkpt lat="43.7248405" lon="11.2920023"><ele>93.0</ele><time>2026-04-18T14:30:20.751Z</time></trkpt><trkpt lat="43.7249425" lon="11.2920082"><ele>93.0</ele><time>2026-04-18T14:30:21.748Z</time></trkpt><trkpt lat="43.7250476" lon="11.2920123"><ele>93.0</ele><time>2026-04-18T14:30:22.745Z</time></trkpt><trkpt lat="43.7251579" lon="11.2920401"><ele>93.0</ele><time>2026-04-18T14:30:23.734Z</time></trkpt><trkpt lat="43.7252561" lon="11.2920763"><ele>93.0</ele><time>2026-04-18T14:30:24.744Z</time></trkpt><trkpt lat="43.7253498" lon="11.2921203"><ele>92.5</ele><time>2026-04-18T14:30:25.744Z</time></trkpt><trkpt lat="43.7254351" lon="11.2921816"><ele>92.0</ele><time>2026-04-18T14:30:26.741Z</time></trkpt><trkpt lat="43.7255117" lon="11.2922502"><ele>91.5</ele><time>2026-04-18T14:30:27.748Z</time></trkpt><trkpt lat="43.7255754" lon="11.2923207"><ele>91.0</ele><time>2026-04-18T14:30:28.746Z</time></trkpt><trkpt lat="43.7256251" lon="11.2924002"><ele>90.5</ele><time>2026-04-18T14:30:29.742Z</time></trkpt><trkpt lat="43.7256682" lon="11.2924852"><ele>90.0</ele><time>2026-04-18T14:30:30.749Z</time></trkpt><trkpt lat="43.72571" lon="11.292561"><ele>90.0</ele><time>2026-04-18T14:30:31.747Z</time></trkpt><trkpt lat="43.7257452" lon="11.2926802"><ele>90.0</ele><time>2026-04-18T14:30:33.744Z</time></trkpt><trkpt lat="43.725793" lon="11.2927524"><ele>90.0</ele><time>2026-04-18T14:30:38.782Z</time></trkpt><trkpt lat="43.725877" lon="11.2927963"><ele>90.0</ele><time>2026-04-18T14:30:40.757Z</time></trkpt><trkpt lat="43.7260019" lon="11.2928611"><ele>90.0</ele><time>2026-04-18T14:30:42.743Z</time></trkpt><trkpt lat="43.726068" lon="11.2929134"><ele>89.8</ele><time>2026-04-18T14:30:43.741Z</time></trkpt><trkpt lat="43.7261272" lon="11.2929601"><ele>89.6</ele><time>2026-04-18T14:30:44.741Z</time></trkpt><trkpt lat="43.7261938" lon="11.2929882"><ele>89.4</ele><time>2026-04-18T14:30:45.737Z</time></trkpt><trkpt lat="43.7262574" lon="11.2930223"><ele>89.2</ele><time>2026-04-18T14:30:46.742Z</time></trkpt><trkpt lat="43.7263805" lon="11.2930773"><ele>89.0</ele><time>2026-04-18T14:30:48.743Z</time></trkpt><trkpt lat="43.7265066" lon="11.2931375"><ele>89.0</ele><time>2026-04-18T14:30:50.75Z</time></trkpt><trkpt lat="43.7265795" lon="11.293188"><ele>89.0</ele><time>2026-04-18T14:30:51.747Z</time></trkpt><trkpt lat="43.726655" lon="11.2932355"><ele>89.0</ele><time>2026-04-18T14:30:52.751Z</time></trkpt><trkpt lat="43.7267311" lon="11.2932918"><ele>89.0</ele><time>2026-04-18T14:30:53.747Z</time></trkpt><trkpt lat="43.7268034" lon="11.2933624"><ele>89.0</ele><time>2026-04-18T14:30:54.747Z</time></trkpt><trkpt lat="43.7268656" lon="11.2934309"><ele>89.0</ele><time>2026-04-18T14:30:55.748Z</time></trkpt><trkpt lat="43.7269156" lon="11.293498"><ele>89.0</ele><time>2026-04-18T14:30:56.749Z</time></trkpt><trkpt lat="43.7269616" lon="11.2935576"><ele>89.0</ele><time>2026-04-18T14:30:57.771Z</time></trkpt><trkpt lat="43.7270306" lon="11.2936674"><ele>89.0</ele><time>2026-04-18T14:30:59.755Z</time></trkpt><trkpt lat="43.7271164" lon="11.2937855"><ele>89.0</ele><time>2026-04-18T14:31:01.757Z</time></trkpt><trkpt lat="43.7271676" lon="11.2938647"><ele>89.0</ele><time>2026-04-18T14:31:02.756Z</time></trkpt><trkpt lat="43.727223" lon="11.2939632"><ele>89.0</ele><time>2026-04-18T14:31:03.756Z</time></trkpt><trkpt lat="43.7272783" lon="11.2940564"><ele>89.0</ele><time>2026-04-18T14:31:04.755Z</time></trkpt><trkpt lat="43.7273324" lon="11.2941537"><ele>89.0</ele><time>2026-04-18T14:31:05.761Z</time></trkpt><trkpt lat="43.7273955" lon="11.2942527"><ele>89.0</ele><time>2026-04-18T14:31:06.763Z</time></trkpt><trkpt lat="43.7274555" lon="11.2943446"><ele>89.0</ele><time>2026-04-18T14:31:07.836Z</time></trkpt><trkpt lat="43.7275271" lon="11.294443"><ele>89.0</ele><time>2026-04-18T14:31:08.861Z</time></trkpt><trkpt lat="43.7276072" lon="11.2945654"><ele>89.0</ele><time>2026-04-18T14:31:09.831Z</time></trkpt><trkpt lat="43.7276934" lon="11.2947155"><ele>89.0</ele><time>2026-04-18T14:31:10.832Z</time></trkpt><trkpt lat="43.727799" lon="11.294882"><ele>89.0</ele><time>2026-04-18T14:31:11.842Z</time></trkpt><trkpt lat="43.7279159" lon="11.2950481"><ele>88.66666666666667</ele><time>2026-04-18T14:31:12.833Z</time></trkpt><trkpt lat="43.7280415" lon="11.2951938"><ele>88.33333333333333</ele><time>2026-04-18T14:31:13.838Z</time></trkpt><trkpt lat="43.7282092" lon="11.2953204"><ele>88.0</ele><time>2026-04-18T14:31:14.848Z</time></trkpt><trkpt lat="43.7283101" lon="11.2953978"><ele>88.0</ele><time>2026-04-18T14:31:15.82Z</time></trkpt><trkpt lat="43.7284265" lon="11.2954528"><ele>88.0</ele><time>2026-04-18T14:31:16.827Z</time></trkpt><trkpt lat="43.728549" lon="11.2955079"><ele>88.0</ele><time>2026-04-18T14:31:17.824Z</time></trkpt><trkpt lat="43.7287012" lon="11.2955392"><ele>88.0</ele><time>2026-04-18T14:31:18.819Z</time></trkpt><trkpt lat="43.7288571" lon="11.2955544"><ele>87.75</ele><time>2026-04-18T14:31:19.845Z</time></trkpt><trkpt lat="43.7289921" lon="11.2955938"><ele>87.5</ele><time>2026-04-18T14:31:20.841Z</time></trkpt><trkpt lat="43.7291387" lon="11.2956296"><ele>87.25</ele><time>2026-04-18T14:31:21.861Z</time></trkpt><trkpt lat="43.72929" lon="11.2956647"><ele>87.0</ele><time>2026-04-18T14:31:22.848Z</time></trkpt><trkpt lat="43.7294526" lon="11.2956958"><ele>88.0</ele><time>2026-04-18T14:31:23.856Z</time></trkpt><trkpt lat="43.7296341" lon="11.2957425"><ele>89.0</ele><time>2026-04-18T14:31:24.836Z</time></trkpt><trkpt lat="43.7298284" lon="11.2958039"><ele>90.0</ele><time>2026-04-18T14:31:25.85Z</time></trkpt><trkpt lat="43.7300301" lon="11.2958727"><ele>89.0</ele><time>2026-04-18T14:31:26.846Z</time></trkpt><trkpt lat="43.7302464" lon="11.2959428"><ele>88.0</ele><time>2026-04-18T14:31:27.847Z</time></trkpt><trkpt lat="43.7304741" lon="11.2960088"><ele>88.0</ele><time>2026-04-18T14:31:28.844Z</time></trkpt><trkpt lat="43.7307215" lon="11.2960748"><ele>88.0</ele><time>2026-04-18T14:31:29.849Z</time></trkpt><trkpt lat="43.7309539" lon="11.2961364"><ele>87.33333333333333</ele><time>2026-04-18T14:31:30.827Z</time></trkpt><trkpt lat="43.7311591" lon="11.2961977"><ele>86.66666666666667</ele><time>2026-04-18T14:31:31.825Z</time></trkpt><trkpt lat="43.7313426" lon="11.2962588"><ele>86.0</ele><time>2026-04-18T14:31:32.817Z</time></trkpt><trkpt lat="43.7314993" lon="11.2963081"><ele>86.0</ele><time>2026-04-18T14:31:33.824Z</time></trkpt><trkpt lat="43.7316561" lon="11.2963516"><ele>86.0</ele><time>2026-04-18T14:31:34.835Z</time></trkpt><trkpt lat="43.7318284" lon="11.2963951"><ele>86.0</ele><time>2026-04-18T14:31:35.84Z</time></trkpt><trkpt lat="43.7320437" lon="11.2964548"><ele>86.5</ele><time>2026-04-18T14:31:36.835Z</time></trkpt><trkpt lat="43.7322796" lon="11.2965192"><ele>87.0</ele><time>2026-04-18T14:31:37.837Z</time></trkpt><trkpt lat="43.7325259" lon="11.2965996"><ele>86.5</ele><time>2026-04-18T14:31:38.846Z</time></trkpt><trkpt lat="43.7327566" lon="11.296674"><ele>86.0</ele><time>2026-04-18T14:31:39.857Z</time></trkpt><trkpt lat="43.7329714" lon="11.2967426"><ele>86.0</ele><time>2026-04-18T14:31:40.846Z</time></trkpt><trkpt lat="43.7331617" lon="11.2967992"><ele>86.0</ele><time>2026-04-18T14:31:41.858Z</time></trkpt><trkpt lat="43.7333245" lon="11.2968488"><ele>86.0</ele><time>2026-04-18T14:31:42.842Z</time></trkpt><trkpt lat="43.7334711" lon="11.2968858"><ele>85.8</ele><time>2026-04-18T14:31:43.84Z</time></trkpt><trkpt lat="43.7336005" lon="11.2969086"><ele>85.6</ele><time>2026-04-18T14:31:44.839Z</time></trkpt><trkpt lat="43.7337185" lon="11.2969251"><ele>85.4</ele><time>2026-04-18T14:31:45.839Z</time></trkpt><trkpt lat="43.7338163" lon="11.2969319"><ele>85.2</ele><time>2026-04-18T14:31:46.853Z</time></trkpt><trkpt lat="43.7339051" lon="11.2969259"><ele>85.0</ele><time>2026-04-18T14:31:47.842Z</time></trkpt><trkpt lat="43.7339741" lon="11.2969295"><ele>85.0</ele><time>2026-04-18T14:31:48.853Z</time></trkpt><trkpt lat="43.7340395" lon="11.2969351"><ele>85.0</ele><time>2026-04-18T14:31:49.849Z</time></trkpt><trkpt lat="43.7341025" lon="11.2969521"><ele>85.0</ele><time>2026-04-18T14:31:50.862Z</time></trkpt><trkpt lat="43.7342179" lon="11.2969687"><ele>85.0</ele><time>2026-04-18T14:31:52.857Z</time></trkpt><trkpt lat="43.7343066" lon="11.2970039"><ele>85.0</ele><time>2026-04-18T14:31:54.858Z</time></trkpt><trkpt lat="43.734401" lon="11.2970637"><ele>85.0</ele><time>2026-04-18T14:31:56.837Z</time></trkpt><trkpt lat="43.7344421" lon="11.2971342"><ele>85.14285714285715</ele><time>2026-04-18T14:31:57.836Z</time></trkpt><trkpt lat="43.7344655" lon="11.2972272"><ele>85.28571428571428</ele><time>2026-04-18T14:31:58.832Z</time></trkpt><trkpt lat="43.7344632" lon="11.2973218"><ele>85.42857142857143</ele><time>2026-04-18T14:31:59.832Z</time></trkpt><trkpt lat="43.7344356" lon="11.2974044"><ele>85.57142857142858</ele><time>2026-04-18T14:32:00.845Z</time></trkpt><trkpt lat="43.7343913" lon="11.2974743"><ele>85.71428571428572</ele><time>2026-04-18T14:32:01.848Z</time></trkpt><trkpt lat="43.7343399" lon="11.2975361"><ele>85.85714285714286</ele><time>2026-04-18T14:32:02.843Z</time></trkpt><trkpt lat="43.7342839" lon="11.2976021"><ele>86.0</ele><time>2026-04-18T14:32:03.841Z</time></trkpt><trkpt lat="43.7342176" lon="11.2976591"><ele>86.00000000000001</ele><time>2026-04-18T14:32:04.844Z</time></trkpt><trkpt lat="43.7341549" lon="11.2977101"><ele>86.0</ele><time>2026-04-18T14:32:05.841Z</time></trkpt><trkpt lat="43.7340912" lon="11.2977573"><ele>86.0</ele><time>2026-04-18T14:32:06.861Z</time></trkpt><trkpt lat="43.7340212" lon="11.2977843"><ele>86.0</ele><time>2026-04-18T14:32:07.85Z</time></trkpt><trkpt lat="43.733952" lon="11.297795"><ele>86.0</ele><time>2026-04-18T14:32:08.873Z</time></trkpt><trkpt lat="43.7338863" lon="11.2978039"><ele>86.00000000000001</ele><time>2026-04-18T14:32:09.839Z</time></trkpt><trkpt lat="43.733822" lon="11.2978243"><ele>86.0</ele><time>2026-04-18T14:32:10.851Z</time></trkpt><trkpt lat="43.7337288" lon="11.2979173"><ele>86.0</ele><time>2026-04-18T14:32:12.834Z</time></trkpt><trkpt lat="43.7337103" lon="11.2980607"><ele>86.0</ele><time>2026-04-18T14:32:14.86Z</time></trkpt><trkpt lat="43.7337876" lon="11.2981637"><ele>86.0</ele><time>2026-04-18T14:32:16.847Z</time></trkpt><trkpt lat="43.7338541" lon="11.2981705"><ele>86.0</ele><time>2026-04-18T14:32:17.838Z</time></trkpt><trkpt lat="43.7339206" lon="11.2981389"><ele>86.0</ele><time>2026-04-18T14:32:18.845Z</time></trkpt><trkpt lat="43.7339774" lon="11.2980772"><ele>86.0</ele><time>2026-04-18T14:32:19.847Z</time></trkpt><trkpt lat="43.7340264" lon="11.298003"><ele>86.00000000000001</ele><time>2026-04-18T14:32:20.846Z</time></trkpt><trkpt lat="43.7340732" lon="11.297922"><ele>86.0</ele><time>2026-04-18T14:32:21.839Z</time></trkpt><trkpt lat="43.7341238" lon="11.2978407"><ele>86.0</ele><time>2026-04-18T14:32:22.843Z</time></trkpt><trkpt lat="43.7341782" lon="11.2977673"><ele>86.0</ele><time>2026-04-18T14:32:23.839Z</time></trkpt><trkpt lat="43.7342356" lon="11.297703"><ele>86.0</ele><time>2026-04-18T14:32:24.841Z</time></trkpt><trkpt lat="43.7342976" lon="11.2976466"><ele>86.00000000000001</ele><time>2026-04-18T14:32:25.863Z</time></trkpt><trkpt lat="43.7343539" lon="11.297593"><ele>86.0</ele><time>2026-04-18T14:32:26.86Z</time></trkpt><trkpt lat="43.7344583" lon="11.2975028"><ele>87.0</ele><time>2026-04-18T14:32:28.86Z</time></trkpt><trkpt lat="43.7345214" lon="11.297468"><ele>88.0</ele><time>2026-04-18T14:32:29.852Z</time></trkpt><trkpt lat="43.7345977" lon="11.2974452"><ele>89.0</ele><time>2026-04-18T14:32:30.854Z</time></trkpt><trkpt lat="43.7346818" lon="11.29743"><ele>90.0</ele><time>2026-04-18T14:32:31.84Z</time></trkpt><trkpt lat="43.7347598" lon="11.2973889"><ele>91.0</ele><time>2026-04-18T14:32:32.842Z</time></trkpt><trkpt lat="43.7348217" lon="11.2973272"><ele>92.0</ele><time>2026-04-18T14:32:33.837Z</time></trkpt><trkpt lat="43.7348678" lon="11.2972562"><ele>91.16666666666667</ele><time>2026-04-18T14:32:34.842Z</time></trkpt><trkpt lat="43.734904" lon="11.2971824"><ele>90.33333333333334</ele><time>2026-04-18T14:32:35.863Z</time></trkpt><trkpt lat="43.7349925" lon="11.2970759"><ele>89.5</ele><time>2026-04-18T14:32:37.775Z</time></trkpt><trkpt lat="43.7350459" lon="11.2970252"><ele>88.66666666666667</ele><time>2026-04-18T14:32:38.784Z</time></trkpt><trkpt lat="43.7351053" lon="11.2969815"><ele>87.83333333333333</ele><time>2026-04-18T14:32:39.775Z</time></trkpt><trkpt lat="43.735166" lon="11.2969324"><ele>87.0</ele><time>2026-04-18T14:32:40.777Z</time></trkpt><trkpt lat="43.735232" lon="11.2968889"><ele>87.0</ele><time>2026-04-18T14:32:41.797Z</time></trkpt><trkpt lat="43.7353289" lon="11.2968119"><ele>87.0</ele><time>2026-04-18T14:32:43.777Z</time></trkpt><trkpt lat="43.735408" lon="11.2967582"><ele>87.0</ele><time>2026-04-18T14:32:45.775Z</time></trkpt><trkpt lat="43.7354731" lon="11.2966939"><ele>87.0</ele><time>2026-04-18T14:32:47.785Z</time></trkpt><trkpt lat="43.7356018" lon="11.2966211"><ele>87.0</ele><time>2026-04-18T14:32:49.767Z</time></trkpt><trkpt lat="43.7356913" lon="11.2965973"><ele>87.0</ele><time>2026-04-18T14:32:50.772Z</time></trkpt><trkpt lat="43.7357936" lon="11.2965881"><ele>87.0</ele><time>2026-04-18T14:32:51.773Z</time></trkpt><trkpt lat="43.7359068" lon="11.2965962"><ele>87.0</ele><time>2026-04-18T14:32:52.774Z</time></trkpt><trkpt lat="43.7360196" lon="11.2966205"><ele>87.0</ele><time>2026-04-18T14:32:53.774Z</time></trkpt><trkpt lat="43.7361331" lon="11.2966418"><ele>87.0</ele><time>2026-04-18T14:32:54.764Z</time></trkpt><trkpt lat="43.7362352" lon="11.2966675"><ele>86.8</ele><time>2026-04-18T14:32:55.745Z</time></trkpt><trkpt lat="43.7363327" lon="11.2967021"><ele>86.6</ele><time>2026-04-18T14:32:56.746Z</time></trkpt><trkpt lat="43.7364337" lon="11.2967622"><ele>86.39999999999999</ele><time>2026-04-18T14:32:57.739Z</time></trkpt><trkpt lat="43.736512" lon="11.2968026"><ele>86.19999999999999</ele><time>2026-04-18T14:32:58.749Z</time></trkpt><trkpt lat="43.7366158" lon="11.2968497"><ele>86.0</ele><time>2026-04-18T14:32:59.748Z</time></trkpt><trkpt lat="43.7366768" lon="11.2968891"><ele>86.0</ele><time>2026-04-18T14:33:00.745Z</time></trkpt><trkpt lat="43.7367424" lon="11.2969379"><ele>86.0</ele><time>2026-04-18T14:33:01.755Z</time></trkpt><trkpt lat="43.7368207" lon="11.296994"><ele>86.0</ele><time>2026-04-18T14:33:02.749Z</time></trkpt><trkpt lat="43.7369104" lon="11.2970599"><ele>86.0</ele><time>2026-04-18T14:33:03.753Z</time></trkpt><trkpt lat="43.7370053" lon="11.2971233"><ele>86.0</ele><time>2026-04-18T14:33:04.757Z</time></trkpt><trkpt lat="43.7370862" lon="11.2971744"><ele>86.0</ele><time>2026-04-18T14:33:05.753Z</time></trkpt><trkpt lat="43.737164" lon="11.2972198"><ele>86.0</ele><time>2026-04-18T14:33:06.754Z</time></trkpt><trkpt lat="43.7372277" lon="11.29727"><ele>86.0</ele><time>2026-04-18T14:33:07.753Z</time></trkpt><trkpt lat="43.7373231" lon="11.2973125"><ele>86.0</ele><time>2026-04-18T14:33:09.763Z</time></trkpt><trkpt lat="43.7373912" lon="11.2973454"><ele>86.0</ele><time>2026-04-18T14:33:11.769Z</time></trkpt><trkpt lat="43.7374677" lon="11.2973818"><ele>86.0</ele><time>2026-04-18T14:33:13.761Z</time></trkpt><trkpt lat="43.7375473" lon="11.297426"><ele>86.0</ele><time>2026-04-18T14:33:16.756Z</time></trkpt><trkpt lat="43.7376173" lon="11.2974602"><ele>86.0</ele><time>2026-04-18T14:33:18.763Z</time></trkpt><trkpt lat="43.7377209" lon="11.2974815"><ele>86.0</ele><time>2026-04-18T14:33:20.749Z</time></trkpt><trkpt lat="43.7377932" lon="11.2975001"><ele>86.0</ele><time>2026-04-18T14:33:21.752Z</time></trkpt><trkpt lat="43.7378693" lon="11.2975361"><ele>86.0</ele><time>2026-04-18T14:33:22.761Z</time></trkpt><trkpt lat="43.7379548" lon="11.297584"><ele>86.0</ele><time>2026-04-18T14:33:23.758Z</time></trkpt><trkpt lat="43.7380412" lon="11.2976366"><ele>85.66666666666667</ele><time>2026-04-18T14:33:24.763Z</time></trkpt><trkpt lat="43.7381234" lon="11.2976868"><ele>85.33333333333334</ele><time>2026-04-18T14:33:25.763Z</time></trkpt><trkpt lat="43.7381927" lon="11.2977231"><ele>85.0</ele><time>2026-04-18T14:33:26.764Z</time></trkpt><trkpt lat="43.738254" lon="11.2977668"><ele>84.66666666666667</ele><time>2026-04-18T14:33:27.765Z</time></trkpt><trkpt lat="43.7383218" lon="11.2978159"><ele>84.33333333333333</ele><time>2026-04-18T14:33:28.767Z</time></trkpt><trkpt lat="43.738381" lon="11.2978533"><ele>84.0</ele><time>2026-04-18T14:33:29.762Z</time></trkpt><trkpt lat="43.7384485" lon="11.2979218"><ele>84.0</ele><time>2026-04-18T14:33:31.756Z</time></trkpt><trkpt lat="43.7385452" lon="11.2979183"><ele>84.0</ele><time>2026-04-18T14:34:01.77Z</time></trkpt><trkpt lat="43.738673" lon="11.2979444"><ele>84.0</ele><time>2026-04-18T14:34:03.758Z</time></trkpt><trkpt lat="43.738762" lon="11.2979436"><ele>84.0</ele><time>2026-04-18T14:34:04.758Z</time></trkpt><trkpt lat="43.7388388" lon="11.2979449"><ele>84.0</ele><time>2026-04-18T14:34:05.756Z</time></trkpt><trkpt lat="43.7389304" lon="11.2979452"><ele>84.0</ele><time>2026-04-18T14:34:06.768Z</time></trkpt><trkpt lat="43.7390226" lon="11.2979644"><ele>84.0</ele><time>2026-04-18T14:34:07.769Z</time></trkpt><trkpt lat="43.7391138" lon="11.2979796"><ele>84.0</ele><time>2026-04-18T14:34:08.766Z</time></trkpt><trkpt lat="43.7391963" lon="11.297974"><ele>84.0</ele><time>2026-04-18T14:34:09.771Z</time></trkpt><trkpt lat="43.7392859" lon="11.297959"><ele>84.0</ele><time>2026-04-18T14:34:10.767Z</time></trkpt><trkpt lat="43.7393659" lon="11.297941"><ele>84.0</ele><time>2026-04-18T14:34:11.76Z</time></trkpt><trkpt lat="43.7394405" lon="11.297932"><ele>83.6</ele><time>2026-04-18T14:34:12.767Z</time></trkpt><trkpt lat="43.7395033" lon="11.2979237"><ele>83.2</ele><time>2026-04-18T14:34:13.765Z</time></trkpt><trkpt lat="43.739616" lon="11.2978877"><ele>82.8</ele><time>2026-04-18T14:34:15.762Z</time></trkpt><trkpt lat="43.7397158" lon="11.2978518"><ele>82.39999999999999</ele><time>2026-04-18T14:34:17.767Z</time></trkpt><trkpt lat="43.7398312" lon="11.2978072"><ele>82.0</ele><time>2026-04-18T14:34:19.762Z</time></trkpt><trkpt lat="43.7399419" lon="11.297799"><ele>82.0</ele><time>2026-04-18T14:34:21.753Z</time></trkpt><trkpt lat="43.7400528" lon="11.2977691"><ele>82.0</ele><time>2026-04-18T14:34:23.756Z</time></trkpt><trkpt lat="43.7401388" lon="11.2977249"><ele>82.0</ele><time>2026-04-18T14:34:25.757Z</time></trkpt><trkpt lat="43.7401643" lon="11.2976262"><ele>82.0</ele><time>2026-04-18T14:34:27.781Z</time></trkpt><trkpt lat="43.7400964" lon="11.2976034"><ele>82.0</ele><time>2026-04-18T14:34:47.809Z</time></trkpt><trkpt lat="43.7400139" lon="11.2975402"><ele>82.0</ele><time>2026-04-18T14:34:50.8Z</time></trkpt><trkpt lat="43.7399757" lon="11.2974665"><ele>82.0</ele><time>2026-04-18T14:34:51.79Z</time></trkpt><trkpt lat="43.7399554" lon="11.2973809"><ele>82.0</ele><time>2026-04-18T14:34:52.775Z</time></trkpt><trkpt lat="43.739924" lon="11.2972792"><ele>82.0</ele><time>2026-04-18T14:34:53.771Z</time></trkpt><trkpt lat="43.7398848" lon="11.2971724"><ele>82.0</ele><time>2026-04-18T14:34:54.772Z</time></trkpt><trkpt lat="43.7398495" lon="11.297048"><ele>82.0</ele><time>2026-04-18T14:34:55.781Z</time></trkpt><trkpt lat="43.7398233" lon="11.2969294"><ele>82.0</ele><time>2026-04-18T14:34:56.775Z</time></trkpt><trkpt lat="43.7398052" lon="11.2968225"><ele>82.0</ele><time>2026-04-18T14:34:57.787Z</time></trkpt><trkpt lat="43.7397905" lon="11.2967373"><ele>82.0</ele><time>2026-04-18T14:34:58.769Z</time></trkpt><trkpt lat="43.7397586" lon="11.296659"><ele>82.0</ele><time>2026-04-18T14:35:00.775Z</time></trkpt><trkpt lat="43.7396697" lon="11.2966896"><ele>82.0</ele><time>2026-04-18T14:35:12.775Z</time></trkpt><trkpt lat="43.7395946" lon="11.2968025"><ele>82.0</ele><time>2026-04-18T14:35:14.772Z</time></trkpt><trkpt lat="43.7395388" lon="11.296894"><ele>82.0</ele><time>2026-04-18T14:35:15.768Z</time></trkpt><trkpt lat="43.7394881" lon="11.2970097"><ele>82.0</ele><time>2026-04-18T14:35:16.806Z</time></trkpt><trkpt lat="43.7394414" lon="11.2971293"><ele>82.0</ele><time>2026-04-18T14:35:17.77Z</time></trkpt><trkpt lat="43.7393943" lon="11.2972409"><ele>82.0</ele><time>2026-04-18T14:35:18.767Z</time></trkpt><trkpt lat="43.7393421" lon="11.2973339"><ele>82.0</ele><time>2026-04-18T14:35:19.769Z</time></trkpt><trkpt lat="43.7392947" lon="11.297418"><ele>82.0</ele><time>2026-04-18T14:35:20.766Z</time></trkpt><trkpt lat="43.73925" lon="11.2975094"><ele>82.0</ele><time>2026-04-18T14:35:21.769Z</time></trkpt><trkpt lat="43.7392053" lon="11.297605"><ele>82.39999999999999</ele><time>2026-04-18T14:35:22.752Z</time></trkpt><trkpt lat="43.7391299" lon="11.297698"><ele>82.8</ele><time>2026-04-18T14:35:23.766Z</time></trkpt><trkpt lat="43.7390463" lon="11.2977873"><ele>83.2</ele><time>2026-04-18T14:35:24.762Z</time></trkpt><trkpt lat="43.7389453" lon="11.2978602"><ele>83.6</ele><time>2026-04-18T14:35:25.761Z</time></trkpt><trkpt lat="43.7388337" lon="11.2979106"><ele>84.0</ele><time>2026-04-18T14:35:26.76Z</time></trkpt><trkpt lat="43.7387176" lon="11.2979455"><ele>84.0</ele><time>2026-04-18T14:35:27.762Z</time></trkpt><trkpt lat="43.7386158" lon="11.2979504"><ele>84.0</ele><time>2026-04-18T14:35:28.764Z</time></trkpt><trkpt lat="43.7385309" lon="11.2979484"><ele>84.0</ele><time>2026-04-18T14:35:29.758Z</time></trkpt><trkpt lat="43.7384572" lon="11.2979415"><ele>84.0</ele><time>2026-04-18T14:35:30.751Z</time></trkpt><trkpt lat="43.7383664" lon="11.2979928"><ele>84.0</ele><time>2026-04-18T14:35:32.751Z</time></trkpt><trkpt lat="43.738305" lon="11.2981048"><ele>84.0</ele><time>2026-04-18T14:35:34.757Z</time></trkpt><trkpt lat="43.7382859" lon="11.2981947"><ele>84.0</ele><time>2026-04-18T14:35:35.75Z</time></trkpt><trkpt lat="43.7382568" lon="11.2982821"><ele>84.0</ele><time>2026-04-18T14:35:36.752Z</time></trkpt><trkpt lat="43.7382331" lon="11.2983786"><ele>84.0</ele><time>2026-04-18T14:35:37.759Z</time></trkpt><trkpt lat="43.7382282" lon="11.2984746"><ele>84.0</ele><time>2026-04-18T14:35:38.753Z</time></trkpt><trkpt lat="43.7382112" lon="11.298603"><ele>84.0</ele><time>2026-04-18T14:35:40.763Z</time></trkpt><trkpt lat="43.7381708" lon="11.2986948"><ele>84.0</ele><time>2026-04-18T14:35:42.759Z</time></trkpt><trkpt lat="43.7381258" lon="11.2987946"><ele>84.0</ele><time>2026-04-18T14:35:44.759Z</time></trkpt><trkpt lat="43.7380785" lon="11.2988702"><ele>84.0</ele><time>2026-04-18T14:35:58.788Z</time></trkpt><trkpt lat="43.7380407" lon="11.298949"><ele>84.0</ele><time>2026-04-18T14:36:02.779Z</time></trkpt><trkpt lat="43.7380898" lon="11.2988899"><ele>84.0</ele><time>2026-04-18T14:37:28.764Z</time></trkpt><trkpt lat="43.7381402" lon="11.2987931"><ele>84.0</ele><time>2026-04-18T14:37:30.761Z</time></trkpt><trkpt lat="43.7381741" lon="11.2987159"><ele>84.0</ele><time>2026-04-18T14:37:31.759Z</time></trkpt><trkpt lat="43.7382032" lon="11.2986227"><ele>84.0</ele><time>2026-04-18T14:37:32.752Z</time></trkpt><trkpt lat="43.7382291" lon="11.298521"><ele>84.0</ele><time>2026-04-18T14:37:33.759Z</time></trkpt><trkpt lat="43.7382659" lon="11.298431"><ele>84.0</ele><time>2026-04-18T14:37:34.752Z</time></trkpt><trkpt lat="43.7382965" lon="11.2983403"><ele>84.0</ele><time>2026-04-18T14:37:35.754Z</time></trkpt><trkpt lat="43.73833" lon="11.2982535"><ele>84.0</ele><time>2026-04-18T14:37:36.759Z</time></trkpt><trkpt lat="43.7383618" lon="11.2981647"><ele>84.0</ele><time>2026-04-18T14:37:37.754Z</time></trkpt><trkpt lat="43.738392" lon="11.2980762"><ele>84.0</ele><time>2026-04-18T14:37:38.756Z</time></trkpt><trkpt lat="43.7384426" lon="11.2979491"><ele>84.0</ele><time>2026-04-18T14:37:40.749Z</time></trkpt><trkpt lat="43.7385755" lon="11.2979122"><ele>84.0</ele><time>2026-04-18T14:37:58.764Z</time></trkpt><trkpt lat="43.7386391" lon="11.2979394"><ele>84.0</ele><time>2026-04-18T14:37:59.761Z</time></trkpt><trkpt lat="43.7387217" lon="11.2979901"><ele>84.0</ele><time>2026-04-18T14:38:00.759Z</time></trkpt><trkpt lat="43.7388111" lon="11.2980017"><ele>84.0</ele><time>2026-04-18T14:38:01.747Z</time></trkpt><trkpt lat="43.738903" lon="11.2979955"><ele>84.0</ele><time>2026-04-18T14:38:02.745Z</time></trkpt><trkpt lat="43.7389842" lon="11.2980028"><ele>84.0</ele><time>2026-04-18T14:38:03.753Z</time></trkpt><trkpt lat="43.7390573" lon="11.298001"><ele>84.0</ele><time>2026-04-18T14:38:04.754Z</time></trkpt><trkpt lat="43.7391249" lon="11.2980008"><ele>84.0</ele><time>2026-04-18T14:38:05.759Z</time></trkpt><trkpt lat="43.7391952" lon="11.2979956"><ele>84.0</ele><time>2026-04-18T14:38:06.761Z</time></trkpt><trkpt lat="43.7392766" lon="11.2979844"><ele>84.0</ele><time>2026-04-18T14:38:07.765Z</time></trkpt><trkpt lat="43.7393744" lon="11.2979641"><ele>83.6</ele><time>2026-04-18T14:38:08.779Z</time></trkpt><trkpt lat="43.7394794" lon="11.2979448"><ele>83.2</ele><time>2026-04-18T14:38:09.84Z</time></trkpt><trkpt lat="43.7395852" lon="11.2979271"><ele>82.8</ele><time>2026-04-18T14:38:10.846Z</time></trkpt><trkpt lat="43.7396897" lon="11.2979124"><ele>82.39999999999999</ele><time>2026-04-18T14:38:11.846Z</time></trkpt><trkpt lat="43.7397915" lon="11.2978911"><ele>82.0</ele><time>2026-04-18T14:38:12.84Z</time></trkpt><trkpt lat="43.7398687" lon="11.2978721"><ele>82.0</ele><time>2026-04-18T14:38:13.836Z</time></trkpt><trkpt lat="43.7399311" lon="11.2979254"><ele>82.0</ele><time>2026-04-18T14:38:15.833Z</time></trkpt><trkpt lat="43.7399894" lon="11.2980039"><ele>82.0</ele><time>2026-04-18T14:38:17.745Z</time></trkpt><trkpt lat="43.7399925" lon="11.2981416"><ele>82.0</ele><time>2026-04-18T14:38:19.759Z</time></trkpt><trkpt lat="43.7399587" lon="11.2983254"><ele>82.0</ele><time>2026-04-18T14:38:21.775Z</time></trkpt><trkpt lat="43.7399087" lon="11.2984386"><ele>82.39999999999999</ele><time>2026-04-18T14:38:22.759Z</time></trkpt><trkpt lat="43.7398626" lon="11.298562"><ele>82.8</ele><time>2026-04-18T14:38:23.76Z</time></trkpt><trkpt lat="43.7398133" lon="11.2986854"><ele>83.2</ele><time>2026-04-18T14:38:24.751Z</time></trkpt><trkpt lat="43.7397698" lon="11.2988222"><ele>83.6</ele><time>2026-04-18T14:38:25.753Z</time></trkpt><trkpt lat="43.7397359" lon="11.2989817"><ele>84.0</ele><time>2026-04-18T14:38:26.756Z</time></trkpt><trkpt lat="43.7397127" lon="11.2991624"><ele>85.80000000000001</ele><time>2026-04-18T14:38:27.754Z</time></trkpt><trkpt lat="43.7396992" lon="11.2993305"><ele>87.60000000000001</ele><time>2026-04-18T14:38:28.756Z</time></trkpt><trkpt lat="43.7397035" lon="11.2994885"><ele>89.4</ele><time>2026-04-18T14:38:29.746Z</time></trkpt><trkpt lat="43.7397082" lon="11.2996277"><ele>91.2</ele><time>2026-04-18T14:38:30.756Z</time></trkpt><trkpt lat="43.7397213" lon="11.2997793"><ele>93.0</ele><time>2026-04-18T14:38:31.75Z</time></trkpt><trkpt lat="43.7397378" lon="11.2999184"><ele>94.0</ele><time>2026-04-18T14:38:32.755Z</time></trkpt><trkpt lat="43.7397495" lon="11.3000746"><ele>95.0</ele><time>2026-04-18T14:38:33.758Z</time></trkpt><trkpt lat="43.7397588" lon="11.3002331"><ele>96.0</ele><time>2026-04-18T14:38:34.753Z</time></trkpt><trkpt lat="43.7397532" lon="11.300403"><ele>97.0</ele><time>2026-04-18T14:38:35.757Z</time></trkpt><trkpt lat="43.7397521" lon="11.3005776"><ele>97.0</ele><time>2026-04-18T14:38:36.751Z</time></trkpt><trkpt lat="43.7397404" lon="11.3007525"><ele>97.0</ele><time>2026-04-18T14:38:37.754Z</time></trkpt><trkpt lat="43.7397302" lon="11.3009261"><ele>97.0</ele><time>2026-04-18T14:38:38.755Z</time></trkpt><trkpt lat="43.7397241" lon="11.3010925"><ele>97.0</ele><time>2026-04-18T14:38:39.756Z</time></trkpt><trkpt lat="43.7397198" lon="11.3012619"><ele>96.5</ele><time>2026-04-18T14:38:40.754Z</time></trkpt><trkpt lat="43.7397152" lon="11.3014292"><ele>96.0</ele><time>2026-04-18T14:38:41.758Z</time></trkpt><trkpt lat="43.739707" lon="11.3015947"><ele>95.5</ele><time>2026-04-18T14:38:42.757Z</time></trkpt><trkpt lat="43.7396973" lon="11.3017529"><ele>95.0</ele><time>2026-04-18T14:38:43.765Z</time></trkpt><trkpt lat="43.7396841" lon="11.3019081"><ele>95.0</ele><time>2026-04-18T14:38:44.755Z</time></trkpt><trkpt lat="43.7396755" lon="11.3020569"><ele>95.0</ele><time>2026-04-18T14:38:45.753Z</time></trkpt><trkpt lat="43.7396655" lon="11.3022063"><ele>95.0</ele><time>2026-04-18T14:38:46.753Z</time></trkpt><trkpt lat="43.7396572" lon="11.3023562"><ele>95.0</ele><time>2026-04-18T14:38:47.753Z</time></trkpt><trkpt lat="43.7396502" lon="11.3025032"><ele>95.0</ele><time>2026-04-18T14:38:48.75Z</time></trkpt><trkpt lat="43.7396294" lon="11.3026468"><ele>95.4</ele><time>2026-04-18T14:38:49.758Z</time></trkpt><trkpt lat="43.7396223" lon="11.3027992"><ele>95.8</ele><time>2026-04-18T14:38:50.762Z</time></trkpt><trkpt lat="43.7396313" lon="11.302953"><ele>96.19999999999999</ele><time>2026-04-18T14:38:51.754Z</time></trkpt><trkpt lat="43.7396478" lon="11.3031053"><ele>96.6</ele><time>2026-04-18T14:38:52.78Z</time></trkpt><trkpt lat="43.7396672" lon="11.3032617"><ele>97.0</ele><time>2026-04-18T14:38:53.76Z</time></trkpt><trkpt lat="43.7396751" lon="11.3034178"><ele>97.75</ele><time>2026-04-18T14:38:54.757Z</time></trkpt><trkpt lat="43.7396736" lon="11.3035774"><ele>98.5</ele><time>2026-04-18T14:38:55.762Z</time></trkpt><trkpt lat="43.7396735" lon="11.303739"><ele>99.25</ele><time>2026-04-18T14:38:56.762Z</time></trkpt><trkpt lat="43.7396709" lon="11.3038928"><ele>100.0</ele><time>2026-04-18T14:38:57.761Z</time></trkpt><trkpt lat="43.7396531" lon="11.304049"><ele>101.5</ele><time>2026-04-18T14:38:58.762Z</time></trkpt><trkpt lat="43.7396376" lon="11.3042106"><ele>103.0</ele><time>2026-04-18T14:38:59.763Z</time></trkpt><trkpt lat="43.7396233" lon="11.3043674"><ele>104.5</ele><time>2026-04-18T14:39:00.766Z</time></trkpt><trkpt lat="43.739594" lon="11.3045304"><ele>106.0</ele><time>2026-04-18T14:39:01.765Z</time></trkpt><trkpt lat="43.73955" lon="11.3047058"><ele>106.25</ele><time>2026-04-18T14:39:02.768Z</time></trkpt><trkpt lat="43.7395132" lon="11.3048879"><ele>106.5</ele><time>2026-04-18T14:39:03.766Z</time></trkpt><trkpt lat="43.73947" lon="11.3050625"><ele>106.75</ele><time>2026-04-18T14:39:04.766Z</time></trkpt><trkpt lat="43.7394341" lon="11.3052213"><ele>107.0</ele><time>2026-04-18T14:39:05.76Z</time></trkpt><trkpt lat="43.7394063" lon="11.3053696"><ele>107.0</ele><time>2026-04-18T14:39:06.768Z</time></trkpt><trkpt lat="43.7393862" lon="11.3055032"><ele>106.99999999999999</ele><time>2026-04-18T14:39:07.766Z</time></trkpt><trkpt lat="43.7393685" lon="11.3056376"><ele>106.99999999999999</ele><time>2026-04-18T14:39:08.767Z</time></trkpt><trkpt lat="43.7393476" lon="11.3057789"><ele>107.0</ele><time>2026-04-18T14:39:09.765Z</time></trkpt><trkpt lat="43.7393226" lon="11.3059272"><ele>107.0</ele><time>2026-04-18T14:39:10.766Z</time></trkpt><trkpt lat="43.7392986" lon="11.3060635"><ele>105.39999999999999</ele><time>2026-04-18T14:39:11.765Z</time></trkpt><trkpt lat="43.7392733" lon="11.3061856"><ele>103.79999999999998</ele><time>2026-04-18T14:39:12.767Z</time></trkpt><trkpt lat="43.7392375" lon="11.3062999"><ele>102.2</ele><time>2026-04-18T14:39:13.769Z</time></trkpt><trkpt lat="43.7391994" lon="11.3064178"><ele>100.6</ele><time>2026-04-18T14:39:14.759Z</time></trkpt><trkpt lat="43.7391472" lon="11.3065509"><ele>99.0</ele><time>2026-04-18T14:39:15.768Z</time></trkpt><trkpt lat="43.7390854" lon="11.306699"><ele>99.0</ele><time>2026-04-18T14:39:16.773Z</time></trkpt><trkpt lat="43.7390185" lon="11.3068606"><ele>99.0</ele><time>2026-04-18T14:39:17.763Z</time></trkpt><trkpt lat="43.7389524" lon="11.3070083"><ele>99.0</ele><time>2026-04-18T14:39:18.765Z</time></trkpt><trkpt lat="43.73889" lon="11.3071751"><ele>99.0</ele><time>2026-04-18T14:39:19.767Z</time></trkpt><trkpt lat="43.7388256" lon="11.3073443"><ele>100.0</ele><time>2026-04-18T14:39:20.774Z</time></trkpt><trkpt lat="43.7387685" lon="11.3075205"><ele>101.0</ele><time>2026-04-18T14:39:21.766Z</time></trkpt><trkpt lat="43.7387151" lon="11.3077029"><ele>102.0</ele><time>2026-04-18T14:39:22.768Z</time></trkpt><trkpt lat="43.7386603" lon="11.3078876"><ele>103.0</ele><time>2026-04-18T14:39:23.792Z</time></trkpt><trkpt lat="43.738593" lon="11.308064"><ele>101.75</ele><time>2026-04-18T14:39:24.767Z</time></trkpt><trkpt lat="43.7385436" lon="11.308242"><ele>100.5</ele><time>2026-04-18T14:39:25.77Z</time></trkpt><trkpt lat="43.7384863" lon="11.3084152"><ele>99.25</ele><time>2026-04-18T14:39:26.764Z</time></trkpt><trkpt lat="43.7384213" lon="11.3085912"><ele>98.0</ele><time>2026-04-18T14:39:27.762Z</time></trkpt><trkpt lat="43.7383649" lon="11.308767"><ele>97.80000000000001</ele><time>2026-04-18T14:39:28.764Z</time></trkpt><trkpt lat="43.7383467" lon="11.3089358"><ele>97.6</ele><time>2026-04-18T14:39:29.762Z</time></trkpt><trkpt lat="43.7383352" lon="11.3090672"><ele>97.4</ele><time>2026-04-18T14:39:30.749Z</time></trkpt><trkpt lat="43.7383297" lon="11.3091825"><ele>97.19999999999999</ele><time>2026-04-18T14:39:31.76Z</time></trkpt><trkpt lat="43.7382631" lon="11.3092619"><ele>97.0</ele><time>2026-04-18T14:39:33.764Z</time></trkpt><trkpt lat="43.7381982" lon="11.3092879"><ele>97.0</ele><time>2026-04-18T14:39:35.763Z</time></trkpt><trkpt lat="43.7381369" lon="11.3093408"><ele>97.0</ele><time>2026-04-18T14:39:37.763Z</time></trkpt><trkpt lat="43.7380433" lon="11.3094078"><ele>97.0</ele><time>2026-04-18T14:39:39.773Z</time></trkpt><trkpt lat="43.7379242" lon="11.3094813"><ele>97.0</ele><time>2026-04-18T14:39:41.77Z</time></trkpt><trkpt lat="43.73786" lon="11.3095301"><ele>97.0</ele><time>2026-04-18T14:39:42.767Z</time></trkpt><trkpt lat="43.7377595" lon="11.309615"><ele>97.39999999999999</ele><time>2026-04-18T14:39:44.761Z</time></trkpt><trkpt lat="43.7376685" lon="11.3096866"><ele>97.8</ele><time>2026-04-18T14:39:46.769Z</time></trkpt><trkpt lat="43.7375783" lon="11.3097506"><ele>98.2</ele><time>2026-04-18T14:39:48.768Z</time></trkpt><trkpt lat="43.7375104" lon="11.3098435"><ele>98.6</ele><time>2026-04-18T14:39:50.779Z</time></trkpt><trkpt lat="43.7375042" lon="11.3099817"><ele>99.0</ele><time>2026-04-18T14:39:52.767Z</time></trkpt><trkpt lat="43.7375053" lon="11.3101378"><ele>99.0</ele><time>2026-04-18T14:39:54.778Z</time></trkpt><trkpt lat="43.7374939" lon="11.3102247"><ele>99.0</ele><time>2026-04-18T14:39:55.76Z</time></trkpt><trkpt lat="43.7374679" lon="11.3103928"><ele>99.0</ele><time>2026-04-18T14:39:57.765Z</time></trkpt><trkpt lat="43.7374555" lon="11.3104902"><ele>99.0</ele><time>2026-04-18T14:39:58.765Z</time></trkpt><trkpt lat="43.7374433" lon="11.3105964"><ele>99.0</ele><time>2026-04-18T14:39:59.762Z</time></trkpt><trkpt lat="43.7374359" lon="11.310699"><ele>99.0</ele><time>2026-04-18T14:40:00.773Z</time></trkpt><trkpt lat="43.737429" lon="11.3107859"><ele>99.14285714285715</ele><time>2026-04-18T14:40:01.766Z</time></trkpt><trkpt lat="43.737419" lon="11.3108762"><ele>99.28571428571428</ele><time>2026-04-18T14:40:02.768Z</time></trkpt><trkpt lat="43.7374011" lon="11.3109738"><ele>99.42857142857143</ele><time>2026-04-18T14:40:03.766Z</time></trkpt><trkpt lat="43.7373712" lon="11.3110769"><ele>99.57142857142858</ele><time>2026-04-18T14:40:04.762Z</time></trkpt><trkpt lat="43.7373427" lon="11.311175"><ele>99.71428571428572</ele><time>2026-04-18T14:40:05.76Z</time></trkpt><trkpt lat="43.7373117" lon="11.31127"><ele>99.85714285714286</ele><time>2026-04-18T14:40:06.76Z</time></trkpt><trkpt lat="43.7372839" lon="11.311367"><ele>100.0</ele><time>2026-04-18T14:40:07.767Z</time></trkpt><trkpt lat="43.7372518" lon="11.3114668"><ele>100.33333333333334</ele><time>2026-04-18T14:40:08.767Z</time></trkpt><trkpt lat="43.7372358" lon="11.3115659"><ele>100.66666666666667</ele><time>2026-04-18T14:40:09.764Z</time></trkpt><trkpt lat="43.7372206" lon="11.3116524"><ele>101.0</ele><time>2026-04-18T14:40:10.763Z</time></trkpt><trkpt lat="43.7371911" lon="11.3117797"><ele>101.33333333333334</ele><time>2026-04-18T14:40:12.762Z</time></trkpt><trkpt lat="43.7371152" lon="11.3118336"><ele>101.66666666666667</ele><time>2026-04-18T14:40:14.773Z</time></trkpt><trkpt lat="43.7370232" lon="11.311829"><ele>102.0</ele><time>2026-04-18T14:40:17.776Z</time></trkpt><trkpt lat="43.7369589" lon="11.3117917"><ele>102.5</ele><time>2026-04-18T14:40:19.777Z</time></trkpt><trkpt lat="43.7368523" lon="11.3117502"><ele>103.0</ele><time>2026-04-18T14:40:21.788Z</time></trkpt><trkpt lat="43.7367399" lon="11.3116974"><ele>103.5</ele><time>2026-04-18T14:40:23.781Z</time></trkpt><trkpt lat="43.7366757" lon="11.3116713"><ele>104.0</ele><time>2026-04-18T14:40:24.78Z</time></trkpt><trkpt lat="43.73661" lon="11.3116507"><ele>104.5</ele><time>2026-04-18T14:40:25.794Z</time></trkpt><trkpt lat="43.7365437" lon="11.3116263"><ele>105.0</ele><time>2026-04-18T14:40:26.778Z</time></trkpt><trkpt lat="43.7364768" lon="11.3115923"><ele>105.0</ele><time>2026-04-18T14:40:27.77Z</time></trkpt><trkpt lat="43.7364144" lon="11.311563"><ele>105.0</ele><time>2026-04-18T14:40:28.77Z</time></trkpt><trkpt lat="43.736352" lon="11.3115417"><ele>105.0</ele><time>2026-04-18T14:40:29.769Z</time></trkpt><trkpt lat="43.7362874" lon="11.3115164"><ele>105.0</ele><time>2026-04-18T14:40:30.775Z</time></trkpt><trkpt lat="43.7362201" lon="11.3114946"><ele>105.0</ele><time>2026-04-18T14:40:31.775Z</time></trkpt><trkpt lat="43.7361589" lon="11.3114666"><ele>105.0</ele><time>2026-04-18T14:40:32.776Z</time></trkpt><trkpt lat="43.736099" lon="11.3114384"><ele>105.0</ele><time>2026-04-18T14:40:33.774Z</time></trkpt><trkpt lat="43.735996" lon="11.311406"><ele>108.2</ele><time>2026-04-18T14:40:35.771Z</time></trkpt><trkpt lat="43.7358883" lon="11.3113619"><ele>111.4</ele><time>2026-04-18T14:40:37.771Z</time></trkpt><trkpt lat="43.7357793" lon="11.3113261"><ele>114.6</ele><time>2026-04-18T14:40:39.776Z</time></trkpt><trkpt lat="43.7356604" lon="11.3112873"><ele>117.8</ele><time>2026-04-18T14:40:41.771Z</time></trkpt><trkpt lat="43.7355985" lon="11.3112642"><ele>121.0</ele><time>2026-04-18T14:40:42.773Z</time></trkpt><trkpt lat="43.7354777" lon="11.3112193"><ele>121.0</ele><time>2026-04-18T14:40:44.769Z</time></trkpt><trkpt lat="43.7353684" lon="11.3111686"><ele>121.0</ele><time>2026-04-18T14:40:46.771Z</time></trkpt><trkpt lat="43.7352688" lon="11.3111278"><ele>121.0</ele><time>2026-04-18T14:40:48.767Z</time></trkpt><trkpt lat="43.735169" lon="11.3110915"><ele>121.0</ele><time>2026-04-18T14:40:50.775Z</time></trkpt><trkpt lat="43.73509" lon="11.3110738"><ele>121.0</ele><time>2026-04-18T14:40:52.774Z</time></trkpt><trkpt lat="43.7350102" lon="11.3110426"><ele>122.71428571428571</ele><time>2026-04-18T14:40:54.773Z</time></trkpt><trkpt lat="43.7349122" lon="11.311008"><ele>124.42857142857142</ele><time>2026-04-18T14:40:56.781Z</time></trkpt><trkpt lat="43.7348504" lon="11.3109854"><ele>126.14285714285714</ele><time>2026-04-18T14:40:57.767Z</time></trkpt><trkpt lat="43.7347853" lon="11.3109603"><ele>127.85714285714286</ele><time>2026-04-18T14:40:58.765Z</time></trkpt><trkpt lat="43.7347149" lon="11.3109325"><ele>129.57142857142856</ele><time>2026-04-18T14:40:59.766Z</time></trkpt><trkpt lat="43.7346513" lon="11.3109106"><ele>131.28571428571428</ele><time>2026-04-18T14:41:00.765Z</time></trkpt><trkpt lat="43.7345808" lon="11.3108804"><ele>133.0</ele><time>2026-04-18T14:41:02.757Z</time></trkpt><trkpt lat="43.7346145" lon="11.3107924"><ele>133.0</ele><time>2026-04-18T14:42:40.795Z</time></trkpt><trkpt lat="43.7346285" lon="11.3107052"><ele>133.0</ele><time>2026-04-18T14:42:42.777Z</time></trkpt><trkpt lat="43.734642" lon="11.310585"><ele>133.0</ele><time>2026-04-18T14:42:44.787Z</time></trkpt><trkpt lat="43.7346689" lon="11.3104559"><ele>133.0</ele><time>2026-04-18T14:42:46.784Z</time></trkpt><trkpt lat="43.7346926" lon="11.3103274"><ele>133.0</ele><time>2026-04-18T14:42:48.777Z</time></trkpt><trkpt lat="43.7347289" lon="11.3102091"><ele>133.0</ele><time>2026-04-18T14:42:50.779Z</time></trkpt><trkpt lat="43.7347506" lon="11.3101117"><ele>133.0</ele><time>2026-04-18T14:42:52.791Z</time></trkpt><trkpt lat="43.7347653" lon="11.3100092"><ele>133.0</ele><time>2026-04-18T14:42:54.78Z</time></trkpt><trkpt lat="43.7347884" lon="11.3099121"><ele>133.0</ele><time>2026-04-18T14:42:56.781Z</time></trkpt><trkpt lat="43.7348115" lon="11.3098156"><ele>133.0</ele><time>2026-04-18T14:42:58.785Z</time></trkpt><trkpt lat="43.734832" lon="11.3097076"><ele>133.0</ele><time>2026-04-18T14:43:00.791Z</time></trkpt><trkpt lat="43.734865" lon="11.309584"><ele>133.0</ele><time>2026-04-18T14:43:02.775Z</time></trkpt><trkpt lat="43.7348975" lon="11.3094439"><ele>133.0</ele><time>2026-04-18T14:43:04.773Z</time></trkpt><trkpt lat="43.7349315" lon="11.3093065"><ele>133.0</ele><time>2026-04-18T14:43:06.771Z</time></trkpt><trkpt lat="43.7349718" lon="11.3091546"><ele>133.0</ele><time>2026-04-18T14:43:08.775Z</time></trkpt><trkpt lat="43.7350176" lon="11.3090003"><ele>133.0</ele><time>2026-04-18T14:43:10.775Z</time></trkpt><trkpt lat="43.7350526" lon="11.3088538"><ele>132.6</ele><time>2026-04-18T14:43:12.778Z</time></trkpt><trkpt lat="43.7350801" lon="11.3087303"><ele>132.20000000000002</ele><time>2026-04-18T14:43:14.777Z</time></trkpt><trkpt lat="43.7351126" lon="11.3086082"><ele>131.8</ele><time>2026-04-18T14:43:16.777Z</time></trkpt><trkpt lat="43.7351392" lon="11.3084954"><ele>131.4</ele><time>2026-04-18T14:43:18.775Z</time></trkpt><trkpt lat="43.735179" lon="11.3083679"><ele>131.0</ele><time>2026-04-18T14:43:20.781Z</time></trkpt><trkpt lat="43.7352269" lon="11.3082036"><ele>131.0</ele><time>2026-04-18T14:43:22.779Z</time></trkpt><trkpt lat="43.7352456" lon="11.3081092"><ele>131.0</ele><time>2026-04-18T14:43:23.774Z</time></trkpt><trkpt lat="43.73527" lon="11.3080142"><ele>131.0</ele><time>2026-04-18T14:43:24.779Z</time></trkpt><trkpt lat="43.7352977" lon="11.3079241"><ele>131.0</ele><time>2026-04-18T14:43:25.772Z</time></trkpt><trkpt lat="43.7353129" lon="11.3078316"><ele>131.0</ele><time>2026-04-18T14:43:26.77Z</time></trkpt><trkpt lat="43.7353371" lon="11.3077417"><ele>131.0</ele><time>2026-04-18T14:43:27.775Z</time></trkpt><trkpt lat="43.7353592" lon="11.3076499"><ele>131.0</ele><time>2026-04-18T14:43:28.785Z</time></trkpt><trkpt lat="43.7353803" lon="11.3075604"><ele>131.0</ele><time>2026-04-18T14:43:29.777Z</time></trkpt><trkpt lat="43.7354159" lon="11.307395"><ele>131.0</ele><time>2026-04-18T14:43:31.791Z</time></trkpt><trkpt lat="43.7354396" lon="11.3073121"><ele>131.0</ele><time>2026-04-18T14:43:32.774Z</time></trkpt><trkpt lat="43.7354676" lon="11.3072206"><ele>131.0</ele><time>2026-04-18T14:43:33.778Z</time></trkpt><trkpt lat="43.7354973" lon="11.3071292"><ele>131.0</ele><time>2026-04-18T14:43:34.777Z</time></trkpt><trkpt lat="43.7355198" lon="11.3070313"><ele>131.0</ele><time>2026-04-18T14:43:35.775Z</time></trkpt><trkpt lat="43.7355422" lon="11.306936"><ele>130.66666666666666</ele><time>2026-04-18T14:43:36.772Z</time></trkpt><trkpt lat="43.7355588" lon="11.3068517"><ele>130.33333333333331</ele><time>2026-04-18T14:43:37.775Z</time></trkpt><trkpt lat="43.7355913" lon="11.3067084"><ele>130.0</ele><time>2026-04-18T14:43:39.777Z</time></trkpt><trkpt lat="43.7356267" lon="11.3066207"><ele>129.66666666666666</ele><time>2026-04-18T14:43:41.781Z</time></trkpt><trkpt lat="43.7356634" lon="11.3065175"><ele>129.33333333333334</ele><time>2026-04-18T14:43:44.787Z</time></trkpt><trkpt lat="43.7356076" lon="11.3064459"><ele>129.0</ele><time>2026-04-18T14:44:08.786Z</time></trkpt><trkpt lat="43.735519" lon="11.3063852"><ele>128.6</ele><time>2026-04-18T14:44:10.786Z</time></trkpt><trkpt lat="43.7354522" lon="11.3063493"><ele>128.2</ele><time>2026-04-18T14:44:11.784Z</time></trkpt><trkpt lat="43.73535" lon="11.3062886"><ele>127.79999999999998</ele><time>2026-04-18T14:44:13.787Z</time></trkpt><trkpt lat="43.7352501" lon="11.30624"><ele>127.39999999999999</ele><time>2026-04-18T14:44:15.785Z</time></trkpt><trkpt lat="43.7351681" lon="11.3061742"><ele>127.0</ele><time>2026-04-18T14:44:17.782Z</time></trkpt><trkpt lat="43.7350846" lon="11.3061348"><ele>127.0</ele><time>2026-04-18T14:44:20.792Z</time></trkpt><trkpt lat="43.7351585" lon="11.3062002"><ele>126.99999999999999</ele><time>2026-04-18T14:44:40.779Z</time></trkpt><trkpt lat="43.7352456" lon="11.3062583"><ele>126.99999999999999</ele><time>2026-04-18T14:44:42.771Z</time></trkpt><trkpt lat="43.7353434" lon="11.3063115"><ele>127.0</ele><time>2026-04-18T14:44:44.766Z</time></trkpt><trkpt lat="43.7354499" lon="11.3063644"><ele>127.0</ele><time>2026-04-18T14:44:46.771Z</time></trkpt><trkpt lat="43.7355532" lon="11.3064041"><ele>127.39999999999999</ele><time>2026-04-18T14:44:48.772Z</time></trkpt><trkpt lat="43.7356341" lon="11.3064377"><ele>127.79999999999998</ele><time>2026-04-18T14:44:50.771Z</time></trkpt><trkpt lat="43.7356814" lon="11.3065237"><ele>128.2</ele><time>2026-04-18T14:45:07.786Z</time></trkpt><trkpt lat="43.7356755" lon="11.3066415"><ele>128.6</ele><time>2026-04-18T14:45:10.778Z</time></trkpt><trkpt lat="43.7356335" lon="11.3067455"><ele>129.0</ele><time>2026-04-18T14:45:12.779Z</time></trkpt><trkpt lat="43.7355856" lon="11.3068974"><ele>129.0</ele><time>2026-04-18T14:45:14.769Z</time></trkpt><trkpt lat="43.7355429" lon="11.3070432"><ele>129.0</ele><time>2026-04-18T14:45:16.772Z</time></trkpt><trkpt lat="43.7355009" lon="11.3072108"><ele>129.0</ele><time>2026-04-18T14:45:18.768Z</time></trkpt><trkpt lat="43.7354766" lon="11.3072941"><ele>129.0</ele><time>2026-04-18T14:45:19.767Z</time></trkpt><trkpt lat="43.7354472" lon="11.3073805"><ele>129.0</ele><time>2026-04-18T14:45:20.771Z</time></trkpt><trkpt lat="43.7354007" lon="11.3075149"><ele>129.33333333333334</ele><time>2026-04-18T14:45:22.768Z</time></trkpt><trkpt lat="43.7353629" lon="11.3076395"><ele>129.66666666666666</ele><time>2026-04-18T14:45:24.767Z</time></trkpt><trkpt lat="43.7353547" lon="11.3077466"><ele>130.0</ele><time>2026-04-18T14:45:26.778Z</time></trkpt><trkpt lat="43.7353361" lon="11.3078632"><ele>130.33333333333331</ele><time>2026-04-18T14:45:28.78Z</time></trkpt><trkpt lat="43.7352986" lon="11.308019"><ele>130.66666666666666</ele><time>2026-04-18T14:45:30.769Z</time></trkpt><trkpt lat="43.7352817" lon="11.3081047"><ele>131.0</ele><time>2026-04-18T14:45:31.77Z</time></trkpt><trkpt lat="43.7352325" lon="11.3082542"><ele>130.0</ele><time>2026-04-18T14:45:33.769Z</time></trkpt><trkpt lat="43.735175" lon="11.3084123"><ele>129.0</ele><time>2026-04-18T14:45:35.772Z</time></trkpt><trkpt lat="43.7351236" lon="11.3085626"><ele>128.0</ele><time>2026-04-18T14:45:37.777Z</time></trkpt><trkpt lat="43.735089" lon="11.3087114"><ele>127.0</ele><time>2026-04-18T14:45:39.781Z</time></trkpt><trkpt lat="43.735061" lon="11.3088457"><ele>128.2</ele><time>2026-04-18T14:45:41.777Z</time></trkpt><trkpt lat="43.7350324" lon="11.308994"><ele>129.39999999999998</ele><time>2026-04-18T14:45:43.777Z</time></trkpt><trkpt lat="43.7349921" lon="11.3091404"><ele>130.60000000000002</ele><time>2026-04-18T14:45:45.77Z</time></trkpt><trkpt lat="43.7349503" lon="11.3092702"><ele>131.8</ele><time>2026-04-18T14:45:47.772Z</time></trkpt><trkpt lat="43.7349237" lon="11.309368"><ele>133.0</ele><time>2026-04-18T14:45:49.772Z</time></trkpt><trkpt lat="43.734891" lon="11.3094865"><ele>133.0</ele><time>2026-04-18T14:45:51.767Z</time></trkpt><trkpt lat="43.7348719" lon="11.3096312"><ele>133.0</ele><time>2026-04-18T14:45:53.77Z</time></trkpt><trkpt lat="43.734844" lon="11.3097662"><ele>133.0</ele><time>2026-04-18T14:45:55.767Z</time></trkpt><trkpt lat="43.7348229" lon="11.30985"><ele>133.0</ele><time>2026-04-18T14:45:56.77Z</time></trkpt><trkpt lat="43.7348019" lon="11.3099458"><ele>133.0</ele><time>2026-04-18T14:45:57.77Z</time></trkpt><trkpt lat="43.7347824" lon="11.3100349"><ele>133.0</ele><time>2026-04-18T14:45:58.777Z</time></trkpt><trkpt lat="43.7347574" lon="11.3101289"><ele>133.0</ele><time>2026-04-18T14:45:59.768Z</time></trkpt><trkpt lat="43.734723" lon="11.3102739"><ele>133.0</ele><time>2026-04-18T14:46:01.764Z</time></trkpt><trkpt lat="43.7346905" lon="11.310396"><ele>133.0</ele><time>2026-04-18T14:46:03.77Z</time></trkpt><trkpt lat="43.7346591" lon="11.3105374"><ele>133.0</ele><time>2026-04-18T14:46:05.791Z</time></trkpt><trkpt lat="43.7346253" lon="11.3106738"><ele>133.0</ele><time>2026-04-18T14:46:07.773Z</time></trkpt><trkpt lat="43.734605" lon="11.3107709"><ele>133.0</ele><time>2026-04-18T14:46:09.785Z</time></trkpt><trkpt lat="43.7346191" lon="11.3108605"><ele>133.0</ele><time>2026-04-18T14:46:12.774Z</time></trkpt><trkpt lat="43.7346798" lon="11.3108842"><ele>133.0</ele><time>2026-04-18T14:46:14.776Z</time></trkpt><trkpt lat="43.7347682" lon="11.3109106"><ele>133.0</ele><time>2026-04-18T14:46:17.78Z</time></trkpt><trkpt lat="43.7348352" lon="11.3109299"><ele>133.0</ele><time>2026-04-18T14:46:19.769Z</time></trkpt><trkpt lat="43.7349113" lon="11.3109634"><ele>133.0</ele><time>2026-04-18T14:46:21.77Z</time></trkpt><trkpt lat="43.7349777" lon="11.3109919"><ele>133.0</ele><time>2026-04-18T14:46:23.771Z</time></trkpt><trkpt lat="43.7350454" lon="11.3110315"><ele>133.0</ele><time>2026-04-18T14:46:26.767Z</time></trkpt><trkpt lat="43.7350761" lon="11.3111128"><ele>133.0</ele><time>2026-04-18T14:46:35.773Z</time></trkpt><trkpt lat="43.7350555" lon="11.3112334"><ele>133.0</ele><time>2026-04-18T14:46:37.768Z</time></trkpt><trkpt lat="43.7350167" lon="11.3114148"><ele>133.0</ele><time>2026-04-18T14:46:39.767Z</time></trkpt><trkpt lat="43.7350093" lon="11.3115077"><ele>133.0</ele><time>2026-04-18T14:46:40.763Z</time></trkpt><trkpt lat="43.7349753" lon="11.3116504"><ele>133.20000000000002</ele><time>2026-04-18T14:46:42.76Z</time></trkpt><trkpt lat="43.7349471" lon="11.3118006"><ele>133.4</ele><time>2026-04-18T14:46:44.763Z</time></trkpt><trkpt lat="43.7349278" lon="11.3119466"><ele>133.60000000000002</ele><time>2026-04-18T14:46:46.755Z</time></trkpt><trkpt lat="43.7349013" lon="11.3120859"><ele>133.8</ele><time>2026-04-18T14:46:48.755Z</time></trkpt><trkpt lat="43.7348559" lon="11.3122423"><ele>134.0</ele><time>2026-04-18T14:46:50.754Z</time></trkpt><trkpt lat="43.7348062" lon="11.3123986"><ele>134.0</ele><time>2026-04-18T14:46:52.758Z</time></trkpt><trkpt lat="43.734775" lon="11.312479"><ele>134.0</ele><time>2026-04-18T14:46:53.753Z</time></trkpt><trkpt lat="43.7347351" lon="11.3125537"><ele>134.0</ele><time>2026-04-18T14:46:54.753Z</time></trkpt><trkpt lat="43.7347034" lon="11.312631"><ele>134.0</ele><time>2026-04-18T14:46:55.759Z</time></trkpt><trkpt lat="43.7346408" lon="11.3127853"><ele>134.0</ele><time>2026-04-18T14:46:57.763Z</time></trkpt><trkpt lat="43.734584" lon="11.3129159"><ele>134.0</ele><time>2026-04-18T14:46:59.766Z</time></trkpt><trkpt lat="43.7345244" lon="11.3130421"><ele>133.4</ele><time>2026-04-18T14:47:01.763Z</time></trkpt><trkpt lat="43.7344958" lon="11.3131226"><ele>132.8</ele><time>2026-04-18T14:47:02.762Z</time></trkpt><trkpt lat="43.7344399" lon="11.3132482"><ele>132.2</ele><time>2026-04-18T14:47:04.762Z</time></trkpt><trkpt lat="43.7343618" lon="11.3133594"><ele>131.6</ele><time>2026-04-18T14:47:06.762Z</time></trkpt><trkpt lat="43.7342576" lon="11.313443"><ele>131.0</ele><time>2026-04-18T14:47:08.767Z</time></trkpt><trkpt lat="43.7341722" lon="11.3135021"><ele>133.2</ele><time>2026-04-18T14:47:10.76Z</time></trkpt><trkpt lat="43.7340958" lon="11.3135392"><ele>135.39999999999998</ele><time>2026-04-18T14:47:12.775Z</time></trkpt><trkpt lat="43.7339955" lon="11.3135841"><ele>137.6</ele><time>2026-04-18T14:47:14.769Z</time></trkpt><trkpt lat="43.7338812" lon="11.3135933"><ele>139.79999999999998</ele><time>2026-04-18T14:47:16.772Z</time></trkpt><trkpt lat="43.7337667" lon="11.3135951"><ele>142.0</ele><time>2026-04-18T14:47:18.775Z</time></trkpt><trkpt lat="43.7337012" lon="11.3135903"><ele>142.0</ele><time>2026-04-18T14:47:19.771Z</time></trkpt><trkpt lat="43.7335841" lon="11.3135623"><ele>142.0</ele><time>2026-04-18T14:47:21.775Z</time></trkpt><trkpt lat="43.7334698" lon="11.3135145"><ele>142.0</ele><time>2026-04-18T14:47:23.769Z</time></trkpt><trkpt lat="43.7334023" lon="11.3134869"><ele>142.0</ele><time>2026-04-18T14:47:24.771Z</time></trkpt><trkpt lat="43.7333357" lon="11.3134429"><ele>142.0</ele><time>2026-04-18T14:47:25.771Z</time></trkpt><trkpt lat="43.7332738" lon="11.3134029"><ele>141.85714285714286</ele><time>2026-04-18T14:47:26.77Z</time></trkpt><trkpt lat="43.7332117" lon="11.3133683"><ele>141.7142857142857</ele><time>2026-04-18T14:47:27.774Z</time></trkpt><trkpt lat="43.7331499" lon="11.3133339"><ele>141.57142857142856</ele><time>2026-04-18T14:47:28.773Z</time></trkpt><trkpt lat="43.7330913" lon="11.3132908"><ele>141.42857142857142</ele><time>2026-04-18T14:47:29.765Z</time></trkpt><trkpt lat="43.7330297" lon="11.3132564"><ele>141.28571428571428</ele><time>2026-04-18T14:47:30.769Z</time></trkpt><trkpt lat="43.7329629" lon="11.3132345"><ele>141.14285714285714</ele><time>2026-04-18T14:47:31.77Z</time></trkpt><trkpt lat="43.7328517" lon="11.3132109"><ele>141.0</ele><time>2026-04-18T14:47:33.77Z</time></trkpt><trkpt lat="43.7327601" lon="11.3132337"><ele>139.4</ele><time>2026-04-18T14:47:35.776Z</time></trkpt><trkpt lat="43.7327096" lon="11.313325"><ele>137.8</ele><time>2026-04-18T14:47:38.788Z</time></trkpt><trkpt lat="43.7326794" lon="11.31343"><ele>136.20000000000002</ele><time>2026-04-18T14:47:40.772Z</time></trkpt><trkpt lat="43.7326454" lon="11.3135784"><ele>134.6</ele><time>2026-04-18T14:47:42.763Z</time></trkpt><trkpt lat="43.732633" lon="11.3136654"><ele>133.0</ele><time>2026-04-18T14:47:43.765Z</time></trkpt><trkpt lat="43.7326155" lon="11.3138361"><ele>132.42857142857142</ele><time>2026-04-18T14:47:45.751Z</time></trkpt><trkpt lat="43.7326047" lon="11.3139371"><ele>131.85714285714286</ele><time>2026-04-18T14:47:46.788Z</time></trkpt><trkpt lat="43.7326062" lon="11.3140273"><ele>131.28571428571428</ele><time>2026-04-18T14:47:47.772Z</time></trkpt><trkpt lat="43.732608" lon="11.314122"><ele>130.71428571428572</ele><time>2026-04-18T14:47:48.77Z</time></trkpt><trkpt lat="43.7326094" lon="11.314221"><ele>130.14285714285714</ele><time>2026-04-18T14:47:49.766Z</time></trkpt><trkpt lat="43.7326047" lon="11.3143176"><ele>129.57142857142856</ele><time>2026-04-18T14:47:50.771Z</time></trkpt><trkpt lat="43.732594" lon="11.3144256"><ele>129.0</ele><time>2026-04-18T14:47:51.77Z</time></trkpt><trkpt lat="43.7325973" lon="11.3145344"><ele>129.0</ele><time>2026-04-18T14:47:52.769Z</time></trkpt><trkpt lat="43.7326005" lon="11.3146346"><ele>129.0</ele><time>2026-04-18T14:47:53.77Z</time></trkpt><trkpt lat="43.7325963" lon="11.3147288"><ele>129.0</ele><time>2026-04-18T14:47:54.772Z</time></trkpt><trkpt lat="43.732575" lon="11.3148267"><ele>129.0</ele><time>2026-04-18T14:47:55.773Z</time></trkpt><trkpt lat="43.732546" lon="11.3149246"><ele>129.0</ele><time>2026-04-18T14:47:56.78Z</time></trkpt><trkpt lat="43.7324891" lon="11.3150407"><ele>129.0</ele><time>2026-04-18T14:47:57.761Z</time></trkpt><trkpt lat="43.7324264" lon="11.315177"><ele>129.2</ele><time>2026-04-18T14:47:58.854Z</time></trkpt><trkpt lat="43.7323719" lon="11.3153096"><ele>129.4</ele><time>2026-04-18T14:47:59.85Z</time></trkpt><trkpt lat="43.7323157" lon="11.3154502"><ele>129.6</ele><time>2026-04-18T14:48:00.851Z</time></trkpt><trkpt lat="43.732265" lon="11.3155824"><ele>129.8</ele><time>2026-04-18T14:48:01.847Z</time></trkpt><trkpt lat="43.7322095" lon="11.3157125"><ele>130.0</ele><time>2026-04-18T14:48:02.85Z</time></trkpt><trkpt lat="43.7321524" lon="11.3158549"><ele>130.0</ele><time>2026-04-18T14:48:03.855Z</time></trkpt><trkpt lat="43.7321016" lon="11.3159964"><ele>130.0</ele><time>2026-04-18T14:48:04.855Z</time></trkpt><trkpt lat="43.732054" lon="11.3161205"><ele>130.0</ele><time>2026-04-18T14:48:05.86Z</time></trkpt><trkpt lat="43.7320139" lon="11.3162361"><ele>130.0</ele><time>2026-04-18T14:48:06.861Z</time></trkpt><trkpt lat="43.7319697" lon="11.3163453"><ele>130.0</ele><time>2026-04-18T14:48:07.85Z</time></trkpt><trkpt lat="43.7319248" lon="11.3164526"><ele>128.16666666666669</ele><time>2026-04-18T14:48:08.853Z</time></trkpt><trkpt lat="43.7318737" lon="11.316562"><ele>126.33333333333334</ele><time>2026-04-18T14:48:09.844Z</time></trkpt><trkpt lat="43.7318425" lon="11.3166517"><ele>124.5</ele><time>2026-04-18T14:48:10.833Z</time></trkpt><trkpt lat="43.7317849" lon="11.3167789"><ele>122.66666666666666</ele><time>2026-04-18T14:48:12.831Z</time></trkpt><trkpt lat="43.7317292" lon="11.3168251"><ele>120.83333333333333</ele><time>2026-04-18T14:48:14.85Z</time></trkpt><trkpt lat="43.7316485" lon="11.316844"><ele>119.0</ele><time>2026-04-18T14:48:16.858Z</time></trkpt><trkpt lat="43.7315518" lon="11.3168738"><ele>119.0</ele><time>2026-04-18T14:48:18.86Z</time></trkpt><trkpt lat="43.731467" lon="11.3169504"><ele>119.0</ele><time>2026-04-18T14:48:20.849Z</time></trkpt><trkpt lat="43.7313902" lon="11.3170285"><ele>119.0</ele><time>2026-04-18T14:48:22.843Z</time></trkpt><trkpt lat="43.7312585" lon="11.3170906"><ele>119.0</ele><time>2026-04-18T14:48:24.835Z</time></trkpt><trkpt lat="43.7311772" lon="11.3170974"><ele>119.0</ele><time>2026-04-18T14:48:26.849Z</time></trkpt><trkpt lat="43.7310951" lon="11.317026"><ele>117.25</ele><time>2026-04-18T14:48:28.828Z</time></trkpt><trkpt lat="43.7310244" lon="11.3169376"><ele>115.5</ele><time>2026-04-18T14:48:30.778Z</time></trkpt><trkpt lat="43.730943" lon="11.3168413"><ele>113.75</ele><time>2026-04-18T14:48:32.759Z</time></trkpt><trkpt lat="43.7308522" lon="11.316754"><ele>112.0</ele><time>2026-04-18T14:48:34.773Z</time></trkpt><trkpt lat="43.7307231" lon="11.3165881"><ele>112.00000000000001</ele><time>2026-04-18T14:48:36.819Z</time></trkpt><trkpt lat="43.7306473" lon="11.3164925"><ele>112.0</ele><time>2026-04-18T14:48:37.827Z</time></trkpt><trkpt lat="43.7305823" lon="11.3164206"><ele>112.0</ele><time>2026-04-18T14:48:38.836Z</time></trkpt><trkpt lat="43.7305316" lon="11.3163412"><ele>112.0</ele><time>2026-04-18T14:48:39.842Z</time></trkpt><trkpt lat="43.7304841" lon="11.316277"><ele>112.00000000000001</ele><time>2026-04-18T14:48:40.873Z</time></trkpt><trkpt lat="43.7304366" lon="11.3162194"><ele>112.0</ele><time>2026-04-18T14:48:41.862Z</time></trkpt><trkpt lat="43.7303445" lon="11.3161136"><ele>111.16666666666667</ele><time>2026-04-18T14:48:43.854Z</time></trkpt><trkpt lat="43.730264" lon="11.316019"><ele>110.33333333333334</ele><time>2026-04-18T14:48:45.855Z</time></trkpt><trkpt lat="43.7302286" lon="11.3158767"><ele>109.5</ele><time>2026-04-18T14:48:47.861Z</time></trkpt><trkpt lat="43.7301944" lon="11.3157868"><ele>108.66666666666666</ele><time>2026-04-18T14:48:49.859Z</time></trkpt><trkpt lat="43.7301591" lon="11.3156706"><ele>107.83333333333333</ele><time>2026-04-18T14:49:36.878Z</time></trkpt><trkpt lat="43.7300928" lon="11.3156639"><ele>107.0</ele><time>2026-04-18T14:49:42.865Z</time></trkpt><trkpt lat="43.7299971" lon="11.3157343"><ele>106.16666666666666</ele><time>2026-04-18T14:49:45.867Z</time></trkpt><trkpt lat="43.7299444" lon="11.3158342"><ele>105.33333333333333</ele><time>2026-04-18T14:49:46.86Z</time></trkpt><trkpt lat="43.7298948" lon="11.315951"><ele>104.5</ele><time>2026-04-18T14:49:47.844Z</time></trkpt><trkpt lat="43.7298398" lon="11.3160359"><ele>103.66666666666666</ele><time>2026-04-18T14:49:48.838Z</time></trkpt><trkpt lat="43.7297822" lon="11.316086"><ele>102.83333333333333</ele><time>2026-04-18T14:49:49.833Z</time></trkpt><trkpt lat="43.7297192" lon="11.316109"><ele>102.0</ele><time>2026-04-18T14:49:50.827Z</time></trkpt><trkpt lat="43.7296485" lon="11.3160948"><ele>102.0</ele><time>2026-04-18T14:49:51.845Z</time></trkpt><trkpt lat="43.7295631" lon="11.3160816"><ele>102.0</ele><time>2026-04-18T14:49:52.855Z</time></trkpt><trkpt lat="43.7294989" lon="11.3160597"><ele>102.0</ele><time>2026-04-18T14:49:53.826Z</time></trkpt><trkpt lat="43.7294332" lon="11.3160569"><ele>102.0</ele><time>2026-04-18T14:49:54.828Z</time></trkpt><trkpt lat="43.7293672" lon="11.3160135"><ele>102.0</ele><time>2026-04-18T14:49:55.83Z</time></trkpt><trkpt lat="43.7292975" lon="11.3159829"><ele>102.0</ele><time>2026-04-18T14:49:56.833Z</time></trkpt><trkpt lat="43.7292266" lon="11.3159293"><ele>102.0</ele><time>2026-04-18T14:49:57.861Z</time></trkpt><trkpt lat="43.72915" lon="11.3158632"><ele>103.0</ele><time>2026-04-18T14:49:58.848Z</time></trkpt><trkpt lat="43.7290506" lon="11.3158287"><ele>104.0</ele><time>2026-04-18T14:49:59.847Z</time></trkpt><trkpt lat="43.7289418" lon="11.3158071"><ele>104.99999999999999</ele><time>2026-04-18T14:50:00.841Z</time></trkpt><trkpt lat="43.728824" lon="11.3158078"><ele>106.0</ele><time>2026-04-18T14:50:01.823Z</time></trkpt><trkpt lat="43.7287063" lon="11.3158293"><ele>107.0</ele><time>2026-04-18T14:50:02.829Z</time></trkpt><trkpt lat="43.7286055" lon="11.3158118"><ele>108.83333333333333</ele><time>2026-04-18T14:50:03.836Z</time></trkpt><trkpt lat="43.7285119" lon="11.3158225"><ele>110.66666666666666</ele><time>2026-04-18T14:50:04.826Z</time></trkpt><trkpt lat="43.7284286" lon="11.315835"><ele>112.5</ele><time>2026-04-18T14:50:05.848Z</time></trkpt><trkpt lat="43.7283481" lon="11.3158604"><ele>114.33333333333334</ele><time>2026-04-18T14:50:06.846Z</time></trkpt><trkpt lat="43.7282652" lon="11.3158853"><ele>116.16666666666667</ele><time>2026-04-18T14:50:07.853Z</time></trkpt><trkpt lat="43.7281924" lon="11.3159253"><ele>118.0</ele><time>2026-04-18T14:50:08.825Z</time></trkpt><trkpt lat="43.7281123" lon="11.315964"><ele>118.00000000000001</ele><time>2026-04-18T14:50:09.827Z</time></trkpt><trkpt lat="43.7280318" lon="11.3159964"><ele>118.0</ele><time>2026-04-18T14:50:10.817Z</time></trkpt><trkpt lat="43.7279523" lon="11.3160183"><ele>118.0</ele><time>2026-04-18T14:50:11.821Z</time></trkpt><trkpt lat="43.7278584" lon="11.3160435"><ele>118.0</ele><time>2026-04-18T14:50:12.842Z</time></trkpt><trkpt lat="43.7277684" lon="11.3160637"><ele>118.00000000000001</ele><time>2026-04-18T14:50:13.842Z</time></trkpt><trkpt lat="43.7276772" lon="11.316102"><ele>118.0</ele><time>2026-04-18T14:50:14.843Z</time></trkpt><trkpt lat="43.7275902" lon="11.316126"><ele>119.16666666666667</ele><time>2026-04-18T14:50:15.841Z</time></trkpt><trkpt lat="43.7274981" lon="11.3161643"><ele>120.33333333333334</ele><time>2026-04-18T14:50:16.845Z</time></trkpt><trkpt lat="43.7274108" lon="11.3161826"><ele>121.5</ele><time>2026-04-18T14:50:17.851Z</time></trkpt><trkpt lat="43.7273223" lon="11.316217"><ele>122.66666666666666</ele><time>2026-04-18T14:50:18.847Z</time></trkpt><trkpt lat="43.7272416" lon="11.316275"><ele>123.83333333333333</ele><time>2026-04-18T14:50:19.848Z</time></trkpt><trkpt lat="43.7271704" lon="11.3163239"><ele>125.0</ele><time>2026-04-18T14:50:20.857Z</time></trkpt><trkpt lat="43.7271083" lon="11.3163644"><ele>124.6</ele><time>2026-04-18T14:50:21.848Z</time></trkpt><trkpt lat="43.7270269" lon="11.3164206"><ele>124.2</ele><time>2026-04-18T14:50:23.826Z</time></trkpt><trkpt lat="43.7269848" lon="11.3164932"><ele>123.80000000000001</ele><time>2026-04-18T14:50:32.863Z</time></trkpt><trkpt lat="43.7269303" lon="11.3165408"><ele>123.4</ele><time>2026-04-18T14:50:34.864Z</time></trkpt><trkpt lat="43.7268481" lon="11.3165946"><ele>123.0</ele><time>2026-04-18T14:50:36.865Z</time></trkpt><trkpt lat="43.7267199" lon="11.3166824"><ele>124.66666666666667</ele><time>2026-04-18T14:50:38.839Z</time></trkpt><trkpt lat="43.726656" lon="11.3167167"><ele>126.33333333333334</ele><time>2026-04-18T14:50:39.83Z</time></trkpt><trkpt lat="43.7265404" lon="11.3167812"><ele>128.0</ele><time>2026-04-18T14:50:41.831Z</time></trkpt><trkpt lat="43.7264784" lon="11.3168237"><ele>129.66666666666669</ele><time>2026-04-18T14:50:42.849Z</time></trkpt><trkpt lat="43.7264144" lon="11.3168722"><ele>131.33333333333334</ele><time>2026-04-18T14:50:43.866Z</time></trkpt><trkpt lat="43.7263444" lon="11.316926"><ele>133.0</ele><time>2026-04-18T14:50:44.849Z</time></trkpt><trkpt lat="43.7262832" lon="11.3169761"><ele>133.0</ele><time>2026-04-18T14:50:45.833Z</time></trkpt><trkpt lat="43.7262295" lon="11.3170359"><ele>133.0</ele><time>2026-04-18T14:50:46.829Z</time></trkpt><trkpt lat="43.7261839" lon="11.3170993"><ele>133.0</ele><time>2026-04-18T14:50:47.833Z</time></trkpt><trkpt lat="43.7261399" lon="11.3171713"><ele>133.0</ele><time>2026-04-18T14:50:48.851Z</time></trkpt><trkpt lat="43.7261053" lon="11.3172464"><ele>133.0</ele><time>2026-04-18T14:50:49.847Z</time></trkpt><trkpt lat="43.7260689" lon="11.3173413"><ele>133.0</ele><time>2026-04-18T14:50:50.858Z</time></trkpt><trkpt lat="43.7260333" lon="11.3174352"><ele>133.0</ele><time>2026-04-18T14:50:51.838Z</time></trkpt><trkpt lat="43.7259987" lon="11.3175221"><ele>132.42857142857142</ele><time>2026-04-18T14:50:52.831Z</time></trkpt><trkpt lat="43.725967" lon="11.3176115"><ele>131.85714285714286</ele><time>2026-04-18T14:50:53.836Z</time></trkpt><trkpt lat="43.7259332" lon="11.3176977"><ele>131.28571428571428</ele><time>2026-04-18T14:50:54.833Z</time></trkpt><trkpt lat="43.7258958" lon="11.3177721"><ele>130.71428571428572</ele><time>2026-04-18T14:50:55.846Z</time></trkpt><trkpt lat="43.7258481" lon="11.3178577"><ele>130.14285714285714</ele><time>2026-04-18T14:50:56.845Z</time></trkpt><trkpt lat="43.7257947" lon="11.317941"><ele>129.57142857142856</ele><time>2026-04-18T14:50:57.857Z</time></trkpt><trkpt lat="43.7257409" lon="11.3180169"><ele>129.0</ele><time>2026-04-18T14:50:58.846Z</time></trkpt><trkpt lat="43.7256975" lon="11.3181054"><ele>127.85714285714283</ele><time>2026-04-18T14:50:59.824Z</time></trkpt><trkpt lat="43.725664" lon="11.3181866"><ele>126.71428571428571</ele><time>2026-04-18T14:51:00.83Z</time></trkpt><trkpt lat="43.7256295" lon="11.3182649"><ele>125.57142857142856</ele><time>2026-04-18T14:51:01.83Z</time></trkpt><trkpt lat="43.7256008" lon="11.318352"><ele>124.42857142857142</ele><time>2026-04-18T14:51:02.856Z</time></trkpt><trkpt lat="43.7255756" lon="11.3184549"><ele>123.28571428571428</ele><time>2026-04-18T14:51:03.853Z</time></trkpt><trkpt lat="43.725549" lon="11.3185415"><ele>122.14285714285714</ele><time>2026-04-18T14:51:04.849Z</time></trkpt><trkpt lat="43.7255295" lon="11.3186294"><ele>121.0</ele><time>2026-04-18T14:51:05.86Z</time></trkpt><trkpt lat="43.725512" lon="11.3187277"><ele>121.00000000000001</ele><time>2026-04-18T14:51:06.855Z</time></trkpt><trkpt lat="43.7254443" lon="11.3188621"><ele>121.0</ele><time>2026-04-18T14:51:08.868Z</time></trkpt><trkpt lat="43.7254151" lon="11.3189424"><ele>121.0</ele><time>2026-04-18T14:51:09.829Z</time></trkpt><trkpt lat="43.7253857" lon="11.3190222"><ele>121.0</ele><time>2026-04-18T14:51:10.841Z</time></trkpt><trkpt lat="43.7253388" lon="11.3191262"><ele>121.00000000000001</ele><time>2026-04-18T14:51:12.829Z</time></trkpt><trkpt lat="43.7253304" lon="11.3192392"><ele>121.0</ele><time>2026-04-18T14:51:15.854Z</time></trkpt><trkpt lat="43.7253537" lon="11.3191246"><ele>121.0</ele><time>2026-04-18T14:51:41.782Z</time></trkpt><trkpt lat="43.725334" lon="11.3190217"><ele>121.0</ele><time>2026-04-18T14:51:43.772Z</time></trkpt><trkpt lat="43.7252959" lon="11.3189305"><ele>121.0</ele><time>2026-04-18T14:51:44.776Z</time></trkpt><trkpt lat="43.7252512" lon="11.3187775"><ele>121.0</ele><time>2026-04-18T14:51:46.772Z</time></trkpt><trkpt lat="43.7252006" lon="11.318637"><ele>121.0</ele><time>2026-04-18T14:51:48.777Z</time></trkpt><trkpt lat="43.7251508" lon="11.3184837"><ele>123.4</ele><time>2026-04-18T14:51:50.779Z</time></trkpt><trkpt lat="43.7251251" lon="11.3183968"><ele>125.8</ele><time>2026-04-18T14:51:51.77Z</time></trkpt><trkpt lat="43.7250975" lon="11.3183185"><ele>128.20000000000002</ele><time>2026-04-18T14:51:52.772Z</time></trkpt><trkpt lat="43.7250496" lon="11.31817"><ele>130.6</ele><time>2026-04-18T14:51:54.771Z</time></trkpt><trkpt lat="43.7250078" lon="11.318016"><ele>133.0</ele><time>2026-04-18T14:51:56.772Z</time></trkpt><trkpt lat="43.7249678" lon="11.3178818"><ele>133.5</ele><time>2026-04-18T14:51:58.78Z</time></trkpt><trkpt lat="43.7249295" lon="11.3177751"><ele>134.0</ele><time>2026-04-18T14:52:00.767Z</time></trkpt><trkpt lat="43.7248919" lon="11.3176761"><ele>134.5</ele><time>2026-04-18T14:52:02.77Z</time></trkpt><trkpt lat="43.7248577" lon="11.3175888"><ele>135.0</ele><time>2026-04-18T14:52:16.801Z</time></trkpt><trkpt lat="43.7248369" lon="11.3174858"><ele>135.5</ele><time>2026-04-18T14:52:19.775Z</time></trkpt><trkpt lat="43.7247785" lon="11.3173655"><ele>136.0</ele><time>2026-04-18T14:53:53.767Z</time></trkpt><trkpt lat="43.7247461" lon="11.3172222"><ele>139.2</ele><time>2026-04-18T14:53:55.764Z</time></trkpt><trkpt lat="43.7247241" lon="11.3170698"><ele>142.39999999999998</ele><time>2026-04-18T14:53:57.754Z</time></trkpt><trkpt lat="43.72469" lon="11.3169294"><ele>145.6</ele><time>2026-04-18T14:53:59.751Z</time></trkpt><trkpt lat="43.7246483" lon="11.3168079"><ele>148.79999999999998</ele><time>2026-04-18T14:54:01.747Z</time></trkpt><trkpt lat="43.7246247" lon="11.3166679"><ele>152.0</ele><time>2026-04-18T14:54:03.748Z</time></trkpt><trkpt lat="43.7245848" lon="11.3165554"><ele>152.0</ele><time>2026-04-18T14:54:05.75Z</time></trkpt><trkpt lat="43.7245368" lon="11.3164246"><ele>152.0</ele><time>2026-04-18T14:54:07.751Z</time></trkpt><trkpt lat="43.7245025" lon="11.3163056"><ele>152.0</ele><time>2026-04-18T14:54:09.749Z</time></trkpt><trkpt lat="43.7244706" lon="11.3161998"><ele>152.0</ele><time>2026-04-18T14:54:11.759Z</time></trkpt><trkpt lat="43.7244451" lon="11.3161035"><ele>152.0</ele><time>2026-04-18T14:54:13.764Z</time></trkpt><trkpt lat="43.7244913" lon="11.3160145"><ele>152.0</ele><time>2026-04-18T14:54:17.763Z</time></trkpt><trkpt lat="43.7245553" lon="11.3159955"><ele>153.85714285714286</ele><time>2026-04-18T14:54:34.759Z</time></trkpt><trkpt lat="43.7246145" lon="11.3159621"><ele>155.71428571428572</ele><time>2026-04-18T14:54:39.759Z</time></trkpt><trkpt lat="43.7245413" lon="11.3159629"><ele>157.57142857142858</ele><time>2026-04-18T14:54:48.77Z</time></trkpt><trkpt lat="43.7244846" lon="11.3160025"><ele>159.42857142857144</ele><time>2026-04-18T14:54:50.771Z</time></trkpt><trkpt lat="43.7244291" lon="11.3160483"><ele>161.28571428571428</ele><time>2026-04-18T14:55:16.783Z</time></trkpt><trkpt lat="43.7244019" lon="11.3159601"><ele>163.14285714285717</ele><time>2026-04-18T14:55:27.792Z</time></trkpt><trkpt lat="43.7243664" lon="11.3158556"><ele>165.0</ele><time>2026-04-18T14:55:29.79Z</time></trkpt><trkpt lat="43.7243362" lon="11.3157404"><ele>165.0</ele><time>2026-04-18T14:55:31.789Z</time></trkpt><trkpt lat="43.7242953" lon="11.3156203"><ele>165.0</ele><time>2026-04-18T14:55:33.785Z</time></trkpt><trkpt lat="43.7242785" lon="11.3155054"><ele>165.0</ele><time>2026-04-18T14:55:35.79Z</time></trkpt><trkpt lat="43.7242367" lon="11.3153839"><ele>165.0</ele><time>2026-04-18T14:55:37.782Z</time></trkpt><trkpt lat="43.7242064" lon="11.3152711"><ele>165.0</ele><time>2026-04-18T14:55:39.77Z</time></trkpt><trkpt lat="43.7241681" lon="11.3151579"><ele>166.66666666666666</ele><time>2026-04-18T14:55:41.781Z</time></trkpt><trkpt lat="43.7241332" lon="11.3150831"><ele>168.33333333333334</ele><time>2026-04-18T14:55:59.773Z</time></trkpt><trkpt lat="43.7240999" lon="11.3149643"><ele>170.0</ele><time>2026-04-18T14:56:02.78Z</time></trkpt><trkpt lat="43.7240727" lon="11.3148678"><ele>171.66666666666669</ele><time>2026-04-18T14:56:04.775Z</time></trkpt><trkpt lat="43.7240445" lon="11.3147606"><ele>173.33333333333334</ele><time>2026-04-18T14:56:06.779Z</time></trkpt><trkpt lat="43.7240037" lon="11.3146372"><ele>175.0</ele><time>2026-04-18T14:56:09.78Z</time></trkpt><trkpt lat="43.7239737" lon="11.3145526"><ele>176.42857142857142</ele><time>2026-04-18T14:56:11.768Z</time></trkpt><trkpt lat="43.7239468" lon="11.3144488"><ele>177.85714285714286</ele><time>2026-04-18T14:56:13.774Z</time></trkpt><trkpt lat="43.7238989" lon="11.3143919"><ele>179.28571428571428</ele><time>2026-04-18T14:56:15.772Z</time></trkpt><trkpt lat="43.7238291" lon="11.3144382"><ele>180.71428571428572</ele><time>2026-04-18T14:56:30.776Z</time></trkpt><trkpt lat="43.7238948" lon="11.3144008"><ele>182.14285714285714</ele><time>2026-04-18T14:56:40.772Z</time></trkpt><trkpt lat="43.7239613" lon="11.3144351"><ele>183.57142857142856</ele><time>2026-04-18T14:56:42.772Z</time></trkpt><trkpt lat="43.7240145" lon="11.3145223"><ele>185.0</ele><time>2026-04-18T14:56:45.769Z</time></trkpt><trkpt lat="43.7240991" lon="11.3145429"><ele>185.0</ele><time>2026-04-18T14:56:48.759Z</time></trkpt><trkpt lat="43.724173" lon="11.3145209"><ele>185.0</ele><time>2026-04-18T14:56:50.755Z</time></trkpt><trkpt lat="43.7242537" lon="11.3144601"><ele>185.0</ele><time>2026-04-18T14:56:52.753Z</time></trkpt><trkpt lat="43.7243257" lon="11.314384"><ele>185.0</ele><time>2026-04-18T14:56:54.756Z</time></trkpt><trkpt lat="43.72441" lon="11.3143594"><ele>185.0</ele><time>2026-04-18T14:56:57.771Z</time></trkpt><trkpt lat="43.7244777" lon="11.3144413"><ele>185.0</ele><time>2026-04-18T14:56:59.761Z</time></trkpt><trkpt lat="43.7245564" lon="11.3145278"><ele>186.0</ele><time>2026-04-18T14:57:01.762Z</time></trkpt><trkpt lat="43.7246305" lon="11.3146064"><ele>187.0</ele><time>2026-04-18T14:57:03.758Z</time></trkpt><trkpt lat="43.7246775" lon="11.3146827"><ele>188.0</ele><time>2026-04-18T14:57:05.764Z</time></trkpt><trkpt lat="43.7246419" lon="11.3145885"><ele>189.0</ele><time>2026-04-18T14:58:07.776Z</time></trkpt><trkpt lat="43.7245687" lon="11.3145077"><ele>190.0</ele><time>2026-04-18T14:58:09.77Z</time></trkpt><trkpt lat="43.7244709" lon="11.3144153"><ele>190.0</ele><time>2026-04-18T14:58:11.753Z</time></trkpt><trkpt lat="43.7244229" lon="11.3143502"><ele>190.0</ele><time>2026-04-18T14:58:12.759Z</time></trkpt><trkpt lat="43.7243462" lon="11.3143191"><ele>190.0</ele><time>2026-04-18T14:58:14.763Z</time></trkpt><trkpt lat="43.7242456" lon="11.3143749"><ele>190.0</ele><time>2026-04-18T14:58:16.747Z</time></trkpt><trkpt lat="43.7241857" lon="11.3144272"><ele>190.0</ele><time>2026-04-18T14:58:17.744Z</time></trkpt><trkpt lat="43.7240943" lon="11.3144821"><ele>190.0</ele><time>2026-04-18T14:58:19.741Z</time></trkpt><trkpt lat="43.7240133" lon="11.3144943"><ele>189.16666666666669</ele><time>2026-04-18T14:58:21.76Z</time></trkpt><trkpt lat="43.7239494" lon="11.314449"><ele>188.33333333333334</ele><time>2026-04-18T14:58:23.763Z</time></trkpt><trkpt lat="43.7239162" lon="11.3143599"><ele>187.5</ele><time>2026-04-18T14:58:25.762Z</time></trkpt><trkpt lat="43.723878" lon="11.314259"><ele>186.66666666666666</ele><time>2026-04-18T14:58:27.759Z</time></trkpt><trkpt lat="43.7238055" lon="11.3142314"><ele>185.83333333333331</ele><time>2026-04-18T14:58:30.76Z</time></trkpt><trkpt lat="43.7237358" lon="11.314235"><ele>185.0</ele><time>2026-04-18T14:58:31.752Z</time></trkpt><trkpt lat="43.7236573" lon="11.31423"><ele>185.0</ele><time>2026-04-18T14:58:32.738Z</time></trkpt><trkpt lat="43.7235778" lon="11.3142331"><ele>185.0</ele><time>2026-04-18T14:58:34.757Z</time></trkpt><trkpt lat="43.7234898" lon="11.3142524"><ele>185.0</ele><time>2026-04-18T14:58:53.784Z</time></trkpt><trkpt lat="43.7233902" lon="11.314363"><ele>185.0</ele><time>2026-04-18T14:58:55.773Z</time></trkpt><trkpt lat="43.7233104" lon="11.3144373"><ele>185.0</ele><time>2026-04-18T14:58:56.788Z</time></trkpt><trkpt lat="43.7232402" lon="11.3145028"><ele>184.33333333333331</ele><time>2026-04-18T14:58:57.787Z</time></trkpt><trkpt lat="43.7231846" lon="11.3145584"><ele>183.66666666666666</ele><time>2026-04-18T14:58:58.801Z</time></trkpt><trkpt lat="43.7231363" lon="11.314626"><ele>183.0</ele><time>2026-04-18T14:58:59.784Z</time></trkpt><trkpt lat="43.7230833" lon="11.3147019"><ele>182.33333333333334</ele><time>2026-04-18T14:59:00.792Z</time></trkpt><trkpt lat="43.7230233" lon="11.3147908"><ele>181.66666666666669</ele><time>2026-04-18T14:59:01.788Z</time></trkpt><trkpt lat="43.722964" lon="11.3148874"><ele>181.0</ele><time>2026-04-18T14:59:02.792Z</time></trkpt><trkpt lat="43.7229054" lon="11.3149923"><ele>180.66666666666669</ele><time>2026-04-18T14:59:03.792Z</time></trkpt><trkpt lat="43.7228452" lon="11.3150836"><ele>180.33333333333334</ele><time>2026-04-18T14:59:04.784Z</time></trkpt><trkpt lat="43.7227898" lon="11.3151579"><ele>180.0</ele><time>2026-04-18T14:59:05.785Z</time></trkpt><trkpt lat="43.722743" lon="11.3152246"><ele>179.66666666666666</ele><time>2026-04-18T14:59:06.796Z</time></trkpt><trkpt lat="43.722664" lon="11.3153403"><ele>179.33333333333331</ele><time>2026-04-18T14:59:08.794Z</time></trkpt><trkpt lat="43.7225887" lon="11.3154254"><ele>179.0</ele><time>2026-04-18T14:59:10.792Z</time></trkpt><trkpt lat="43.7225268" lon="11.315463"><ele>179.2</ele><time>2026-04-18T14:59:11.788Z</time></trkpt><trkpt lat="43.7224556" lon="11.3154849"><ele>179.39999999999998</ele><time>2026-04-18T14:59:12.784Z</time></trkpt><trkpt lat="43.7223778" lon="11.3155132"><ele>179.6</ele><time>2026-04-18T14:59:13.78Z</time></trkpt><trkpt lat="43.7222861" lon="11.315528"><ele>179.8</ele><time>2026-04-18T14:59:14.775Z</time></trkpt><trkpt lat="43.7221793" lon="11.3155485"><ele>180.0</ele><time>2026-04-18T14:59:15.851Z</time></trkpt><trkpt lat="43.7220655" lon="11.3155719"><ele>180.0</ele><time>2026-04-18T14:59:16.836Z</time></trkpt><trkpt lat="43.7219569" lon="11.3155982"><ele>180.0</ele><time>2026-04-18T14:59:17.848Z</time></trkpt><trkpt lat="43.7218496" lon="11.3156275"><ele>180.0</ele><time>2026-04-18T14:59:18.831Z</time></trkpt><trkpt lat="43.7217445" lon="11.3156529"><ele>180.0</ele><time>2026-04-18T14:59:19.835Z</time></trkpt><trkpt lat="43.7216421" lon="11.3156803"><ele>180.0</ele><time>2026-04-18T14:59:20.843Z</time></trkpt><trkpt lat="43.7215477" lon="11.3157101"><ele>179.6</ele><time>2026-04-18T14:59:21.832Z</time></trkpt><trkpt lat="43.7214633" lon="11.3157415"><ele>179.2</ele><time>2026-04-18T14:59:22.857Z</time></trkpt><trkpt lat="43.7213884" lon="11.3157861"><ele>178.8</ele><time>2026-04-18T14:59:23.854Z</time></trkpt><trkpt lat="43.7213222" lon="11.315853"><ele>178.4</ele><time>2026-04-18T14:59:24.845Z</time></trkpt><trkpt lat="43.72128" lon="11.315918"><ele>178.0</ele><time>2026-04-18T14:59:25.847Z</time></trkpt><trkpt lat="43.7211375" lon="11.3161467"><ele>178.0</ele><time>2026-04-18T14:59:27.748Z</time></trkpt><trkpt lat="43.7210891" lon="11.3162111"><ele>178.0</ele><time>2026-04-18T14:59:28.743Z</time></trkpt><trkpt lat="43.7210004" lon="11.3162983"><ele>178.0</ele><time>2026-04-18T14:59:30.755Z</time></trkpt><trkpt lat="43.7209184" lon="11.3163851"><ele>178.0</ele><time>2026-04-18T14:59:32.759Z</time></trkpt><trkpt lat="43.7208466" lon="11.3165066"><ele>178.0</ele><time>2026-04-18T14:59:34.753Z</time></trkpt><trkpt lat="43.7208288" lon="11.3166"><ele>177.5</ele><time>2026-04-18T14:59:35.769Z</time></trkpt><trkpt lat="43.7208335" lon="11.3167056"><ele>177.0</ele><time>2026-04-18T14:59:36.769Z</time></trkpt><trkpt lat="43.7208445" lon="11.316822"><ele>176.5</ele><time>2026-04-18T14:59:37.771Z</time></trkpt><trkpt lat="43.7208445" lon="11.3169437"><ele>176.0</ele><time>2026-04-18T14:59:38.772Z</time></trkpt><trkpt lat="43.7208364" lon="11.3170553"><ele>175.5</ele><time>2026-04-18T14:59:39.756Z</time></trkpt><trkpt lat="43.7208239" lon="11.3171893"><ele>175.0</ele><time>2026-04-18T14:59:40.764Z</time></trkpt><trkpt lat="43.7208019" lon="11.3173507"><ele>175.0</ele><time>2026-04-18T14:59:41.761Z</time></trkpt><trkpt lat="43.7207767" lon="11.3175336"><ele>175.0</ele><time>2026-04-18T14:59:42.768Z</time></trkpt><trkpt lat="43.7207394" lon="11.3177061"><ele>175.0</ele><time>2026-04-18T14:59:43.768Z</time></trkpt><trkpt lat="43.7206888" lon="11.3178742"><ele>175.0</ele><time>2026-04-18T14:59:44.769Z</time></trkpt><trkpt lat="43.7206393" lon="11.3180485"><ele>175.25</ele><time>2026-04-18T14:59:45.771Z</time></trkpt><trkpt lat="43.7206072" lon="11.3182446"><ele>175.5</ele><time>2026-04-18T14:59:46.766Z</time></trkpt><trkpt lat="43.7205764" lon="11.3184352"><ele>175.75</ele><time>2026-04-18T14:59:47.768Z</time></trkpt><trkpt lat="43.7205392" lon="11.3186104"><ele>176.0</ele><time>2026-04-18T14:59:48.769Z</time></trkpt><trkpt lat="43.7205003" lon="11.3187701"><ele>175.0</ele><time>2026-04-18T14:59:49.771Z</time></trkpt><trkpt lat="43.7204705" lon="11.3189068"><ele>174.0</ele><time>2026-04-18T14:59:50.769Z</time></trkpt><trkpt lat="43.7204116" lon="11.3190371"><ele>173.0</ele><time>2026-04-18T14:59:51.765Z</time></trkpt><trkpt lat="43.7203523" lon="11.3191761"><ele>172.0</ele><time>2026-04-18T14:59:52.771Z</time></trkpt><trkpt lat="43.7202839" lon="11.3193049"><ele>171.0</ele><time>2026-04-18T14:59:53.767Z</time></trkpt><trkpt lat="43.7202168" lon="11.3194067"><ele>170.4</ele><time>2026-04-18T14:59:54.769Z</time></trkpt><trkpt lat="43.7201458" lon="11.3195055"><ele>169.8</ele><time>2026-04-18T14:59:55.78Z</time></trkpt><trkpt lat="43.7200695" lon="11.3195951"><ele>169.20000000000002</ele><time>2026-04-18T14:59:56.774Z</time></trkpt><trkpt lat="43.7199955" lon="11.3196871"><ele>168.60000000000002</ele><time>2026-04-18T14:59:57.765Z</time></trkpt><trkpt lat="43.7199256" lon="11.3197782"><ele>168.0</ele><time>2026-04-18T14:59:58.773Z</time></trkpt><trkpt lat="43.7198646" lon="11.3198788"><ele>167.8</ele><time>2026-04-18T14:59:59.773Z</time></trkpt><trkpt lat="43.719789" lon="11.3199787"><ele>167.60000000000002</ele><time>2026-04-18T15:00:00.794Z</time></trkpt><trkpt lat="43.7197073" lon="11.3200811"><ele>167.39999999999998</ele><time>2026-04-18T15:00:01.759Z</time></trkpt><trkpt lat="43.7196326" lon="11.3201842"><ele>167.2</ele><time>2026-04-18T15:00:02.767Z</time></trkpt><trkpt lat="43.7195592" lon="11.3202708"><ele>167.0</ele><time>2026-04-18T15:00:03.759Z</time></trkpt><trkpt lat="43.7195018" lon="11.3203423"><ele>167.0</ele><time>2026-04-18T15:00:04.756Z</time></trkpt><trkpt lat="43.7194312" lon="11.3204635"><ele>167.0</ele><time>2026-04-18T15:00:06.758Z</time></trkpt><trkpt lat="43.7193892" lon="11.3205348"><ele>167.0</ele><time>2026-04-18T15:00:08.758Z</time></trkpt><trkpt lat="43.7193662" lon="11.320634"><ele>167.0</ele><time>2026-04-18T15:00:14.768Z</time></trkpt><trkpt lat="43.7193078" lon="11.3207042"><ele>167.0</ele><time>2026-04-18T15:00:16.756Z</time></trkpt><trkpt lat="43.7192563" lon="11.3207589"><ele>167.0</ele><time>2026-04-18T15:00:17.754Z</time></trkpt><trkpt lat="43.7192044" lon="11.3208225"><ele>167.5</ele><time>2026-04-18T15:00:18.751Z</time></trkpt><trkpt lat="43.7191482" lon="11.3209096"><ele>168.0</ele><time>2026-04-18T15:00:19.747Z</time></trkpt><trkpt lat="43.7190862" lon="11.3210022"><ele>168.5</ele><time>2026-04-18T15:00:20.75Z</time></trkpt><trkpt lat="43.7190183" lon="11.3210954"><ele>169.0</ele><time>2026-04-18T15:00:21.757Z</time></trkpt><trkpt lat="43.7189496" lon="11.3211697"><ele>169.5</ele><time>2026-04-18T15:00:22.755Z</time></trkpt><trkpt lat="43.71888" lon="11.3212381"><ele>170.0</ele><time>2026-04-18T15:00:23.76Z</time></trkpt><trkpt lat="43.7188102" lon="11.3212814"><ele>170.0</ele><time>2026-04-18T15:00:24.761Z</time></trkpt><trkpt lat="43.7187317" lon="11.3213126"><ele>170.0</ele><time>2026-04-18T15:00:25.75Z</time></trkpt><trkpt lat="43.7186424" lon="11.3213531"><ele>170.0</ele><time>2026-04-18T15:00:26.749Z</time></trkpt><trkpt lat="43.7185409" lon="11.321397"><ele>170.0</ele><time>2026-04-18T15:00:27.754Z</time></trkpt><trkpt lat="43.7184251" lon="11.3214427"><ele>170.0</ele><time>2026-04-18T15:00:28.758Z</time></trkpt><trkpt lat="43.7183127" lon="11.3214969"><ele>171.25</ele><time>2026-04-18T15:00:29.757Z</time></trkpt><trkpt lat="43.7181872" lon="11.3215554"><ele>172.5</ele><time>2026-04-18T15:00:30.763Z</time></trkpt><trkpt lat="43.7180537" lon="11.3215932"><ele>173.75</ele><time>2026-04-18T15:00:31.765Z</time></trkpt><trkpt lat="43.7179108" lon="11.3216203"><ele>175.0</ele><time>2026-04-18T15:00:32.749Z</time></trkpt><trkpt lat="43.7177639" lon="11.3216244"><ele>174.25</ele><time>2026-04-18T15:00:33.754Z</time></trkpt><trkpt lat="43.717642" lon="11.3216461"><ele>173.5</ele><time>2026-04-18T15:00:34.753Z</time></trkpt><trkpt lat="43.7175177" lon="11.3216833"><ele>172.75</ele><time>2026-04-18T15:00:35.753Z</time></trkpt><trkpt lat="43.7174075" lon="11.321734"><ele>172.0</ele><time>2026-04-18T15:00:36.759Z</time></trkpt><trkpt lat="43.7173313" lon="11.3217935"><ele>172.0</ele><time>2026-04-18T15:00:37.757Z</time></trkpt><trkpt lat="43.7172625" lon="11.3218601"><ele>172.0</ele><time>2026-04-18T15:00:38.771Z</time></trkpt><trkpt lat="43.7171971" lon="11.3219337"><ele>172.0</ele><time>2026-04-18T15:00:39.755Z</time></trkpt><trkpt lat="43.7171162" lon="11.3220071"><ele>172.0</ele><time>2026-04-18T15:00:40.757Z</time></trkpt><trkpt lat="43.717044" lon="11.3220948"><ele>172.0</ele><time>2026-04-18T15:00:41.769Z</time></trkpt><trkpt lat="43.7169619" lon="11.3222125"><ele>172.25</ele><time>2026-04-18T15:00:42.761Z</time></trkpt><trkpt lat="43.7168826" lon="11.3223445"><ele>172.5</ele><time>2026-04-18T15:00:43.766Z</time></trkpt><trkpt lat="43.7167972" lon="11.3224918"><ele>172.75</ele><time>2026-04-18T15:00:44.772Z</time></trkpt><trkpt lat="43.7167009" lon="11.3226477"><ele>173.0</ele><time>2026-04-18T15:00:45.757Z</time></trkpt><trkpt lat="43.7166057" lon="11.3227966"><ele>173.0</ele><time>2026-04-18T15:00:46.754Z</time></trkpt><trkpt lat="43.7164909" lon="11.3229585"><ele>173.0</ele><time>2026-04-18T15:00:47.761Z</time></trkpt><trkpt lat="43.7163825" lon="11.3231065"><ele>173.0</ele><time>2026-04-18T15:00:48.762Z</time></trkpt><trkpt lat="43.7162676" lon="11.3232488"><ele>174.0</ele><time>2026-04-18T15:00:49.759Z</time></trkpt><trkpt lat="43.7161717" lon="11.3233833"><ele>175.0</ele><time>2026-04-18T15:00:50.75Z</time></trkpt><trkpt lat="43.7160769" lon="11.3235044"><ele>176.0</ele><time>2026-04-18T15:00:51.754Z</time></trkpt><trkpt lat="43.7159692" lon="11.3236553"><ele>177.0</ele><time>2026-04-18T15:00:52.751Z</time></trkpt><trkpt lat="43.7158594" lon="11.32379"><ele>177.75</ele><time>2026-04-18T15:00:53.757Z</time></trkpt><trkpt lat="43.7157622" lon="11.3239135"><ele>178.5</ele><time>2026-04-18T15:00:54.748Z</time></trkpt><trkpt lat="43.7156792" lon="11.3240241"><ele>179.25</ele><time>2026-04-18T15:00:55.765Z</time></trkpt><trkpt lat="43.7156062" lon="11.3241474"><ele>180.0</ele><time>2026-04-18T15:00:56.759Z</time></trkpt><trkpt lat="43.7155385" lon="11.3242563"><ele>180.0</ele><time>2026-04-18T15:00:57.747Z</time></trkpt><trkpt lat="43.7154864" lon="11.3243576"><ele>180.0</ele><time>2026-04-18T15:00:58.761Z</time></trkpt><trkpt lat="43.7154613" lon="11.3244384"><ele>180.0</ele><time>2026-04-18T15:00:59.752Z</time></trkpt><trkpt lat="43.7154296" lon="11.3245574"><ele>180.0</ele><time>2026-04-18T15:01:21.779Z</time></trkpt><trkpt lat="43.7153849" lon="11.3246993"><ele>180.0</ele><time>2026-04-18T15:01:23.778Z</time></trkpt><trkpt lat="43.7153584" lon="11.3247858"><ele>180.0</ele><time>2026-04-18T15:01:24.783Z</time></trkpt><trkpt lat="43.715326" lon="11.3248762"><ele>180.0</ele><time>2026-04-18T15:01:25.788Z</time></trkpt><trkpt lat="43.7152957" lon="11.3249592"><ele>180.0</ele><time>2026-04-18T15:01:26.789Z</time></trkpt><trkpt lat="43.7152597" lon="11.3250523"><ele>180.0</ele><time>2026-04-18T15:01:27.778Z</time></trkpt><trkpt lat="43.7152338" lon="11.325136"><ele>180.0</ele><time>2026-04-18T15:01:28.783Z</time></trkpt><trkpt lat="43.7152014" lon="11.3252319"><ele>180.0</ele><time>2026-04-18T15:01:29.774Z</time></trkpt><trkpt lat="43.7151601" lon="11.3253179"><ele>180.0</ele><time>2026-04-18T15:01:30.783Z</time></trkpt><trkpt lat="43.7150762" lon="11.3254492"><ele>180.0</ele><time>2026-04-18T15:01:32.776Z</time></trkpt><trkpt lat="43.7150308" lon="11.325518"><ele>180.0</ele><time>2026-04-18T15:01:33.793Z</time></trkpt><trkpt lat="43.7149795" lon="11.3255874"><ele>180.0</ele><time>2026-04-18T15:01:34.773Z</time></trkpt><trkpt lat="43.7149362" lon="11.3256582"><ele>180.0</ele><time>2026-04-18T15:01:35.771Z</time></trkpt><trkpt lat="43.7148802" lon="11.3257512"><ele>180.0</ele><time>2026-04-18T15:01:36.772Z</time></trkpt><trkpt lat="43.7148083" lon="11.3258364"><ele>180.0</ele><time>2026-04-18T15:01:37.779Z</time></trkpt><trkpt lat="43.7147255" lon="11.3259152"><ele>180.4</ele><time>2026-04-18T15:01:38.779Z</time></trkpt><trkpt lat="43.7146412" lon="11.3259919"><ele>180.8</ele><time>2026-04-18T15:01:39.772Z</time></trkpt><trkpt lat="43.7145615" lon="11.3260815"><ele>181.2</ele><time>2026-04-18T15:01:40.844Z</time></trkpt><trkpt lat="43.7144886" lon="11.3261686"><ele>181.6</ele><time>2026-04-18T15:01:41.85Z</time></trkpt><trkpt lat="43.7144073" lon="11.3262527"><ele>182.0</ele><time>2026-04-18T15:01:42.765Z</time></trkpt><trkpt lat="43.7143152" lon="11.3263357"><ele>183.5</ele><time>2026-04-18T15:01:43.764Z</time></trkpt><trkpt lat="43.7142119" lon="11.3264091"><ele>185.0</ele><time>2026-04-18T15:01:44.761Z</time></trkpt><trkpt lat="43.7140945" lon="11.326466"><ele>186.5</ele><time>2026-04-18T15:01:45.773Z</time></trkpt><trkpt lat="43.7139665" lon="11.3265311"><ele>188.0</ele><time>2026-04-18T15:01:46.767Z</time></trkpt><trkpt lat="43.7138367" lon="11.3266145"><ele>188.0</ele><time>2026-04-18T15:01:47.771Z</time></trkpt><trkpt lat="43.7137153" lon="11.3267005"><ele>188.0</ele><time>2026-04-18T15:01:48.769Z</time></trkpt><trkpt lat="43.7135957" lon="11.3268067"><ele>188.0</ele><time>2026-04-18T15:01:49.763Z</time></trkpt><trkpt lat="43.7134788" lon="11.3269135"><ele>188.0</ele><time>2026-04-18T15:01:50.767Z</time></trkpt><trkpt lat="43.7133547" lon="11.3270193"><ele>188.4</ele><time>2026-04-18T15:01:51.767Z</time></trkpt><trkpt lat="43.7132518" lon="11.3271002"><ele>188.8</ele><time>2026-04-18T15:01:52.762Z</time></trkpt><trkpt lat="43.7131691" lon="11.3271561"><ele>189.2</ele><time>2026-04-18T15:01:53.767Z</time></trkpt><trkpt lat="43.7130924" lon="11.3272405"><ele>189.6</ele><time>2026-04-18T15:01:54.759Z</time></trkpt><trkpt lat="43.7130057" lon="11.3273446"><ele>190.0</ele><time>2026-04-18T15:01:55.772Z</time></trkpt><trkpt lat="43.7129094" lon="11.3274644"><ele>190.4</ele><time>2026-04-18T15:01:56.766Z</time></trkpt><trkpt lat="43.7128157" lon="11.3275823"><ele>190.8</ele><time>2026-04-18T15:01:57.768Z</time></trkpt><trkpt lat="43.7127326" lon="11.327668"><ele>191.2</ele><time>2026-04-18T15:01:58.761Z</time></trkpt><trkpt lat="43.7126548" lon="11.3277355"><ele>191.6</ele><time>2026-04-18T15:01:59.756Z</time></trkpt><trkpt lat="43.7125808" lon="11.3277858"><ele>192.0</ele><time>2026-04-18T15:02:00.767Z</time></trkpt><trkpt lat="43.7125189" lon="11.3278333"><ele>192.0</ele><time>2026-04-18T15:02:01.763Z</time></trkpt><trkpt lat="43.712462" lon="11.327909"><ele>192.0</ele><time>2026-04-18T15:02:02.76Z</time></trkpt><trkpt lat="43.7124016" lon="11.3279999"><ele>192.0</ele><time>2026-04-18T15:02:03.767Z</time></trkpt><trkpt lat="43.7123135" lon="11.328124"><ele>192.0</ele><time>2026-04-18T15:02:04.788Z</time></trkpt><trkpt lat="43.7122154" lon="11.3282518"><ele>192.0</ele><time>2026-04-18T15:02:05.773Z</time></trkpt><trkpt lat="43.7121262" lon="11.3283672"><ele>192.33333333333334</ele><time>2026-04-18T15:02:06.77Z</time></trkpt><trkpt lat="43.7120562" lon="11.3284649"><ele>192.66666666666669</ele><time>2026-04-18T15:02:07.767Z</time></trkpt><trkpt lat="43.7119917" lon="11.3285526"><ele>193.0</ele><time>2026-04-18T15:02:08.766Z</time></trkpt><trkpt lat="43.7119411" lon="11.3286366"><ele>193.33333333333334</ele><time>2026-04-18T15:02:09.769Z</time></trkpt><trkpt lat="43.7119032" lon="11.3287217"><ele>193.66666666666669</ele><time>2026-04-18T15:02:10.757Z</time></trkpt><trkpt lat="43.7118695" lon="11.3288179"><ele>194.0</ele><time>2026-04-18T15:02:11.754Z</time></trkpt><trkpt lat="43.7118419" lon="11.3289185"><ele>194.50000000000003</ele><time>2026-04-18T15:02:12.77Z</time></trkpt><trkpt lat="43.7118174" lon="11.3290068"><ele>195.0</ele><time>2026-04-18T15:02:13.77Z</time></trkpt><trkpt lat="43.7117305" lon="11.3291"><ele>195.5</ele><time>2026-04-18T15:02:15.764Z</time></trkpt><trkpt lat="43.7116672" lon="11.3290946"><ele>196.0</ele><time>2026-04-18T15:02:16.763Z</time></trkpt><trkpt lat="43.7115897" lon="11.3290759"><ele>196.50000000000003</ele><time>2026-04-18T15:02:17.771Z</time></trkpt><trkpt lat="43.7115032" lon="11.3290513"><ele>197.0</ele><time>2026-04-18T15:02:18.771Z</time></trkpt><trkpt lat="43.7114145" lon="11.329032"><ele>197.0</ele><time>2026-04-18T15:02:19.776Z</time></trkpt><trkpt lat="43.7113177" lon="11.3290126"><ele>197.0</ele><time>2026-04-18T15:02:20.785Z</time></trkpt><trkpt lat="43.7112181" lon="11.3289892"><ele>197.0</ele><time>2026-04-18T15:02:21.784Z</time></trkpt><trkpt lat="43.7111185" lon="11.3289747"><ele>197.0</ele><time>2026-04-18T15:02:22.79Z</time></trkpt><trkpt lat="43.7110219" lon="11.3289698"><ele>197.0</ele><time>2026-04-18T15:02:23.777Z</time></trkpt><trkpt lat="43.7109278" lon="11.3289636"><ele>198.8</ele><time>2026-04-18T15:02:24.786Z</time></trkpt><trkpt lat="43.7108339" lon="11.3289505"><ele>200.6</ele><time>2026-04-18T15:02:25.784Z</time></trkpt><trkpt lat="43.7107348" lon="11.3289371"><ele>202.4</ele><time>2026-04-18T15:02:26.783Z</time></trkpt><trkpt lat="43.7106358" lon="11.3289257"><ele>204.20000000000002</ele><time>2026-04-18T15:02:27.785Z</time></trkpt><trkpt lat="43.7105387" lon="11.3289116"><ele>206.0</ele><time>2026-04-18T15:02:28.779Z</time></trkpt><trkpt lat="43.7104423" lon="11.3288989"><ele>206.4</ele><time>2026-04-18T15:02:29.781Z</time></trkpt><trkpt lat="43.7103453" lon="11.3288907"><ele>206.8</ele><time>2026-04-18T15:02:30.773Z</time></trkpt><trkpt lat="43.7102557" lon="11.3288793"><ele>207.20000000000002</ele><time>2026-04-18T15:02:31.782Z</time></trkpt><trkpt lat="43.7101779" lon="11.3288651"><ele>207.60000000000002</ele><time>2026-04-18T15:02:32.779Z</time></trkpt><trkpt lat="43.7100826" lon="11.3288279"><ele>208.0</ele><time>2026-04-18T15:02:34.767Z</time></trkpt><trkpt lat="43.7100916" lon="11.3287042"><ele>207.99999999999997</ele><time>2026-04-18T15:02:38.792Z</time></trkpt><trkpt lat="43.7101268" lon="11.3286143"><ele>208.0</ele><time>2026-04-18T15:02:40.784Z</time></trkpt><trkpt lat="43.7101798" lon="11.3285189"><ele>208.0</ele><time>2026-04-18T15:02:42.782Z</time></trkpt><trkpt lat="43.7102381" lon="11.3284225"><ele>208.0</ele><time>2026-04-18T15:02:44.787Z</time></trkpt><trkpt lat="43.710292" lon="11.3283251"><ele>207.99999999999997</ele><time>2026-04-18T15:02:47.784Z</time></trkpt><trkpt lat="43.7103528" lon="11.3282587"><ele>208.0</ele><time>2026-04-18T15:02:50.777Z</time></trkpt><trkpt lat="43.7103885" lon="11.3281756"><ele>208.0</ele><time>2026-04-18T15:03:55.805Z</time></trkpt><trkpt lat="43.7104436" lon="11.3280431"><ele>208.0</ele><time>2026-04-18T15:03:57.795Z</time></trkpt><trkpt lat="43.7104813" lon="11.3279322"><ele>208.0</ele><time>2026-04-18T15:03:58.773Z</time></trkpt><trkpt lat="43.7105178" lon="11.3278174"><ele>208.0</ele><time>2026-04-18T15:03:59.783Z</time></trkpt><trkpt lat="43.7105522" lon="11.3277107"><ele>208.0</ele><time>2026-04-18T15:04:00.782Z</time></trkpt><trkpt lat="43.7105865" lon="11.3276068"><ele>208.0</ele><time>2026-04-18T15:04:01.779Z</time></trkpt><trkpt lat="43.7106265" lon="11.3274894"><ele>208.0</ele><time>2026-04-18T15:04:02.775Z</time></trkpt><trkpt lat="43.7106706" lon="11.3273486"><ele>208.0</ele><time>2026-04-18T15:04:03.779Z</time></trkpt><trkpt lat="43.7107175" lon="11.3271918"><ele>208.0</ele><time>2026-04-18T15:04:04.776Z</time></trkpt><trkpt lat="43.71077" lon="11.3270211"><ele>208.5</ele><time>2026-04-18T15:04:05.777Z</time></trkpt><trkpt lat="43.7108154" lon="11.3268517"><ele>209.0</ele><time>2026-04-18T15:04:06.775Z</time></trkpt><trkpt lat="43.7108508" lon="11.3266855"><ele>209.5</ele><time>2026-04-18T15:04:07.795Z</time></trkpt><trkpt lat="43.7108848" lon="11.3265276"><ele>210.0</ele><time>2026-04-18T15:04:08.782Z</time></trkpt><trkpt lat="43.7109277" lon="11.3263605"><ele>210.5</ele><time>2026-04-18T15:04:09.779Z</time></trkpt><trkpt lat="43.7109795" lon="11.3261976"><ele>211.0</ele><time>2026-04-18T15:04:10.781Z</time></trkpt><trkpt lat="43.7110329" lon="11.3260378"><ele>211.5</ele><time>2026-04-18T15:04:11.783Z</time></trkpt><trkpt lat="43.7110873" lon="11.3258876"><ele>212.0</ele><time>2026-04-18T15:04:12.779Z</time></trkpt><trkpt lat="43.711143" lon="11.3257492"><ele>211.0</ele><time>2026-04-18T15:04:13.781Z</time></trkpt><trkpt lat="43.7111937" lon="11.3256043"><ele>210.0</ele><time>2026-04-18T15:04:14.775Z</time></trkpt><trkpt lat="43.7112436" lon="11.3254559"><ele>209.0</ele><time>2026-04-18T15:04:15.781Z</time></trkpt><trkpt lat="43.7112912" lon="11.3252827"><ele>208.0</ele><time>2026-04-18T15:04:16.786Z</time></trkpt><trkpt lat="43.7113449" lon="11.325093"><ele>208.0</ele><time>2026-04-18T15:04:17.77Z</time></trkpt><trkpt lat="43.7114067" lon="11.3248916"><ele>208.0</ele><time>2026-04-18T15:04:18.781Z</time></trkpt><trkpt lat="43.7114634" lon="11.3247027"><ele>208.0</ele><time>2026-04-18T15:04:19.781Z</time></trkpt><trkpt lat="43.7115169" lon="11.3245286"><ele>208.0</ele><time>2026-04-18T15:04:20.781Z</time></trkpt><trkpt lat="43.7115673" lon="11.3243581"><ele>207.75</ele><time>2026-04-18T15:04:21.782Z</time></trkpt><trkpt lat="43.7116099" lon="11.3241974"><ele>207.5</ele><time>2026-04-18T15:04:22.782Z</time></trkpt><trkpt lat="43.7116584" lon="11.3240395"><ele>207.25</ele><time>2026-04-18T15:04:23.779Z</time></trkpt><trkpt lat="43.7117077" lon="11.3238801"><ele>207.0</ele><time>2026-04-18T15:04:24.788Z</time></trkpt><trkpt lat="43.7117562" lon="11.3237119"><ele>207.0</ele><time>2026-04-18T15:04:25.778Z</time></trkpt><trkpt lat="43.7118112" lon="11.3235301"><ele>207.0</ele><time>2026-04-18T15:04:26.78Z</time></trkpt><trkpt lat="43.7118664" lon="11.3233585"><ele>207.0</ele><time>2026-04-18T15:04:27.77Z</time></trkpt><trkpt lat="43.7119203" lon="11.3231976"><ele>207.0</ele><time>2026-04-18T15:04:28.779Z</time></trkpt><trkpt lat="43.7119715" lon="11.3230377"><ele>204.66666666666669</ele><time>2026-04-18T15:04:29.776Z</time></trkpt><trkpt lat="43.7120188" lon="11.3228635"><ele>202.33333333333334</ele><time>2026-04-18T15:04:30.78Z</time></trkpt><trkpt lat="43.7120676" lon="11.322662"><ele>200.0</ele><time>2026-04-18T15:04:31.767Z</time></trkpt><trkpt lat="43.7121275" lon="11.3224467"><ele>200.33333333333334</ele><time>2026-04-18T15:04:32.8Z</time></trkpt><trkpt lat="43.7121915" lon="11.3222221"><ele>200.66666666666669</ele><time>2026-04-18T15:04:33.862Z</time></trkpt><trkpt lat="43.7122545" lon="11.3219948"><ele>201.0</ele><time>2026-04-18T15:04:34.865Z</time></trkpt><trkpt lat="43.7123201" lon="11.3217637"><ele>201.0</ele><time>2026-04-18T15:04:35.867Z</time></trkpt><trkpt lat="43.7123833" lon="11.3215368"><ele>201.0</ele><time>2026-04-18T15:04:36.865Z</time></trkpt><trkpt lat="43.7124412" lon="11.3213275"><ele>201.0</ele><time>2026-04-18T15:04:37.868Z</time></trkpt><trkpt lat="43.7124969" lon="11.3211282"><ele>201.33333333333331</ele><time>2026-04-18T15:04:38.875Z</time></trkpt><trkpt lat="43.7125512" lon="11.3209435"><ele>201.66666666666666</ele><time>2026-04-18T15:04:39.861Z</time></trkpt><trkpt lat="43.7126042" lon="11.3207522"><ele>202.0</ele><time>2026-04-18T15:04:40.868Z</time></trkpt><trkpt lat="43.7126635" lon="11.3205467"><ele>202.0</ele><time>2026-04-18T15:04:41.859Z</time></trkpt><trkpt lat="43.7127307" lon="11.3203267"><ele>202.0</ele><time>2026-04-18T15:04:42.854Z</time></trkpt><trkpt lat="43.7127993" lon="11.3201029"><ele>202.0</ele><time>2026-04-18T15:04:43.858Z</time></trkpt><trkpt lat="43.7128692" lon="11.3198709"><ele>201.33333333333331</ele><time>2026-04-18T15:04:44.859Z</time></trkpt><trkpt lat="43.7129392" lon="11.3196265"><ele>200.66666666666669</ele><time>2026-04-18T15:04:45.856Z</time></trkpt><trkpt lat="43.7130088" lon="11.3193925"><ele>200.0</ele><time>2026-04-18T15:04:46.856Z</time></trkpt><trkpt lat="43.7130761" lon="11.3191708"><ele>200.0</ele><time>2026-04-18T15:04:47.857Z</time></trkpt><trkpt lat="43.7131398" lon="11.3189633"><ele>200.0</ele><time>2026-04-18T15:04:48.856Z</time></trkpt><trkpt lat="43.7131973" lon="11.3187643"><ele>200.0</ele><time>2026-04-18T15:04:49.865Z</time></trkpt><trkpt lat="43.7132502" lon="11.3185752"><ele>199.5</ele><time>2026-04-18T15:04:50.863Z</time></trkpt><trkpt lat="43.7133005" lon="11.3183871"><ele>199.0</ele><time>2026-04-18T15:04:51.863Z</time></trkpt><trkpt lat="43.7133495" lon="11.3181967"><ele>198.5</ele><time>2026-04-18T15:04:52.862Z</time></trkpt><trkpt lat="43.7133971" lon="11.3180105"><ele>198.0</ele><time>2026-04-18T15:04:53.863Z</time></trkpt><trkpt lat="43.7134396" lon="11.317832"><ele>197.60000000000002</ele><time>2026-04-18T15:04:54.861Z</time></trkpt><trkpt lat="43.7134749" lon="11.3176701"><ele>197.20000000000002</ele><time>2026-04-18T15:04:55.864Z</time></trkpt><trkpt lat="43.7135059" lon="11.3175225"><ele>196.8</ele><time>2026-04-18T15:04:56.858Z</time></trkpt><trkpt lat="43.7135374" lon="11.3173947"><ele>196.4</ele><time>2026-04-18T15:04:57.848Z</time></trkpt><trkpt lat="43.7135676" lon="11.3172903"><ele>196.0</ele><time>2026-04-18T15:04:58.851Z</time></trkpt><trkpt lat="43.713605" lon="11.3171696"><ele>195.66666666666666</ele><time>2026-04-18T15:05:00.861Z</time></trkpt><trkpt lat="43.7136333" lon="11.31708"><ele>195.33333333333331</ele><time>2026-04-18T15:05:07.86Z</time></trkpt><trkpt lat="43.7136518" lon="11.3169809"><ele>195.0</ele><time>2026-04-18T15:05:15.861Z</time></trkpt><trkpt lat="43.7136543" lon="11.3168218"><ele>194.66666666666669</ele><time>2026-04-18T15:05:18.87Z</time></trkpt><trkpt lat="43.7136591" lon="11.3167228"><ele>194.33333333333334</ele><time>2026-04-18T15:05:19.859Z</time></trkpt><trkpt lat="43.7136723" lon="11.3166012"><ele>194.0</ele><time>2026-04-18T15:05:20.857Z</time></trkpt><trkpt lat="43.7136847" lon="11.3164773"><ele>193.66666666666669</ele><time>2026-04-18T15:05:21.856Z</time></trkpt><trkpt lat="43.7136957" lon="11.3163579"><ele>193.33333333333334</ele><time>2026-04-18T15:05:22.853Z</time></trkpt><trkpt lat="43.7137042" lon="11.3162473"><ele>193.0</ele><time>2026-04-18T15:05:23.856Z</time></trkpt><trkpt lat="43.7137219" lon="11.3161313"><ele>192.66666666666669</ele><time>2026-04-18T15:05:24.862Z</time></trkpt><trkpt lat="43.7137366" lon="11.3160102"><ele>192.33333333333334</ele><time>2026-04-18T15:05:25.853Z</time></trkpt><trkpt lat="43.7137505" lon="11.3158728"><ele>192.0</ele><time>2026-04-18T15:05:26.853Z</time></trkpt><trkpt lat="43.7137614" lon="11.3157175"><ele>191.75</ele><time>2026-04-18T15:05:27.844Z</time></trkpt><trkpt lat="43.7137842" lon="11.3155535"><ele>191.5</ele><time>2026-04-18T15:05:28.856Z</time></trkpt><trkpt lat="43.7138115" lon="11.3153768"><ele>191.25</ele><time>2026-04-18T15:05:29.852Z</time></trkpt><trkpt lat="43.7138329" lon="11.3151881"><ele>191.0</ele><time>2026-04-18T15:05:30.86Z</time></trkpt><trkpt lat="43.7138549" lon="11.3150021"><ele>191.0</ele><time>2026-04-18T15:05:31.854Z</time></trkpt><trkpt lat="43.7138742" lon="11.3148252"><ele>191.0</ele><time>2026-04-18T15:05:32.85Z</time></trkpt><trkpt lat="43.7138947" lon="11.3146637"><ele>191.0</ele><time>2026-04-18T15:05:33.852Z</time></trkpt><trkpt lat="43.7139108" lon="11.3144946"><ele>191.0</ele><time>2026-04-18T15:05:34.846Z</time></trkpt><trkpt lat="43.7139126" lon="11.3143122"><ele>190.25</ele><time>2026-04-18T15:05:35.846Z</time></trkpt><trkpt lat="43.7139041" lon="11.3141216"><ele>189.5</ele><time>2026-04-18T15:05:36.85Z</time></trkpt><trkpt lat="43.7138824" lon="11.3139288"><ele>188.75</ele><time>2026-04-18T15:05:37.836Z</time></trkpt><trkpt lat="43.713836" lon="11.3137354"><ele>188.0</ele><time>2026-04-18T15:05:38.832Z</time></trkpt><trkpt lat="43.7137726" lon="11.3135391"><ele>187.5</ele><time>2026-04-18T15:05:39.833Z</time></trkpt><trkpt lat="43.7137124" lon="11.3133339"><ele>187.0</ele><time>2026-04-18T15:05:40.847Z</time></trkpt><trkpt lat="43.7136575" lon="11.3131412"><ele>186.5</ele><time>2026-04-18T15:05:41.849Z</time></trkpt><trkpt lat="43.7136204" lon="11.3129636"><ele>186.0</ele><time>2026-04-18T15:05:42.847Z</time></trkpt><trkpt lat="43.7135966" lon="11.3127986"><ele>185.4</ele><time>2026-04-18T15:05:43.841Z</time></trkpt><trkpt lat="43.7135905" lon="11.312633"><ele>184.8</ele><time>2026-04-18T15:05:44.829Z</time></trkpt><trkpt lat="43.7135981" lon="11.3124704"><ele>184.20000000000002</ele><time>2026-04-18T15:05:45.83Z</time></trkpt><trkpt lat="43.7136026" lon="11.3123655"><ele>183.60000000000002</ele><time>2026-04-18T15:05:46.829Z</time></trkpt><trkpt lat="43.7135748" lon="11.3122765"><ele>183.0</ele><time>2026-04-18T15:05:49.76Z</time></trkpt><trkpt lat="43.7135347" lon="11.3122026"><ele>182.5</ele><time>2026-04-18T15:05:53.762Z</time></trkpt><trkpt lat="43.7134986" lon="11.3120854"><ele>182.0</ele><time>2026-04-18T15:05:55.768Z</time></trkpt><trkpt lat="43.7134767" lon="11.3119933"><ele>181.5</ele><time>2026-04-18T15:05:56.762Z</time></trkpt><trkpt lat="43.7134602" lon="11.3119012"><ele>181.0</ele><time>2026-04-18T15:05:57.759Z</time></trkpt><trkpt lat="43.7134263" lon="11.3117784"><ele>180.5</ele><time>2026-04-18T15:05:58.754Z</time></trkpt><trkpt lat="43.7134044" lon="11.3116515"><ele>180.0</ele><time>2026-04-18T15:05:59.76Z</time></trkpt><trkpt lat="43.7133753" lon="11.3115106"><ele>179.8</ele><time>2026-04-18T15:06:00.757Z</time></trkpt><trkpt lat="43.7133384" lon="11.3113785"><ele>179.6</ele><time>2026-04-18T15:06:01.752Z</time></trkpt><trkpt lat="43.7132955" lon="11.3112538"><ele>179.39999999999998</ele><time>2026-04-18T15:06:02.757Z</time></trkpt><trkpt lat="43.713232" lon="11.3111299"><ele>179.2</ele><time>2026-04-18T15:06:03.753Z</time></trkpt><trkpt lat="43.7131613" lon="11.3110191"><ele>179.0</ele><time>2026-04-18T15:06:04.754Z</time></trkpt><trkpt lat="43.7130775" lon="11.3109163"><ele>179.0</ele><time>2026-04-18T15:06:05.755Z</time></trkpt><trkpt lat="43.7129896" lon="11.3108173"><ele>179.0</ele><time>2026-04-18T15:06:06.747Z</time></trkpt><trkpt lat="43.7129283" lon="11.3107217"><ele>179.0</ele><time>2026-04-18T15:06:07.746Z</time></trkpt><trkpt lat="43.7128873" lon="11.3106279"><ele>179.0</ele><time>2026-04-18T15:06:08.746Z</time></trkpt><trkpt lat="43.712872" lon="11.3105108"><ele>179.0</ele><time>2026-04-18T15:06:09.747Z</time></trkpt><trkpt lat="43.7128696" lon="11.3103668"><ele>178.75</ele><time>2026-04-18T15:06:10.747Z</time></trkpt><trkpt lat="43.7128675" lon="11.3101923"><ele>178.5</ele><time>2026-04-18T15:06:11.769Z</time></trkpt><trkpt lat="43.7128749" lon="11.3100003"><ele>178.25</ele><time>2026-04-18T15:06:12.746Z</time></trkpt><trkpt lat="43.7128826" lon="11.3097934"><ele>178.0</ele><time>2026-04-18T15:06:13.753Z</time></trkpt><trkpt lat="43.7129027" lon="11.3095707"><ele>178.0</ele><time>2026-04-18T15:06:14.761Z</time></trkpt><trkpt lat="43.7129123" lon="11.3093811"><ele>178.0</ele><time>2026-04-18T15:06:15.753Z</time></trkpt><trkpt lat="43.7129285" lon="11.309218"><ele>178.0</ele><time>2026-04-18T15:06:16.764Z</time></trkpt><trkpt lat="43.7129476" lon="11.3090468"><ele>178.0</ele><time>2026-04-18T15:06:17.752Z</time></trkpt><trkpt lat="43.7129529" lon="11.308846"><ele>178.66666666666669</ele><time>2026-04-18T15:06:18.758Z</time></trkpt><trkpt lat="43.7129631" lon="11.3086388"><ele>179.33333333333334</ele><time>2026-04-18T15:06:19.749Z</time></trkpt><trkpt lat="43.7129945" lon="11.3084068"><ele>180.0</ele><time>2026-04-18T15:06:20.75Z</time></trkpt><trkpt lat="43.7130341" lon="11.3082024"><ele>180.2</ele><time>2026-04-18T15:06:21.754Z</time></trkpt><trkpt lat="43.713072" lon="11.3080424"><ele>180.4</ele><time>2026-04-18T15:06:22.753Z</time></trkpt><trkpt lat="43.7131016" lon="11.3079097"><ele>180.60000000000002</ele><time>2026-04-18T15:06:23.756Z</time></trkpt><trkpt lat="43.7131373" lon="11.307785"><ele>180.8</ele><time>2026-04-18T15:06:24.761Z</time></trkpt><trkpt lat="43.7131717" lon="11.3076944"><ele>181.0</ele><time>2026-04-18T15:06:25.747Z</time></trkpt><trkpt lat="43.7132123" lon="11.3076256"><ele>181.0</ele><time>2026-04-18T15:06:26.745Z</time></trkpt><trkpt lat="43.7132496" lon="11.3074947"><ele>181.0</ele><time>2026-04-18T15:06:28.751Z</time></trkpt><trkpt lat="43.7132131" lon="11.3073369"><ele>181.0</ele><time>2026-04-18T15:06:30.744Z</time></trkpt><trkpt lat="43.7131761" lon="11.3072299"><ele>181.0</ele><time>2026-04-18T15:06:31.742Z</time></trkpt><trkpt lat="43.7131447" lon="11.3071246"><ele>181.0</ele><time>2026-04-18T15:06:32.748Z</time></trkpt><trkpt lat="43.7131135" lon="11.3070171"><ele>181.33333333333334</ele><time>2026-04-18T15:06:33.754Z</time></trkpt><trkpt lat="43.713086" lon="11.3068846"><ele>181.66666666666669</ele><time>2026-04-18T15:06:35.757Z</time></trkpt><trkpt lat="43.7131337" lon="11.306798"><ele>182.0</ele><time>2026-04-18T15:06:38.782Z</time></trkpt><trkpt lat="43.7132085" lon="11.3067237"><ele>182.33333333333334</ele><time>2026-04-18T15:06:41.778Z</time></trkpt><trkpt lat="43.7132726" lon="11.3066343"><ele>182.66666666666666</ele><time>2026-04-18T15:06:43.765Z</time></trkpt><trkpt lat="43.7133186" lon="11.3065697"><ele>183.0</ele><time>2026-04-18T15:06:44.764Z</time></trkpt><trkpt lat="43.7133684" lon="11.3065035"><ele>183.0</ele><time>2026-04-18T15:06:45.765Z</time></trkpt><trkpt lat="43.7134243" lon="11.3064419"><ele>183.0</ele><time>2026-04-18T15:06:46.777Z</time></trkpt><trkpt lat="43.7134814" lon="11.306376"><ele>183.0</ele><time>2026-04-18T15:06:47.769Z</time></trkpt><trkpt lat="43.713529" lon="11.3063065"><ele>183.0</ele><time>2026-04-18T15:06:48.774Z</time></trkpt><trkpt lat="43.7135788" lon="11.3062344"><ele>183.0</ele><time>2026-04-18T15:06:49.766Z</time></trkpt><trkpt lat="43.7136272" lon="11.3061643"><ele>183.0</ele><time>2026-04-18T15:06:50.766Z</time></trkpt><trkpt lat="43.713675" lon="11.3061001"><ele>183.0</ele><time>2026-04-18T15:06:51.768Z</time></trkpt><trkpt lat="43.7137244" lon="11.3060306"><ele>181.33333333333334</ele><time>2026-04-18T15:06:52.773Z</time></trkpt><trkpt lat="43.7137752" lon="11.3059672"><ele>179.66666666666666</ele><time>2026-04-18T15:06:53.772Z</time></trkpt><trkpt lat="43.7138254" lon="11.3059032"><ele>178.0</ele><time>2026-04-18T15:06:54.768Z</time></trkpt><trkpt lat="43.713874" lon="11.3058352"><ele>176.33333333333331</ele><time>2026-04-18T15:06:55.774Z</time></trkpt><trkpt lat="43.7139235" lon="11.3057757"><ele>174.66666666666666</ele><time>2026-04-18T15:06:56.771Z</time></trkpt><trkpt lat="43.7140028" lon="11.3056754"><ele>173.0</ele><time>2026-04-18T15:06:58.774Z</time></trkpt><trkpt lat="43.7140627" lon="11.3055843"><ele>172.8</ele><time>2026-04-18T15:07:00.773Z</time></trkpt><trkpt lat="43.714125" lon="11.3055015"><ele>172.60000000000002</ele><time>2026-04-18T15:07:03.773Z</time></trkpt><trkpt lat="43.7141296" lon="11.3053899"><ele>172.39999999999998</ele><time>2026-04-18T15:07:07.782Z</time></trkpt><trkpt lat="43.714149" lon="11.3052643"><ele>172.2</ele><time>2026-04-18T15:07:10.778Z</time></trkpt><trkpt lat="43.7141778" lon="11.3051402"><ele>172.0</ele><time>2026-04-18T15:07:12.776Z</time></trkpt><trkpt lat="43.714192" lon="11.3049821"><ele>172.0</ele><time>2026-04-18T15:07:14.772Z</time></trkpt><trkpt lat="43.7141924" lon="11.3048943"><ele>172.0</ele><time>2026-04-18T15:07:15.769Z</time></trkpt><trkpt lat="43.7142096" lon="11.3047528"><ele>172.0</ele><time>2026-04-18T15:07:17.771Z</time></trkpt><trkpt lat="43.7142209" lon="11.3046049"><ele>172.0</ele><time>2026-04-18T15:07:19.767Z</time></trkpt><trkpt lat="43.7142296" lon="11.3045183"><ele>172.0</ele><time>2026-04-18T15:07:20.768Z</time></trkpt><trkpt lat="43.7142527" lon="11.3043603"><ele>170.6</ele><time>2026-04-18T15:07:22.767Z</time></trkpt><trkpt lat="43.7142712" lon="11.3041964"><ele>169.2</ele><time>2026-04-18T15:07:24.763Z</time></trkpt><trkpt lat="43.7142784" lon="11.3040597"><ele>167.8</ele><time>2026-04-18T15:07:26.764Z</time></trkpt><trkpt lat="43.7142761" lon="11.3039598"><ele>166.4</ele><time>2026-04-18T15:07:28.78Z</time></trkpt><trkpt lat="43.7142878" lon="11.3038579"><ele>165.0</ele><time>2026-04-18T15:07:31.778Z</time></trkpt><trkpt lat="43.7142814" lon="11.3037378"><ele>163.57142857142858</ele><time>2026-04-18T15:07:34.778Z</time></trkpt><trkpt lat="43.714283" lon="11.3036411"><ele>162.14285714285714</ele><time>2026-04-18T15:07:36.778Z</time></trkpt><trkpt lat="43.7142946" lon="11.303543"><ele>160.71428571428572</ele><time>2026-04-18T15:07:38.774Z</time></trkpt><trkpt lat="43.7142993" lon="11.3034528"><ele>159.28571428571428</ele><time>2026-04-18T15:07:40.759Z</time></trkpt><trkpt lat="43.714285" lon="11.3033455"><ele>157.85714285714286</ele><time>2026-04-18T15:07:42.761Z</time></trkpt><trkpt lat="43.7142439" lon="11.30324"><ele>156.42857142857144</ele><time>2026-04-18T15:07:44.779Z</time></trkpt><trkpt lat="43.7142601" lon="11.3031461"><ele>155.0</ele><time>2026-04-18T15:07:55.778Z</time></trkpt><trkpt lat="43.7142772" lon="11.3030563"><ele>153.5</ele><time>2026-04-18T15:07:59.765Z</time></trkpt><trkpt lat="43.7142799" lon="11.3029664"><ele>152.0</ele><time>2026-04-18T15:08:01.766Z</time></trkpt><trkpt lat="43.7142911" lon="11.3028547"><ele>150.5</ele><time>2026-04-18T15:08:03.772Z</time></trkpt><trkpt lat="43.7143258" lon="11.3027594"><ele>149.0</ele><time>2026-04-18T15:08:08.77Z</time></trkpt><trkpt lat="43.7143828" lon="11.302662"><ele>147.5</ele><time>2026-04-18T15:08:11.772Z</time></trkpt><trkpt lat="43.7144525" lon="11.3025688"><ele>146.0</ele><time>2026-04-18T15:08:13.775Z</time></trkpt><trkpt lat="43.7145157" lon="11.3024573"><ele>143.6</ele><time>2026-04-18T15:08:15.783Z</time></trkpt><trkpt lat="43.7145836" lon="11.3023491"><ele>141.2</ele><time>2026-04-18T15:08:17.76Z</time></trkpt><trkpt lat="43.7146566" lon="11.3022413"><ele>138.8</ele><time>2026-04-18T15:08:19.765Z</time></trkpt><trkpt lat="43.7147367" lon="11.3021319"><ele>136.4</ele><time>2026-04-18T15:08:21.767Z</time></trkpt><trkpt lat="43.714808" lon="11.3020082"><ele>134.0</ele><time>2026-04-18T15:08:23.769Z</time></trkpt><trkpt lat="43.7148553" lon="11.3019474"><ele>133.0</ele><time>2026-04-18T15:08:24.767Z</time></trkpt><trkpt lat="43.7149369" lon="11.3018121"><ele>132.0</ele><time>2026-04-18T15:08:26.759Z</time></trkpt><trkpt lat="43.7150072" lon="11.3016845"><ele>131.0</ele><time>2026-04-18T15:08:28.761Z</time></trkpt><trkpt lat="43.715081" lon="11.3015689"><ele>130.0</ele><time>2026-04-18T15:08:30.759Z</time></trkpt><trkpt lat="43.7151607" lon="11.3014516"><ele>129.5</ele><time>2026-04-18T15:08:32.758Z</time></trkpt><trkpt lat="43.7152366" lon="11.3013338"><ele>129.0</ele><time>2026-04-18T15:08:34.757Z</time></trkpt><trkpt lat="43.715314" lon="11.3012026"><ele>128.5</ele><time>2026-04-18T15:08:36.759Z</time></trkpt><trkpt lat="43.7153559" lon="11.3011357"><ele>128.0</ele><time>2026-04-18T15:08:37.756Z</time></trkpt><trkpt lat="43.7153981" lon="11.3010602"><ele>127.50000000000001</ele><time>2026-04-18T15:08:38.758Z</time></trkpt><trkpt lat="43.7154434" lon="11.3009878"><ele>127.0</ele><time>2026-04-18T15:08:39.757Z</time></trkpt><trkpt lat="43.7154863" lon="11.300912"><ele>124.19999999999999</ele><time>2026-04-18T15:08:40.759Z</time></trkpt><trkpt lat="43.7155218" lon="11.3008358"><ele>121.39999999999999</ele><time>2026-04-18T15:08:41.758Z</time></trkpt><trkpt lat="43.7155944" lon="11.3007042"><ele>118.60000000000001</ele><time>2026-04-18T15:08:43.759Z</time></trkpt><trkpt lat="43.7156542" lon="11.3005906"><ele>115.80000000000001</ele><time>2026-04-18T15:08:45.753Z</time></trkpt><trkpt lat="43.7157378" lon="11.3004721"><ele>113.0</ele><time>2026-04-18T15:08:47.757Z</time></trkpt><trkpt lat="43.7158045" lon="11.3003566"><ele>112.49999999999999</ele><time>2026-04-18T15:08:49.758Z</time></trkpt><trkpt lat="43.7158696" lon="11.3002486"><ele>112.0</ele><time>2026-04-18T15:08:51.759Z</time></trkpt><trkpt lat="43.7159309" lon="11.3001691"><ele>111.5</ele><time>2026-04-18T15:08:53.758Z</time></trkpt><trkpt lat="43.7159797" lon="11.3000996"><ele>111.0</ele><time>2026-04-18T15:08:55.772Z</time></trkpt><trkpt lat="43.7160331" lon="11.3000374"><ele>110.49999999999999</ele><time>2026-04-18T15:08:57.765Z</time></trkpt><trkpt lat="43.716083" lon="11.2999259"><ele>110.0</ele><time>2026-04-18T15:08:59.767Z</time></trkpt><trkpt lat="43.7161348" lon="11.2998519"><ele>107.99999999999999</ele><time>2026-04-18T15:09:00.76Z</time></trkpt><trkpt lat="43.7161774" lon="11.2997805"><ele>106.0</ele><time>2026-04-18T15:09:01.762Z</time></trkpt><trkpt lat="43.7162619" lon="11.2996572"><ele>104.0</ele><time>2026-04-18T15:09:03.758Z</time></trkpt><trkpt lat="43.7163055" lon="11.2995662"><ele>102.0</ele><time>2026-04-18T15:09:04.761Z</time></trkpt><trkpt lat="43.7163536" lon="11.2994804"><ele>99.99999999999999</ele><time>2026-04-18T15:09:05.764Z</time></trkpt><trkpt lat="43.7163994" lon="11.2994006"><ele>98.0</ele><time>2026-04-18T15:09:06.761Z</time></trkpt><trkpt lat="43.7164432" lon="11.2993366"><ele>97.66666666666666</ele><time>2026-04-18T15:09:07.763Z</time></trkpt><trkpt lat="43.7165159" lon="11.2992999"><ele>97.33333333333333</ele><time>2026-04-18T15:09:09.762Z</time></trkpt><trkpt lat="43.7166224" lon="11.2993157"><ele>97.0</ele><time>2026-04-18T15:09:11.762Z</time></trkpt><trkpt lat="43.71669" lon="11.2993453"><ele>96.66666666666666</ele><time>2026-04-18T15:09:12.75Z</time></trkpt><trkpt lat="43.716756" lon="11.2993887"><ele>96.33333333333333</ele><time>2026-04-18T15:09:13.765Z</time></trkpt><trkpt lat="43.7168204" lon="11.2994349"><ele>96.0</ele><time>2026-04-18T15:09:14.766Z</time></trkpt><trkpt lat="43.7168877" lon="11.2994696"><ele>95.83333333333333</ele><time>2026-04-18T15:09:15.763Z</time></trkpt><trkpt lat="43.7169562" lon="11.2995048"><ele>95.66666666666667</ele><time>2026-04-18T15:09:16.762Z</time></trkpt><trkpt lat="43.7170233" lon="11.2995505"><ele>95.5</ele><time>2026-04-18T15:09:17.78Z</time></trkpt><trkpt lat="43.7170874" lon="11.2996006"><ele>95.33333333333334</ele><time>2026-04-18T15:09:18.767Z</time></trkpt><trkpt lat="43.7171552" lon="11.2996491"><ele>95.16666666666667</ele><time>2026-04-18T15:09:19.765Z</time></trkpt><trkpt lat="43.7172383" lon="11.299761"><ele>95.0</ele><time>2026-04-18T15:09:21.764Z</time></trkpt><trkpt lat="43.7172642" lon="11.299874"><ele>95.8</ele><time>2026-04-18T15:09:23.763Z</time></trkpt><trkpt lat="43.7172513" lon="11.2999892"><ele>96.6</ele><time>2026-04-18T15:09:25.774Z</time></trkpt><trkpt lat="43.7172559" lon="11.3000974"><ele>97.4</ele><time>2026-04-18T15:09:45.786Z</time></trkpt><trkpt lat="43.7173029" lon="11.300206"><ele>98.2</ele><time>2026-04-18T15:09:47.758Z</time></trkpt><trkpt lat="43.7174114" lon="11.3002614"><ele>99.0</ele><time>2026-04-18T15:09:49.767Z</time></trkpt><trkpt lat="43.7175304" lon="11.3002033"><ele>99.0</ele><time>2026-04-18T15:09:51.765Z</time></trkpt><trkpt lat="43.7175911" lon="11.3000868"><ele>99.0</ele><time>2026-04-18T15:09:53.766Z</time></trkpt><trkpt lat="43.7176502" lon="11.3000505"><ele>99.0</ele><time>2026-04-18T15:09:54.775Z</time></trkpt><trkpt lat="43.7177226" lon="11.3000285"><ele>99.0</ele><time>2026-04-18T15:09:55.775Z</time></trkpt><trkpt lat="43.717795" lon="11.29998"><ele>99.0</ele><time>2026-04-18T15:09:56.768Z</time></trkpt><trkpt lat="43.7178691" lon="11.2999084"><ele>99.0</ele><time>2026-04-18T15:09:57.78Z</time></trkpt><trkpt lat="43.7179286" lon="11.2998288"><ele>98.5</ele><time>2026-04-18T15:09:58.779Z</time></trkpt><trkpt lat="43.7179854" lon="11.2997598"><ele>98.0</ele><time>2026-04-18T15:09:59.775Z</time></trkpt><trkpt lat="43.718045" lon="11.2997036"><ele>97.5</ele><time>2026-04-18T15:10:00.777Z</time></trkpt><trkpt lat="43.7181147" lon="11.29966"><ele>97.0</ele><time>2026-04-18T15:10:01.771Z</time></trkpt><trkpt lat="43.7181976" lon="11.2996094"><ele>96.5</ele><time>2026-04-18T15:10:02.773Z</time></trkpt><trkpt lat="43.7182921" lon="11.2995598"><ele>96.0</ele><time>2026-04-18T15:10:03.846Z</time></trkpt><trkpt lat="43.7183929" lon="11.299516"><ele>96.0</ele><time>2026-04-18T15:10:04.845Z</time></trkpt><trkpt lat="43.7184964" lon="11.2994705"><ele>96.0</ele><time>2026-04-18T15:10:05.84Z</time></trkpt><trkpt lat="43.7186122" lon="11.2994333"><ele>96.0</ele><time>2026-04-18T15:10:06.84Z</time></trkpt><trkpt lat="43.718727" lon="11.2994075"><ele>96.0</ele><time>2026-04-18T15:10:07.82Z</time></trkpt><trkpt lat="43.7188478" lon="11.299384"><ele>97.25</ele><time>2026-04-18T15:10:08.813Z</time></trkpt><trkpt lat="43.7189716" lon="11.2993745"><ele>98.5</ele><time>2026-04-18T15:10:09.799Z</time></trkpt><trkpt lat="43.7191038" lon="11.2993831"><ele>99.75</ele><time>2026-04-18T15:10:10.783Z</time></trkpt><trkpt lat="43.7192264" lon="11.2994029"><ele>101.0</ele><time>2026-04-18T15:10:11.789Z</time></trkpt><trkpt lat="43.7193207" lon="11.2994636"><ele>100.0</ele><time>2026-04-18T15:10:12.795Z</time></trkpt><trkpt lat="43.7194552" lon="11.2995011"><ele>99.0</ele><time>2026-04-18T15:10:13.792Z</time></trkpt><trkpt lat="43.7195876" lon="11.2995353"><ele>98.0</ele><time>2026-04-18T15:10:14.812Z</time></trkpt><trkpt lat="43.7198133" lon="11.2995001"><ele>98.0</ele><time>2026-04-18T15:10:16.843Z</time></trkpt><trkpt lat="43.7199597" lon="11.2996336"><ele>98.0</ele><time>2026-04-18T15:10:17.845Z</time></trkpt><trkpt lat="43.7201791" lon="11.2997672"><ele>98.0</ele><time>2026-04-18T15:10:18.848Z</time></trkpt><trkpt lat="43.7203256" lon="11.2998534"><ele>100.25</ele><time>2026-04-18T15:10:19.862Z</time></trkpt><trkpt lat="43.7204623" lon="11.2999185"><ele>102.5</ele><time>2026-04-18T15:10:20.843Z</time></trkpt><trkpt lat="43.7206065" lon="11.2999672"><ele>104.75</ele><time>2026-04-18T15:10:21.847Z</time></trkpt><trkpt lat="43.7207575" lon="11.2999991"><ele>107.0</ele><time>2026-04-18T15:10:22.826Z</time></trkpt><trkpt lat="43.7209118" lon="11.3000191"><ele>109.0</ele><time>2026-04-18T15:10:23.834Z</time></trkpt><trkpt lat="43.7210717" lon="11.3000152"><ele>111.0</ele><time>2026-04-18T15:10:24.836Z</time></trkpt><trkpt lat="43.7212363" lon="11.2999985"><ele>113.0</ele><time>2026-04-18T15:10:25.837Z</time></trkpt><trkpt lat="43.7213982" lon="11.299959"><ele>113.0</ele><time>2026-04-18T15:10:26.846Z</time></trkpt><trkpt lat="43.7215682" lon="11.2999141"><ele>113.0</ele><time>2026-04-18T15:10:27.851Z</time></trkpt><trkpt lat="43.7217411" lon="11.299822"><ele>113.0</ele><time>2026-04-18T15:10:28.839Z</time></trkpt><trkpt lat="43.7219152" lon="11.2997165"><ele>111.0</ele><time>2026-04-18T15:10:29.833Z</time></trkpt><trkpt lat="43.7220755" lon="11.2996189"><ele>109.0</ele><time>2026-04-18T15:10:30.834Z</time></trkpt><trkpt lat="43.7222132" lon="11.2995298"><ele>107.0</ele><time>2026-04-18T15:10:31.83Z</time></trkpt><trkpt lat="43.7223284" lon="11.2994453"><ele>107.0</ele><time>2026-04-18T15:10:32.84Z</time></trkpt><trkpt lat="43.7224323" lon="11.2993844"><ele>107.0</ele><time>2026-04-18T15:10:33.843Z</time></trkpt><trkpt lat="43.7225287" lon="11.2993559"><ele>107.0</ele><time>2026-04-18T15:10:34.846Z</time></trkpt><trkpt lat="43.7226539" lon="11.2996253"><ele>107.0</ele><time>2026-04-18T15:10:35.848Z</time></trkpt><trkpt lat="43.7227628" lon="11.2996265"><ele>107.75</ele><time>2026-04-18T15:10:36.785Z</time></trkpt><trkpt lat="43.7228787" lon="11.2996373"><ele>108.5</ele><time>2026-04-18T15:10:37.858Z</time></trkpt><trkpt lat="43.723" lon="11.2996664"><ele>109.25</ele><time>2026-04-18T15:10:38.859Z</time></trkpt><trkpt lat="43.7231255" lon="11.2997052"><ele>110.0</ele><time>2026-04-18T15:10:39.858Z</time></trkpt><trkpt lat="43.7232515" lon="11.2997458"><ele>110.25</ele><time>2026-04-18T15:10:40.827Z</time></trkpt><trkpt lat="43.7233766" lon="11.2998028"><ele>110.5</ele><time>2026-04-18T15:10:41.806Z</time></trkpt><trkpt lat="43.7235137" lon="11.2998897"><ele>110.75</ele><time>2026-04-18T15:10:42.799Z</time></trkpt><trkpt lat="43.7236413" lon="11.2999795"><ele>111.0</ele><time>2026-04-18T15:10:43.781Z</time></trkpt><trkpt lat="43.7237743" lon="11.3000599"><ele>111.0</ele><time>2026-04-18T15:10:44.771Z</time></trkpt><trkpt lat="43.72389" lon="11.3001588"><ele>111.0</ele><time>2026-04-18T15:10:45.773Z</time></trkpt><trkpt lat="43.7239879" lon="11.3002675"><ele>111.0</ele><time>2026-04-18T15:10:46.775Z</time></trkpt><trkpt lat="43.7240951" lon="11.3003808"><ele>111.0</ele><time>2026-04-18T15:10:47.772Z</time></trkpt><trkpt lat="43.7241982" lon="11.300476"><ele>112.66666666666666</ele><time>2026-04-18T15:10:48.789Z</time></trkpt><trkpt lat="43.7242876" lon="11.3006213"><ele>114.33333333333333</ele><time>2026-04-18T15:10:49.841Z</time></trkpt><trkpt lat="43.7243846" lon="11.300892"><ele>116.0</ele><time>2026-04-18T15:10:50.874Z</time></trkpt><trkpt lat="43.7244604" lon="11.3011605"><ele>114.0</ele><time>2026-04-18T15:10:51.858Z</time></trkpt><trkpt lat="43.7245406" lon="11.3014062"><ele>112.0</ele><time>2026-04-18T15:10:52.86Z</time></trkpt><trkpt lat="43.724612" lon="11.3016561"><ele>110.0</ele><time>2026-04-18T15:10:53.862Z</time></trkpt><trkpt lat="43.7246949" lon="11.3019007"><ele>110.0</ele><time>2026-04-18T15:10:54.863Z</time></trkpt><trkpt lat="43.7247649" lon="11.3022163"><ele>110.0</ele><time>2026-04-18T15:10:55.871Z</time></trkpt><trkpt lat="43.7248478" lon="11.3025104"><ele>112.33333333333333</ele><time>2026-04-18T15:10:56.857Z</time></trkpt><trkpt lat="43.7249352" lon="11.3027803"><ele>114.66666666666666</ele><time>2026-04-18T15:10:57.86Z</time></trkpt><trkpt lat="43.7250318" lon="11.3030369"><ele>117.0</ele><time>2026-04-18T15:10:58.851Z</time></trkpt><trkpt lat="43.7251484" lon="11.3033284"><ele>113.5</ele><time>2026-04-18T15:10:59.852Z</time></trkpt><trkpt lat="43.7252908" lon="11.3036335"><ele>110.0</ele><time>2026-04-18T15:11:00.859Z</time></trkpt><trkpt lat="43.7254382" lon="11.3038674"><ele>111.0</ele><time>2026-04-18T15:11:01.862Z</time></trkpt><trkpt lat="43.7256379" lon="11.3040991"><ele>112.0</ele><time>2026-04-18T15:11:02.862Z</time></trkpt><trkpt lat="43.7258422" lon="11.3042801"><ele>112.0</ele><time>2026-04-18T15:11:03.841Z</time></trkpt><trkpt lat="43.7260388" lon="11.3044011"><ele>112.0</ele><time>2026-04-18T15:11:04.836Z</time></trkpt><trkpt lat="43.7262352" lon="11.3044796"><ele>112.0</ele><time>2026-04-18T15:11:05.838Z</time></trkpt><trkpt lat="43.7264369" lon="11.3045127"><ele>114.33333333333334</ele><time>2026-04-18T15:11:06.835Z</time></trkpt><trkpt lat="43.7266613" lon="11.3045228"><ele>116.66666666666666</ele><time>2026-04-18T15:11:07.854Z</time></trkpt><trkpt lat="43.7268491" lon="11.304479"><ele>119.0</ele><time>2026-04-18T15:11:08.853Z</time></trkpt><trkpt lat="43.7270356" lon="11.3044027"><ele>124.5</ele><time>2026-04-18T15:11:09.832Z</time></trkpt><trkpt lat="43.7272364" lon="11.3042845"><ele>130.0</ele><time>2026-04-18T15:11:10.847Z</time></trkpt><trkpt lat="43.7274314" lon="11.3041021"><ele>129.33333333333334</ele><time>2026-04-18T15:11:11.833Z</time></trkpt><trkpt lat="43.7276084" lon="11.3039018"><ele>128.66666666666666</ele><time>2026-04-18T15:11:12.752Z</time></trkpt><trkpt lat="43.7277292" lon="11.3037935"><ele>128.0</ele><time>2026-04-18T15:11:13.776Z</time></trkpt><trkpt lat="43.7278306" lon="11.3037017"><ele>129.20000000000002</ele><time>2026-04-18T15:11:14.771Z</time></trkpt><trkpt lat="43.7279011" lon="11.3036509"><ele>130.4</ele><time>2026-04-18T15:11:15.772Z</time></trkpt><trkpt lat="43.7280013" lon="11.3036221"><ele>131.60000000000002</ele><time>2026-04-18T15:11:16.766Z</time></trkpt><trkpt lat="43.7280843" lon="11.3035661"><ele>132.8</ele><time>2026-04-18T15:11:17.763Z</time></trkpt><trkpt lat="43.7281345" lon="11.3034768"><ele>134.0</ele><time>2026-04-18T15:11:18.764Z</time></trkpt><trkpt lat="43.7281619" lon="11.3033405"><ele>134.0</ele><time>2026-04-18T15:11:19.764Z</time></trkpt><trkpt lat="43.728208" lon="11.3031807"><ele>134.0</ele><time>2026-04-18T15:11:20.774Z</time></trkpt><trkpt lat="43.7282592" lon="11.3029921"><ele>134.0</ele><time>2026-04-18T15:11:21.789Z</time></trkpt><trkpt lat="43.7283415" lon="11.3027907"><ele>134.0</ele><time>2026-04-18T15:11:22.771Z</time></trkpt><trkpt lat="43.7284361" lon="11.3025714"><ele>134.0</ele><time>2026-04-18T15:11:23.771Z</time></trkpt><trkpt lat="43.7285277" lon="11.3023035"><ele>134.0</ele><time>2026-04-18T15:11:24.761Z</time></trkpt><trkpt lat="43.7285988" lon="11.3020077"><ele>134.0</ele><time>2026-04-18T15:11:25.764Z</time></trkpt><trkpt lat="43.7286618" lon="11.3016651"><ele>127.5</ele><time>2026-04-18T15:11:26.762Z</time></trkpt><trkpt lat="43.7287394" lon="11.3013171"><ele>121.0</ele><time>2026-04-18T15:11:27.767Z</time></trkpt><trkpt lat="43.7288142" lon="11.3009731"><ele>121.0</ele><time>2026-04-18T15:11:28.762Z</time></trkpt><trkpt lat="43.7288864" lon="11.3006528"><ele>121.0</ele><time>2026-04-18T15:11:29.766Z</time></trkpt><trkpt lat="43.7289812" lon="11.3003582"><ele>121.0</ele><time>2026-04-18T15:11:30.763Z</time></trkpt><trkpt lat="43.7290887" lon="11.3000683"><ele>121.0</ele><time>2026-04-18T15:11:31.757Z</time></trkpt><trkpt lat="43.7292299" lon="11.2998187"><ele>123.5</ele><time>2026-04-18T15:11:32.761Z</time></trkpt><trkpt lat="43.729382" lon="11.2995783"><ele>126.0</ele><time>2026-04-18T15:11:33.756Z</time></trkpt><trkpt lat="43.7295762" lon="11.2993431"><ele>117.5</ele><time>2026-04-18T15:11:34.767Z</time></trkpt><trkpt lat="43.7297877" lon="11.2991341"><ele>109.0</ele><time>2026-04-18T15:11:35.758Z</time></trkpt><trkpt lat="43.7299936" lon="11.2989317"><ele>112.5</ele><time>2026-04-18T15:11:36.764Z</time></trkpt><trkpt lat="43.7301987" lon="11.2987562"><ele>116.0</ele><time>2026-04-18T15:11:37.761Z</time></trkpt><trkpt lat="43.7303681" lon="11.2985439"><ele>109.5</ele><time>2026-04-18T15:11:38.752Z</time></trkpt><trkpt lat="43.7305387" lon="11.2982901"><ele>103.0</ele><time>2026-04-18T15:11:39.751Z</time></trkpt><trkpt lat="43.7306854" lon="11.2980185"><ele>103.0</ele><time>2026-04-18T15:11:40.763Z</time></trkpt><trkpt lat="43.7308296" lon="11.2977439"><ele>103.0</ele><time>2026-04-18T15:11:41.756Z</time></trkpt><trkpt lat="43.7309705" lon="11.2974998"><ele>98.0</ele><time>2026-04-18T15:11:42.761Z</time></trkpt><trkpt lat="43.7311046" lon="11.2972905"><ele>93.0</ele><time>2026-04-18T15:11:43.776Z</time></trkpt><trkpt lat="43.7312348" lon="11.2971017"><ele>88.0</ele><time>2026-04-18T15:11:44.765Z</time></trkpt><trkpt lat="43.7313785" lon="11.2969768"><ele>88.0</ele><time>2026-04-18T15:11:45.755Z</time></trkpt><trkpt lat="43.731531" lon="11.2968784"><ele>88.0</ele><time>2026-04-18T15:11:46.756Z</time></trkpt><trkpt lat="43.7316962" lon="11.2968208"><ele>88.0</ele><time>2026-04-18T15:11:47.756Z</time></trkpt><trkpt lat="43.7318648" lon="11.2967645"><ele>87.66666666666666</ele><time>2026-04-18T15:11:48.77Z</time></trkpt><trkpt lat="43.7320442" lon="11.2967302"><ele>87.33333333333333</ele><time>2026-04-18T15:11:49.756Z</time></trkpt><trkpt lat="43.7322312" lon="11.2967441"><ele>87.0</ele><time>2026-04-18T15:11:50.77Z</time></trkpt><trkpt lat="43.7324119" lon="11.2967978"><ele>87.0</ele><time>2026-04-18T15:11:51.768Z</time></trkpt><trkpt lat="43.7326086" lon="11.2968848"><ele>87.0</ele><time>2026-04-18T15:11:52.778Z</time></trkpt><trkpt lat="43.7328031" lon="11.2970159"><ele>87.0</ele><time>2026-04-18T15:11:53.754Z</time></trkpt><trkpt lat="43.7329985" lon="11.2971447"><ele>86.0</ele><time>2026-04-18T15:11:54.756Z</time></trkpt><trkpt lat="43.7331799" lon="11.2972774"><ele>85.0</ele><time>2026-04-18T15:11:55.766Z</time></trkpt><trkpt lat="43.7333129" lon="11.2974213"><ele>84.0</ele><time>2026-04-18T15:11:56.761Z</time></trkpt><trkpt lat="43.7334408" lon="11.2975331"><ele>84.0</ele><time>2026-04-18T15:11:57.773Z</time></trkpt><trkpt lat="43.733539" lon="11.2976402"><ele>84.0</ele><time>2026-04-18T15:11:58.76Z</time></trkpt><trkpt lat="43.7336199" lon="11.2977137"><ele>84.0</ele><time>2026-04-18T15:11:59.76Z</time></trkpt><trkpt lat="43.7336966" lon="11.2978196"><ele>84.0</ele><time>2026-04-18T15:12:01.761Z</time></trkpt><trkpt lat="43.7337366" lon="11.2979283"><ele>84.0</ele><time>2026-04-18T15:12:03.761Z</time></trkpt><trkpt lat="43.733756" lon="11.2980713"><ele>84.4</ele><time>2026-04-18T15:12:05.761Z</time></trkpt><trkpt lat="43.7338314" lon="11.2981618"><ele>84.80000000000001</ele><time>2026-04-18T15:12:07.756Z</time></trkpt><trkpt lat="43.7339493" lon="11.2981617"><ele>85.19999999999999</ele><time>2026-04-18T15:12:09.767Z</time></trkpt><trkpt lat="43.7340179" lon="11.2980889"><ele>85.6</ele><time>2026-04-18T15:12:10.769Z</time></trkpt><trkpt lat="43.7340817" lon="11.297971"><ele>86.0</ele><time>2026-04-18T15:12:11.765Z</time></trkpt><trkpt lat="43.7341464" lon="11.29783"><ele>86.0</ele><time>2026-04-18T15:12:12.76Z</time></trkpt><trkpt lat="43.7342251" lon="11.2977208"><ele>86.0</ele><time>2026-04-18T15:12:13.763Z</time></trkpt><trkpt lat="43.7343071" lon="11.2976329"><ele>86.0</ele><time>2026-04-18T15:12:14.767Z</time></trkpt><trkpt lat="43.7343826" lon="11.297567"><ele>86.0</ele><time>2026-04-18T15:12:15.756Z</time></trkpt><trkpt lat="43.7344433" lon="11.2975186"><ele>86.0</ele><time>2026-04-18T15:12:16.773Z</time></trkpt><trkpt lat="43.7345087" lon="11.297483"><ele>86.0</ele><time>2026-04-18T15:12:17.768Z</time></trkpt><trkpt lat="43.7345768" lon="11.2974536"><ele>86.0</ele><time>2026-04-18T15:12:18.762Z</time></trkpt><trkpt lat="43.7346435" lon="11.2974404"><ele>86.0</ele><time>2026-04-18T15:12:19.763Z</time></trkpt><trkpt lat="43.7347626" lon="11.2974462"><ele>86.0</ele><time>2026-04-18T15:12:21.764Z</time></trkpt><trkpt lat="43.7348218" lon="11.2974073"><ele>86.0</ele><time>2026-04-18T15:12:22.76Z</time></trkpt><trkpt lat="43.7348782" lon="11.2973465"><ele>86.0</ele><time>2026-04-18T15:12:23.792Z</time></trkpt><trkpt lat="43.7349358" lon="11.2971848"><ele>86.0</ele><time>2026-04-18T15:12:25.763Z</time></trkpt><trkpt lat="43.7349729" lon="11.2970876"><ele>86.0</ele><time>2026-04-18T15:12:26.756Z</time></trkpt><trkpt lat="43.7350266" lon="11.2970274"><ele>86.0</ele><time>2026-04-18T15:12:27.756Z</time></trkpt><trkpt lat="43.7351251" lon="11.2969478"><ele>86.0</ele><time>2026-04-18T15:12:29.769Z</time></trkpt><trkpt lat="43.7352014" lon="11.2968828"><ele>86.0</ele><time>2026-04-18T15:12:31.768Z</time></trkpt><trkpt lat="43.7352735" lon="11.2968345"><ele>86.0</ele><time>2026-04-18T15:12:33.774Z</time></trkpt><trkpt lat="43.7353365" lon="11.2968011"><ele>86.16666666666667</ele><time>2026-04-18T15:12:35.775Z</time></trkpt><trkpt lat="43.735421" lon="11.2967362"><ele>86.33333333333334</ele><time>2026-04-18T15:12:37.776Z</time></trkpt><trkpt lat="43.7354737" lon="11.2966813"><ele>86.5</ele><time>2026-04-18T15:12:38.766Z</time></trkpt><trkpt lat="43.735538" lon="11.2966346"><ele>86.66666666666667</ele><time>2026-04-18T15:12:39.762Z</time></trkpt><trkpt lat="43.7356179" lon="11.2965953"><ele>86.83333333333333</ele><time>2026-04-18T15:12:40.768Z</time></trkpt><trkpt lat="43.735704" lon="11.2965644"><ele>87.0</ele><time>2026-04-18T15:12:41.767Z</time></trkpt><trkpt lat="43.7357954" lon="11.2965482"><ele>87.0</ele><time>2026-04-18T15:12:42.769Z</time></trkpt><trkpt lat="43.7358883" lon="11.296547"><ele>87.0</ele><time>2026-04-18T15:12:43.764Z</time></trkpt><trkpt lat="43.7359826" lon="11.2965494"><ele>87.0</ele><time>2026-04-18T15:12:44.762Z</time></trkpt><trkpt lat="43.7360772" lon="11.2965592"><ele>87.0</ele><time>2026-04-18T15:12:45.764Z</time></trkpt><trkpt lat="43.7361693" lon="11.2965886"><ele>87.0</ele><time>2026-04-18T15:12:46.75Z</time></trkpt><trkpt lat="43.7362592" lon="11.2966347"><ele>86.8</ele><time>2026-04-18T15:12:47.748Z</time></trkpt><trkpt lat="43.7363514" lon="11.2966756"><ele>86.6</ele><time>2026-04-18T15:12:48.741Z</time></trkpt><trkpt lat="43.736447" lon="11.2966988"><ele>86.39999999999999</ele><time>2026-04-18T15:12:49.747Z</time></trkpt><trkpt lat="43.7365545" lon="11.2967255"><ele>86.19999999999999</ele><time>2026-04-18T15:12:50.749Z</time></trkpt><trkpt lat="43.7366291" lon="11.2966595"><ele>86.0</ele><time>2026-04-18T15:12:52.753Z</time></trkpt><trkpt lat="43.7366646" lon="11.2965739"><ele>86.0</ele><time>2026-04-18T15:12:53.767Z</time></trkpt><trkpt lat="43.7366844" lon="11.2964807"><ele>86.0</ele><time>2026-04-18T15:12:54.752Z</time></trkpt><trkpt lat="43.7367194" lon="11.2963695"><ele>86.0</ele><time>2026-04-18T15:12:55.748Z</time></trkpt><trkpt lat="43.7367632" lon="11.2962574"><ele>86.0</ele><time>2026-04-18T15:12:56.745Z</time></trkpt><trkpt lat="43.7368068" lon="11.2961533"><ele>86.0</ele><time>2026-04-18T15:12:57.755Z</time></trkpt><trkpt lat="43.7368248" lon="11.2960544"><ele>86.0</ele><time>2026-04-18T15:12:58.759Z</time></trkpt><trkpt lat="43.7368548" lon="11.2959203"><ele>85.6</ele><time>2026-04-18T15:13:00.773Z</time></trkpt><trkpt lat="43.7368707" lon="11.2957953"><ele>85.19999999999999</ele><time>2026-04-18T15:13:02.773Z</time></trkpt><trkpt lat="43.7368892" lon="11.2956897"><ele>84.80000000000001</ele><time>2026-04-18T15:13:04.782Z</time></trkpt><trkpt lat="43.7369626" lon="11.2955404"><ele>84.4</ele><time>2026-04-18T15:13:06.763Z</time></trkpt><trkpt lat="43.7370298" lon="11.295463"><ele>84.0</ele><time>2026-04-18T15:13:07.782Z</time></trkpt><trkpt lat="43.7371139" lon="11.2953831"><ele>83.0</ele><time>2026-04-18T15:13:08.843Z</time></trkpt><trkpt lat="43.7371972" lon="11.2953037"><ele>82.0</ele><time>2026-04-18T15:13:09.847Z</time></trkpt><trkpt lat="43.7372795" lon="11.2952294"><ele>81.0</ele><time>2026-04-18T15:13:10.848Z</time></trkpt><trkpt lat="43.737368" lon="11.2951601"><ele>80.0</ele><time>2026-04-18T15:13:11.855Z</time></trkpt><trkpt lat="43.7374391" lon="11.2950811"><ele>79.0</ele><time>2026-04-18T15:13:12.85Z</time></trkpt><trkpt lat="43.7375036" lon="11.2949977"><ele>79.0</ele><time>2026-04-18T15:13:13.843Z</time></trkpt><trkpt lat="43.7375584" lon="11.2949203"><ele>79.0</ele><time>2026-04-18T15:13:14.832Z</time></trkpt><trkpt lat="43.7376023" lon="11.294852"><ele>79.0</ele><time>2026-04-18T15:13:15.831Z</time></trkpt><trkpt lat="43.737656" lon="11.2947604"><ele>79.0</ele><time>2026-04-18T15:13:17.826Z</time></trkpt><trkpt lat="43.7376798" lon="11.294658"><ele>79.0</ele><time>2026-04-18T15:13:28.859Z</time></trkpt><trkpt lat="43.7377304" lon="11.2945418"><ele>79.0</ele><time>2026-04-18T15:13:30.852Z</time></trkpt><trkpt lat="43.7377715" lon="11.2944475"><ele>79.0</ele><time>2026-04-18T15:13:31.85Z</time></trkpt><trkpt lat="43.7378158" lon="11.294336"><ele>79.0</ele><time>2026-04-18T15:13:32.849Z</time></trkpt><trkpt lat="43.7378518" lon="11.2942216"><ele>79.0</ele><time>2026-04-18T15:13:33.851Z</time></trkpt><trkpt lat="43.7378861" lon="11.2941109"><ele>79.0</ele><time>2026-04-18T15:13:34.853Z</time></trkpt><trkpt lat="43.7379249" lon="11.2939933"><ele>79.0</ele><time>2026-04-18T15:13:35.853Z</time></trkpt><trkpt lat="43.7379546" lon="11.2938955"><ele>79.0</ele><time>2026-04-18T15:13:36.832Z</time></trkpt><trkpt lat="43.7379808" lon="11.2937957"><ele>79.16666666666666</ele><time>2026-04-18T15:13:37.83Z</time></trkpt><trkpt lat="43.7379973" lon="11.2937006"><ele>79.33333333333333</ele><time>2026-04-18T15:13:38.828Z</time></trkpt><trkpt lat="43.7380149" lon="11.2936102"><ele>79.5</ele><time>2026-04-18T15:13:39.826Z</time></trkpt><trkpt lat="43.738041" lon="11.2934865"><ele>79.66666666666667</ele><time>2026-04-18T15:13:41.843Z</time></trkpt><trkpt lat="43.7380574" lon="11.2933843"><ele>79.83333333333334</ele><time>2026-04-18T15:13:43.859Z</time></trkpt><trkpt lat="43.7380668" lon="11.2932593"><ele>80.0</ele><time>2026-04-18T15:13:45.852Z</time></trkpt><trkpt lat="43.7381128" lon="11.2930423"><ele>80.0</ele><time>2026-04-18T15:13:47.751Z</time></trkpt><trkpt lat="43.7381401" lon="11.2928883"><ele>80.0</ele><time>2026-04-18T15:13:48.744Z</time></trkpt><trkpt lat="43.7381638" lon="11.2927562"><ele>80.0</ele><time>2026-04-18T15:13:49.74Z</time></trkpt><trkpt lat="43.73819" lon="11.292645"><ele>80.0</ele><time>2026-04-18T15:13:50.772Z</time></trkpt><trkpt lat="43.7382169" lon="11.2925383"><ele>80.0</ele><time>2026-04-18T15:13:51.766Z</time></trkpt><trkpt lat="43.7382384" lon="11.2923972"><ele>80.5</ele><time>2026-04-18T15:13:52.768Z</time></trkpt><trkpt lat="43.7382629" lon="11.2922472"><ele>81.0</ele><time>2026-04-18T15:13:53.772Z</time></trkpt><trkpt lat="43.7382933" lon="11.2920774"><ele>81.5</ele><time>2026-04-18T15:13:54.77Z</time></trkpt><trkpt lat="43.7383209" lon="11.2919213"><ele>82.0</ele><time>2026-04-18T15:13:55.787Z</time></trkpt><trkpt lat="43.7383502" lon="11.2917648"><ele>82.0</ele><time>2026-04-18T15:13:56.769Z</time></trkpt><trkpt lat="43.7383837" lon="11.2916065"><ele>82.0</ele><time>2026-04-18T15:13:57.776Z</time></trkpt><trkpt lat="43.738421" lon="11.2914545"><ele>82.0</ele><time>2026-04-18T15:13:58.77Z</time></trkpt><trkpt lat="43.7384568" lon="11.2913137"><ele>82.0</ele><time>2026-04-18T15:13:59.777Z</time></trkpt><trkpt lat="43.7384894" lon="11.2911828"><ele>82.0</ele><time>2026-04-18T15:14:00.783Z</time></trkpt><trkpt lat="43.7385353" lon="11.2910467"><ele>82.0</ele><time>2026-04-18T15:14:01.774Z</time></trkpt><trkpt lat="43.7385799" lon="11.2908995"><ele>82.0</ele><time>2026-04-18T15:14:02.781Z</time></trkpt><trkpt lat="43.7386261" lon="11.2907294"><ele>82.0</ele><time>2026-04-18T15:14:03.771Z</time></trkpt><trkpt lat="43.7386779" lon="11.2905458"><ele>82.0</ele><time>2026-04-18T15:14:04.771Z</time></trkpt><trkpt lat="43.738753" lon="11.2903525"><ele>82.0</ele><time>2026-04-18T15:14:05.764Z</time></trkpt><trkpt lat="43.7388509" lon="11.2901311"><ele>82.0</ele><time>2026-04-18T15:14:06.762Z</time></trkpt><trkpt lat="43.7389676" lon="11.289919"><ele>82.0</ele><time>2026-04-18T15:14:07.763Z</time></trkpt><trkpt lat="43.7390777" lon="11.2897159"><ele>83.66666666666666</ele><time>2026-04-18T15:14:08.76Z</time></trkpt><trkpt lat="43.7391793" lon="11.2895191"><ele>85.33333333333333</ele><time>2026-04-18T15:14:09.763Z</time></trkpt><trkpt lat="43.7392721" lon="11.2893467"><ele>87.0</ele><time>2026-04-18T15:14:10.765Z</time></trkpt><trkpt lat="43.7393626" lon="11.2891716"><ele>84.33333333333333</ele><time>2026-04-18T15:14:11.768Z</time></trkpt><trkpt lat="43.7394447" lon="11.289001"><ele>81.66666666666666</ele><time>2026-04-18T15:14:12.768Z</time></trkpt><trkpt lat="43.739534" lon="11.2888203"><ele>79.0</ele><time>2026-04-18T15:14:13.762Z</time></trkpt><trkpt lat="43.7396307" lon="11.2886169"><ele>79.0</ele><time>2026-04-18T15:14:14.763Z</time></trkpt><trkpt lat="43.7397337" lon="11.2884394"><ele>79.0</ele><time>2026-04-18T15:14:15.762Z</time></trkpt><trkpt lat="43.7398183" lon="11.2882541"><ele>79.0</ele><time>2026-04-18T15:14:16.77Z</time></trkpt><trkpt lat="43.7399082" lon="11.2880951"><ele>78.75</ele><time>2026-04-18T15:14:17.765Z</time></trkpt><trkpt lat="43.7399928" lon="11.2879478"><ele>78.5</ele><time>2026-04-18T15:14:18.78Z</time></trkpt><trkpt lat="43.7400758" lon="11.2878197"><ele>78.25</ele><time>2026-04-18T15:14:19.758Z</time></trkpt><trkpt lat="43.7401632" lon="11.2877219"><ele>78.0</ele><time>2026-04-18T15:14:20.765Z</time></trkpt><trkpt lat="43.7402274" lon="11.2876313"><ele>78.0</ele><time>2026-04-18T15:14:21.761Z</time></trkpt><trkpt lat="43.7402847" lon="11.2875716"><ele>78.0</ele><time>2026-04-18T15:14:22.748Z</time></trkpt><trkpt lat="43.7403651" lon="11.2875017"><ele>78.0</ele><time>2026-04-18T15:14:24.767Z</time></trkpt><trkpt lat="43.740446" lon="11.2874304"><ele>78.0</ele><time>2026-04-18T15:14:26.784Z</time></trkpt><trkpt lat="43.7405127" lon="11.2873691"><ele>78.0</ele><time>2026-04-18T15:14:28.774Z</time></trkpt><trkpt lat="43.7405713" lon="11.2873133"><ele>78.0</ele><time>2026-04-18T15:14:30.782Z</time></trkpt><trkpt lat="43.7406483" lon="11.2872519"><ele>78.0</ele><time>2026-04-18T15:14:33.779Z</time></trkpt><trkpt lat="43.7407668" lon="11.2872045"><ele>78.0</ele><time>2026-04-18T15:14:35.773Z</time></trkpt><trkpt lat="43.7408524" lon="11.2871802"><ele>78.0</ele><time>2026-04-18T15:14:36.772Z</time></trkpt><trkpt lat="43.7409547" lon="11.2871585"><ele>78.0</ele><time>2026-04-18T15:14:37.768Z</time></trkpt><trkpt lat="43.7410571" lon="11.2871463"><ele>78.0</ele><time>2026-04-18T15:14:38.776Z</time></trkpt><trkpt lat="43.7411587" lon="11.2871444"><ele>78.0</ele><time>2026-04-18T15:14:39.779Z</time></trkpt><trkpt lat="43.7412558" lon="11.2871446"><ele>78.0</ele><time>2026-04-18T15:14:40.772Z</time></trkpt><trkpt lat="43.7413379" lon="11.2871642"><ele>78.0</ele><time>2026-04-18T15:14:41.776Z</time></trkpt><trkpt lat="43.7414259" lon="11.2871896"><ele>78.0</ele><time>2026-04-18T15:14:42.773Z</time></trkpt><trkpt lat="43.7415299" lon="11.2872236"><ele>78.0</ele><time>2026-04-18T15:14:43.769Z</time></trkpt><trkpt lat="43.7416338" lon="11.287279"><ele>78.0</ele><time>2026-04-18T15:14:44.77Z</time></trkpt><trkpt lat="43.7417385" lon="11.2873382"><ele>78.0</ele><time>2026-04-18T15:14:45.767Z</time></trkpt><trkpt lat="43.7418284" lon="11.2874163"><ele>78.0</ele><time>2026-04-18T15:14:46.775Z</time></trkpt><trkpt lat="43.7419076" lon="11.2874904"><ele>78.0</ele><time>2026-04-18T15:14:47.772Z</time></trkpt><trkpt lat="43.7419779" lon="11.2875705"><ele>78.0</ele><time>2026-04-18T15:14:48.773Z</time></trkpt><trkpt lat="43.7420557" lon="11.2876593"><ele>77.8</ele><time>2026-04-18T15:14:49.783Z</time></trkpt><trkpt lat="43.7421396" lon="11.2877391"><ele>77.6</ele><time>2026-04-18T15:14:50.782Z</time></trkpt><trkpt lat="43.7422285" lon="11.2878014"><ele>77.4</ele><time>2026-04-18T15:14:51.787Z</time></trkpt><trkpt lat="43.7423282" lon="11.2878251"><ele>77.2</ele><time>2026-04-18T15:14:52.784Z</time></trkpt><trkpt lat="43.7424239" lon="11.2878056"><ele>77.0</ele><time>2026-04-18T15:14:53.766Z</time></trkpt><trkpt lat="43.742511" lon="11.2877472"><ele>77.0</ele><time>2026-04-18T15:14:54.785Z</time></trkpt><trkpt lat="43.7425877" lon="11.287654"><ele>77.0</ele><time>2026-04-18T15:14:55.775Z</time></trkpt><trkpt lat="43.7426338" lon="11.28755"><ele>77.0</ele><time>2026-04-18T15:14:56.77Z</time></trkpt><trkpt lat="43.7426717" lon="11.2874378"><ele>77.0</ele><time>2026-04-18T15:14:57.787Z</time></trkpt><trkpt lat="43.742692" lon="11.2873114"><ele>77.0</ele><time>2026-04-18T15:14:58.773Z</time></trkpt><trkpt lat="43.7427085" lon="11.2871549"><ele>78.66666666666667</ele><time>2026-04-18T15:14:59.784Z</time></trkpt><trkpt lat="43.7427201" lon="11.286952"><ele>80.33333333333333</ele><time>2026-04-18T15:15:00.779Z</time></trkpt><trkpt lat="43.7427515" lon="11.2867384"><ele>82.0</ele><time>2026-04-18T15:15:01.775Z</time></trkpt><trkpt lat="43.7427933" lon="11.2865293"><ele>80.5</ele><time>2026-04-18T15:15:02.775Z</time></trkpt><trkpt lat="43.7428456" lon="11.2863474"><ele>79.0</ele><time>2026-04-18T15:15:03.777Z</time></trkpt><trkpt lat="43.7429001" lon="11.2862005"><ele>77.5</ele><time>2026-04-18T15:15:04.768Z</time></trkpt><trkpt lat="43.7429612" lon="11.2860639"><ele>76.0</ele><time>2026-04-18T15:15:05.772Z</time></trkpt><trkpt lat="43.7430242" lon="11.2859401"><ele>76.0</ele><time>2026-04-18T15:15:06.778Z</time></trkpt><trkpt lat="43.7430886" lon="11.2858205"><ele>76.0</ele><time>2026-04-18T15:15:07.775Z</time></trkpt><trkpt lat="43.7431678" lon="11.2856779"><ele>76.0</ele><time>2026-04-18T15:15:08.766Z</time></trkpt><trkpt lat="43.7432467" lon="11.2855231"><ele>76.0</ele><time>2026-04-18T15:15:09.772Z</time></trkpt><trkpt lat="43.7433369" lon="11.2853589"><ele>76.25</ele><time>2026-04-18T15:15:10.775Z</time></trkpt><trkpt lat="43.7434259" lon="11.2852145"><ele>76.5</ele><time>2026-04-18T15:15:11.777Z</time></trkpt><trkpt lat="43.7435028" lon="11.2850873"><ele>76.75</ele><time>2026-04-18T15:15:12.775Z</time></trkpt><trkpt lat="43.7435682" lon="11.2849593"><ele>77.0</ele><time>2026-04-18T15:15:13.78Z</time></trkpt><trkpt lat="43.7436405" lon="11.2848224"><ele>76.75</ele><time>2026-04-18T15:15:14.782Z</time></trkpt><trkpt lat="43.7437121" lon="11.2846579"><ele>76.5</ele><time>2026-04-18T15:15:15.767Z</time></trkpt><trkpt lat="43.7437968" lon="11.2844856"><ele>76.25</ele><time>2026-04-18T15:15:16.777Z</time></trkpt><trkpt lat="43.7438773" lon="11.2843171"><ele>76.0</ele><time>2026-04-18T15:15:17.794Z</time></trkpt><trkpt lat="43.7439449" lon="11.2841579"><ele>76.0</ele><time>2026-04-18T15:15:18.782Z</time></trkpt><trkpt lat="43.7440109" lon="11.2840104"><ele>76.0</ele><time>2026-04-18T15:15:19.865Z</time></trkpt><trkpt lat="43.7440718" lon="11.2838674"><ele>76.0</ele><time>2026-04-18T15:15:20.862Z</time></trkpt><trkpt lat="43.7441295" lon="11.2837313"><ele>76.0</ele><time>2026-04-18T15:15:21.864Z</time></trkpt><trkpt lat="43.7441846" lon="11.2836023"><ele>76.0</ele><time>2026-04-18T15:15:22.865Z</time></trkpt><trkpt lat="43.7442603" lon="11.2834829"><ele>76.0</ele><time>2026-04-18T15:15:23.859Z</time></trkpt><trkpt lat="43.7443533" lon="11.2833639"><ele>76.0</ele><time>2026-04-18T15:15:24.865Z</time></trkpt><trkpt lat="43.7444433" lon="11.2832723"><ele>76.0</ele><time>2026-04-18T15:15:25.839Z</time></trkpt><trkpt lat="43.7445312" lon="11.2832133"><ele>76.0</ele><time>2026-04-18T15:15:26.838Z</time></trkpt><trkpt lat="43.7446241" lon="11.2831691"><ele>76.0</ele><time>2026-04-18T15:15:27.841Z</time></trkpt><trkpt lat="43.7448044" lon="11.2831641"><ele>76.0</ele><time>2026-04-18T15:15:28.858Z</time></trkpt><trkpt lat="43.7449369" lon="11.2831647"><ele>76.0</ele><time>2026-04-18T15:15:29.86Z</time></trkpt><trkpt lat="43.7450575" lon="11.2831788"><ele>76.0</ele><time>2026-04-18T15:15:30.862Z</time></trkpt><trkpt lat="43.7451689" lon="11.2831999"><ele>76.0</ele><time>2026-04-18T15:15:31.844Z</time></trkpt><trkpt lat="43.7452705" lon="11.2832374"><ele>76.0</ele><time>2026-04-18T15:15:32.846Z</time></trkpt><trkpt lat="43.7453563" lon="11.2832871"><ele>76.0</ele><time>2026-04-18T15:15:33.846Z</time></trkpt><trkpt lat="43.7454374" lon="11.2833442"><ele>76.0</ele><time>2026-04-18T15:15:34.846Z</time></trkpt><trkpt lat="43.74553" lon="11.2834205"><ele>77.25</ele><time>2026-04-18T15:15:35.859Z</time></trkpt><trkpt lat="43.745623" lon="11.2835162"><ele>78.5</ele><time>2026-04-18T15:15:36.869Z</time></trkpt><trkpt lat="43.7457237" lon="11.2836281"><ele>79.75</ele><time>2026-04-18T15:15:37.871Z</time></trkpt><trkpt lat="43.7458189" lon="11.2837515"><ele>81.0</ele><time>2026-04-18T15:15:38.87Z</time></trkpt><trkpt lat="43.745906" lon="11.2838855"><ele>81.75</ele><time>2026-04-18T15:15:39.851Z</time></trkpt><trkpt lat="43.7459901" lon="11.2840395"><ele>82.5</ele><time>2026-04-18T15:15:40.841Z</time></trkpt><trkpt lat="43.746067" lon="11.2842094"><ele>83.25</ele><time>2026-04-18T15:15:41.851Z</time></trkpt><trkpt lat="43.7461439" lon="11.2844045"><ele>84.0</ele><time>2026-04-18T15:15:42.852Z</time></trkpt><trkpt lat="43.7462211" lon="11.2846314"><ele>88.66666666666666</ele><time>2026-04-18T15:15:43.857Z</time></trkpt><trkpt lat="43.7463002" lon="11.2848777"><ele>93.33333333333333</ele><time>2026-04-18T15:15:44.858Z</time></trkpt><trkpt lat="43.7463874" lon="11.285142"><ele>98.0</ele><time>2026-04-18T15:15:45.858Z</time></trkpt><trkpt lat="43.7464935" lon="11.2854223"><ele>96.5</ele><time>2026-04-18T15:15:46.856Z</time></trkpt><trkpt lat="43.7466222" lon="11.2857026"><ele>95.0</ele><time>2026-04-18T15:15:47.77Z</time></trkpt><trkpt lat="43.7467383" lon="11.2860179"><ele>95.0</ele><time>2026-04-18T15:15:48.772Z</time></trkpt><trkpt lat="43.7468575" lon="11.2863503"><ele>95.0</ele><time>2026-04-18T15:15:49.762Z</time></trkpt><trkpt lat="43.7469786" lon="11.2867008"><ele>97.5</ele><time>2026-04-18T15:15:50.783Z</time></trkpt><trkpt lat="43.7471146" lon="11.2870608"><ele>100.0</ele><time>2026-04-18T15:15:51.779Z</time></trkpt><trkpt lat="43.7472802" lon="11.2874584"><ele>100.0</ele><time>2026-04-18T15:15:52.766Z</time></trkpt><trkpt lat="43.7474525" lon="11.2878104"><ele>100.0</ele><time>2026-04-18T15:15:53.763Z</time></trkpt><trkpt lat="43.7476005" lon="11.2881351"><ele>101.5</ele><time>2026-04-18T15:15:54.769Z</time></trkpt><trkpt lat="43.7477593" lon="11.2884265"><ele>103.0</ele><time>2026-04-18T15:15:55.765Z</time></trkpt><trkpt lat="43.7478875" lon="11.2887091"><ele>100.66666666666667</ele><time>2026-04-18T15:15:56.763Z</time></trkpt><trkpt lat="43.7480132" lon="11.2889782"><ele>98.33333333333334</ele><time>2026-04-18T15:15:57.759Z</time></trkpt><trkpt lat="43.7480973" lon="11.2892355"><ele>96.0</ele><time>2026-04-18T15:15:58.753Z</time></trkpt><trkpt lat="43.7481696" lon="11.2894958"><ele>94.33333333333333</ele><time>2026-04-18T15:15:59.777Z</time></trkpt><trkpt lat="43.7482364" lon="11.2897737"><ele>92.66666666666666</ele><time>2026-04-18T15:16:00.766Z</time></trkpt><trkpt lat="43.7482911" lon="11.2900722"><ele>91.0</ele><time>2026-04-18T15:16:01.764Z</time></trkpt><trkpt lat="43.7483073" lon="11.2904013"><ele>89.0</ele><time>2026-04-18T15:16:02.764Z</time></trkpt><trkpt lat="43.7483164" lon="11.2907506"><ele>87.0</ele><time>2026-04-18T15:16:03.771Z</time></trkpt><trkpt lat="43.7483145" lon="11.2911318"><ele>83.5</ele><time>2026-04-18T15:16:04.775Z</time></trkpt><trkpt lat="43.7482881" lon="11.2915125"><ele>80.0</ele><time>2026-04-18T15:16:05.777Z</time></trkpt><trkpt lat="43.7482771" lon="11.2918467"><ele>80.0</ele><time>2026-04-18T15:16:06.771Z</time></trkpt><trkpt lat="43.7482562" lon="11.2921775"><ele>80.0</ele><time>2026-04-18T15:16:07.767Z</time></trkpt><trkpt lat="43.7482421" lon="11.2924843"><ele>80.5</ele><time>2026-04-18T15:16:08.775Z</time></trkpt><trkpt lat="43.7482264" lon="11.2928209"><ele>81.0</ele><time>2026-04-18T15:16:09.778Z</time></trkpt><trkpt lat="43.7482116" lon="11.2932096"><ele>79.0</ele><time>2026-04-18T15:16:10.776Z</time></trkpt><trkpt lat="43.74819" lon="11.2935567"><ele>77.0</ele><time>2026-04-18T15:16:11.772Z</time></trkpt><trkpt lat="43.7481814" lon="11.2938838"><ele>76.33333333333334</ele><time>2026-04-18T15:16:12.767Z</time></trkpt><trkpt lat="43.7481801" lon="11.2941876"><ele>75.66666666666667</ele><time>2026-04-18T15:16:13.783Z</time></trkpt><trkpt lat="43.7481796" lon="11.294471"><ele>75.0</ele><time>2026-04-18T15:16:14.775Z</time></trkpt><trkpt lat="43.7482071" lon="11.2947431"><ele>74.66666666666667</ele><time>2026-04-18T15:16:15.783Z</time></trkpt><trkpt lat="43.748249" lon="11.2949983"><ele>74.33333333333334</ele><time>2026-04-18T15:16:16.778Z</time></trkpt><trkpt lat="43.7483145" lon="11.2952551"><ele>74.0</ele><time>2026-04-18T15:16:17.773Z</time></trkpt><trkpt lat="43.7483855" lon="11.2954938"><ele>75.66666666666667</ele><time>2026-04-18T15:16:18.774Z</time></trkpt><trkpt lat="43.7484697" lon="11.2957045"><ele>77.33333333333333</ele><time>2026-04-18T15:16:19.768Z</time></trkpt><trkpt lat="43.7485668" lon="11.2959136"><ele>79.0</ele><time>2026-04-18T15:16:20.778Z</time></trkpt><trkpt lat="43.7486702" lon="11.296097"><ele>75.0</ele><time>2026-04-18T15:16:21.769Z</time></trkpt><trkpt lat="43.7487865" lon="11.2962653"><ele>71.0</ele><time>2026-04-18T15:16:22.768Z</time></trkpt><trkpt lat="43.7489134" lon="11.2963883"><ele>67.0</ele><time>2026-04-18T15:16:23.774Z</time></trkpt><trkpt lat="43.7490342" lon="11.2965228"><ele>67.0</ele><time>2026-04-18T15:16:24.771Z</time></trkpt><trkpt lat="43.749145" lon="11.2966548"><ele>67.0</ele><time>2026-04-18T15:16:25.775Z</time></trkpt><trkpt lat="43.7492652" lon="11.2967794"><ele>67.0</ele><time>2026-04-18T15:16:26.778Z</time></trkpt><trkpt lat="43.749382" lon="11.2969109"><ele>67.0</ele><time>2026-04-18T15:16:27.778Z</time></trkpt><trkpt lat="43.749501" lon="11.2970183"><ele>65.75</ele><time>2026-04-18T15:16:28.791Z</time></trkpt><trkpt lat="43.7496045" lon="11.2971425"><ele>64.5</ele><time>2026-04-18T15:16:29.777Z</time></trkpt><trkpt lat="43.7497178" lon="11.2972396"><ele>63.25</ele><time>2026-04-18T15:16:30.796Z</time></trkpt><trkpt lat="43.7498129" lon="11.2973512"><ele>62.0</ele><time>2026-04-18T15:16:31.774Z</time></trkpt><trkpt lat="43.7498912" lon="11.2974631"><ele>62.0</ele><time>2026-04-18T15:16:32.777Z</time></trkpt><trkpt lat="43.7499906" lon="11.2975569"><ele>62.0</ele><time>2026-04-18T15:16:33.781Z</time></trkpt><trkpt lat="43.7500884" lon="11.2976646"><ele>62.0</ele><time>2026-04-18T15:16:34.781Z</time></trkpt><trkpt lat="43.7501779" lon="11.2977827"><ele>62.0</ele><time>2026-04-18T15:16:35.779Z</time></trkpt><trkpt lat="43.7502826" lon="11.2978995"><ele>61.5</ele><time>2026-04-18T15:16:36.779Z</time></trkpt><trkpt lat="43.7503894" lon="11.298016"><ele>61.0</ele><time>2026-04-18T15:16:37.778Z</time></trkpt><trkpt lat="43.7505096" lon="11.2981273"><ele>60.5</ele><time>2026-04-18T15:16:38.781Z</time></trkpt><trkpt lat="43.7506442" lon="11.2982673"><ele>60.0</ele><time>2026-04-18T15:16:39.781Z</time></trkpt><trkpt lat="43.7507949" lon="11.2984193"><ele>60.0</ele><time>2026-04-18T15:16:40.776Z</time></trkpt><trkpt lat="43.7509522" lon="11.2985806"><ele>60.0</ele><time>2026-04-18T15:16:41.777Z</time></trkpt><trkpt lat="43.7511348" lon="11.2987599"><ele>60.0</ele><time>2026-04-18T15:16:42.776Z</time></trkpt><trkpt lat="43.751327" lon="11.2989385"><ele>59.5</ele><time>2026-04-18T15:16:43.783Z</time></trkpt><trkpt lat="43.7515339" lon="11.2991243"><ele>59.0</ele><time>2026-04-18T15:16:44.777Z</time></trkpt><trkpt lat="43.7517608" lon="11.2993134"><ele>56.0</ele><time>2026-04-18T15:16:45.779Z</time></trkpt><trkpt lat="43.7519925" lon="11.2994936"><ele>53.0</ele><time>2026-04-18T15:16:46.778Z</time></trkpt><trkpt lat="43.7522362" lon="11.2996771"><ele>55.0</ele><time>2026-04-18T15:16:47.78Z</time></trkpt><trkpt lat="43.7524678" lon="11.2998481"><ele>57.0</ele><time>2026-04-18T15:16:48.77Z</time></trkpt><trkpt lat="43.7526775" lon="11.2999849"><ele>56.66666666666667</ele><time>2026-04-18T15:16:49.77Z</time></trkpt><trkpt lat="43.7528864" lon="11.3001092"><ele>56.333333333333336</ele><time>2026-04-18T15:16:50.78Z</time></trkpt><trkpt lat="43.75308" lon="11.3002279"><ele>56.0</ele><time>2026-04-18T15:16:51.785Z</time></trkpt><trkpt lat="43.7532859" lon="11.3003523"><ele>56.0</ele><time>2026-04-18T15:16:52.781Z</time></trkpt><trkpt lat="43.753531" lon="11.3005078"><ele>56.0</ele><time>2026-04-18T15:16:53.777Z</time></trkpt><trkpt lat="43.7537859" lon="11.3006758"><ele>56.5</ele><time>2026-04-18T15:16:54.777Z</time></trkpt><trkpt lat="43.7540526" lon="11.3008357"><ele>57.0</ele><time>2026-04-18T15:16:55.787Z</time></trkpt><trkpt lat="43.7543413" lon="11.3009947"><ele>57.5</ele><time>2026-04-18T15:16:56.769Z</time></trkpt><trkpt lat="43.7546301" lon="11.3011561"><ele>58.0</ele><time>2026-04-18T15:16:57.778Z</time></trkpt><trkpt lat="43.754924" lon="11.3013239"><ele>57.5</ele><time>2026-04-18T15:16:58.786Z</time></trkpt><trkpt lat="43.7552207" lon="11.3014864"><ele>57.0</ele><time>2026-04-18T15:16:59.788Z</time></trkpt><trkpt lat="43.7555404" lon="11.3016673"><ele>57.0</ele><time>2026-04-18T15:17:00.788Z</time></trkpt><trkpt lat="43.7558405" lon="11.301845"><ele>57.0</ele><time>2026-04-18T15:17:01.813Z</time></trkpt><trkpt lat="43.7561226" lon="11.3020081"><ele>56.5</ele><time>2026-04-18T15:17:02.776Z</time></trkpt><trkpt lat="43.7563811" lon="11.3021583"><ele>56.0</ele><time>2026-04-18T15:17:03.79Z</time></trkpt><trkpt lat="43.7566195" lon="11.3022907"><ele>57.0</ele><time>2026-04-18T15:17:04.781Z</time></trkpt><trkpt lat="43.7568557" lon="11.3024353"><ele>58.0</ele><time>2026-04-18T15:17:05.791Z</time></trkpt><trkpt lat="43.7570883" lon="11.3025766"><ele>58.5</ele><time>2026-04-18T15:17:06.786Z</time></trkpt><trkpt lat="43.7573398" lon="11.3027138"><ele>59.0</ele><time>2026-04-18T15:17:07.788Z</time></trkpt><trkpt lat="43.757595" lon="11.3028646"><ele>59.5</ele><time>2026-04-18T15:17:08.783Z</time></trkpt><trkpt lat="43.7578602" lon="11.3030132"><ele>60.0</ele><time>2026-04-18T15:17:09.787Z</time></trkpt><trkpt lat="43.7581374" lon="11.3031887"><ele>58.5</ele><time>2026-04-18T15:17:10.788Z</time></trkpt><trkpt lat="43.7584147" lon="11.3033662"><ele>57.0</ele><time>2026-04-18T15:17:11.788Z</time></trkpt><trkpt lat="43.7586835" lon="11.3034991"><ele>55.5</ele><time>2026-04-18T15:17:12.788Z</time></trkpt><trkpt lat="43.7589522" lon="11.3036027"><ele>54.0</ele><time>2026-04-18T15:17:13.784Z</time></trkpt><trkpt lat="43.7592196" lon="11.3036872"><ele>55.0</ele><time>2026-04-18T15:17:14.788Z</time></trkpt><trkpt lat="43.7594946" lon="11.3037443"><ele>56.0</ele><time>2026-04-18T15:17:15.79Z</time></trkpt><trkpt lat="43.7597999" lon="11.3037512"><ele>56.0</ele><time>2026-04-18T15:17:16.792Z</time></trkpt><trkpt lat="43.7601268" lon="11.3037367"><ele>56.0</ele><time>2026-04-18T15:17:17.786Z</time></trkpt><trkpt lat="43.7604706" lon="11.3036989"><ele>56.0</ele><time>2026-04-18T15:17:18.778Z</time></trkpt><trkpt lat="43.7608071" lon="11.3036554"><ele>56.0</ele><time>2026-04-18T15:17:19.792Z</time></trkpt><trkpt lat="43.761096" lon="11.3036317"><ele>57.5</ele><time>2026-04-18T15:17:20.773Z</time></trkpt><trkpt lat="43.7613783" lon="11.3036062"><ele>59.0</ele><time>2026-04-18T15:17:21.796Z</time></trkpt><trkpt lat="43.7616324" lon="11.3035795"><ele>56.0</ele><time>2026-04-18T15:17:22.792Z</time></trkpt><trkpt lat="43.7618818" lon="11.3035555"><ele>53.0</ele><time>2026-04-18T15:17:23.785Z</time></trkpt><trkpt lat="43.7621136" lon="11.3035655"><ele>53.0</ele><time>2026-04-18T15:17:24.779Z</time></trkpt><trkpt lat="43.762335" lon="11.3036002"><ele>53.0</ele><time>2026-04-18T15:17:25.783Z</time></trkpt><trkpt lat="43.7625889" lon="11.3036665"><ele>50.5</ele><time>2026-04-18T15:17:26.794Z</time></trkpt><trkpt lat="43.7628661" lon="11.3037382"><ele>48.0</ele><time>2026-04-18T15:17:27.782Z</time></trkpt><trkpt lat="43.7631548" lon="11.3038156"><ele>48.0</ele><time>2026-04-18T15:17:28.784Z</time></trkpt><trkpt lat="43.763419" lon="11.3038813"><ele>48.0</ele><time>2026-04-18T15:17:29.787Z</time></trkpt><trkpt lat="43.7636441" lon="11.3039348"><ele>47.333333333333336</ele><time>2026-04-18T15:17:30.797Z</time></trkpt><trkpt lat="43.7638371" lon="11.3039866"><ele>46.66666666666667</ele><time>2026-04-18T15:17:31.803Z</time></trkpt><trkpt lat="43.7640022" lon="11.304038"><ele>46.0</ele><time>2026-04-18T15:17:32.79Z</time></trkpt><trkpt lat="43.7641554" lon="11.3040788"><ele>46.0</ele><time>2026-04-18T15:17:33.791Z</time></trkpt><trkpt lat="43.7642878" lon="11.3041159"><ele>46.0</ele><time>2026-04-18T15:17:34.79Z</time></trkpt><trkpt lat="43.7644094" lon="11.3041611"><ele>46.0</ele><time>2026-04-18T15:17:35.784Z</time></trkpt><trkpt lat="43.7645346" lon="11.3042"><ele>46.0</ele><time>2026-04-18T15:17:36.787Z</time></trkpt><trkpt lat="43.7646411" lon="11.3042703"><ele>47.8</ele><time>2026-04-18T15:17:37.78Z</time></trkpt><trkpt lat="43.7647224" lon="11.3043636"><ele>49.599999999999994</ele><time>2026-04-18T15:17:38.783Z</time></trkpt><trkpt lat="43.7647854" lon="11.3044662"><ele>51.4</ele><time>2026-04-18T15:17:39.762Z</time></trkpt><trkpt lat="43.7648389" lon="11.3045781"><ele>53.2</ele><time>2026-04-18T15:17:40.774Z</time></trkpt><trkpt lat="43.7648915" lon="11.3046781"><ele>55.0</ele><time>2026-04-18T15:17:41.782Z</time></trkpt><trkpt lat="43.7649395" lon="11.3047764"><ele>55.0</ele><time>2026-04-18T15:17:42.786Z</time></trkpt><trkpt lat="43.7649943" lon="11.3048795"><ele>55.0</ele><time>2026-04-18T15:17:43.785Z</time></trkpt><trkpt lat="43.7650539" lon="11.3049852"><ele>55.0</ele><time>2026-04-18T15:17:44.79Z</time></trkpt><trkpt lat="43.7651158" lon="11.3050866"><ele>55.0</ele><time>2026-04-18T15:17:45.791Z</time></trkpt><trkpt lat="43.7651648" lon="11.3051773"><ele>55.0</ele><time>2026-04-18T15:17:46.784Z</time></trkpt><trkpt lat="43.765232" lon="11.305298"><ele>55.8</ele><time>2026-04-18T15:17:48.778Z</time></trkpt><trkpt lat="43.7652801" lon="11.3053802"><ele>56.6</ele><time>2026-04-18T15:19:18.807Z</time></trkpt><trkpt lat="43.7653313" lon="11.3054532"><ele>57.400000000000006</ele><time>2026-04-18T15:19:20.771Z</time></trkpt><trkpt lat="43.7654347" lon="11.3054919"><ele>58.2</ele><time>2026-04-18T15:19:22.769Z</time></trkpt><trkpt lat="43.7655255" lon="11.3053542"><ele>59.0</ele><time>2026-04-18T15:19:24.78Z</time></trkpt><trkpt lat="43.7655611" lon="11.3052267"><ele>59.0</ele><time>2026-04-18T15:19:25.769Z</time></trkpt><trkpt lat="43.7655723" lon="11.3050876"><ele>59.00000000000001</ele><time>2026-04-18T15:19:26.783Z</time></trkpt><trkpt lat="43.7655776" lon="11.3049398"><ele>59.00000000000001</ele><time>2026-04-18T15:19:27.777Z</time></trkpt><trkpt lat="43.7655862" lon="11.3048042"><ele>59.0</ele><time>2026-04-18T15:19:28.777Z</time></trkpt><trkpt lat="43.7655975" lon="11.3046962"><ele>59.0</ele><time>2026-04-18T15:19:29.777Z</time></trkpt><trkpt lat="43.7656089" lon="11.3045862"><ele>58.800000000000004</ele><time>2026-04-18T15:19:30.778Z</time></trkpt><trkpt lat="43.7656251" lon="11.3044561"><ele>58.60000000000001</ele><time>2026-04-18T15:19:31.774Z</time></trkpt><trkpt lat="43.7656384" lon="11.3043166"><ele>58.4</ele><time>2026-04-18T15:19:32.779Z</time></trkpt><trkpt lat="43.7656505" lon="11.3041738"><ele>58.2</ele><time>2026-04-18T15:19:33.778Z</time></trkpt><trkpt lat="43.7656691" lon="11.3040334"><ele>58.0</ele><time>2026-04-18T15:19:34.781Z</time></trkpt><trkpt lat="43.7656837" lon="11.3038905"><ele>57.8</ele><time>2026-04-18T15:19:35.8Z</time></trkpt><trkpt lat="43.7656972" lon="11.3037418"><ele>57.599999999999994</ele><time>2026-04-18T15:19:36.784Z</time></trkpt><trkpt lat="43.765713" lon="11.3036013"><ele>57.400000000000006</ele><time>2026-04-18T15:19:37.785Z</time></trkpt><trkpt lat="43.7657309" lon="11.3034835"><ele>57.2</ele><time>2026-04-18T15:19:38.784Z</time></trkpt><trkpt lat="43.7657442" lon="11.3033565"><ele>57.0</ele><time>2026-04-18T15:19:39.802Z</time></trkpt><trkpt lat="43.7657555" lon="11.3032154"><ele>56.75</ele><time>2026-04-18T15:19:40.852Z</time></trkpt><trkpt lat="43.7657707" lon="11.3030536"><ele>56.5</ele><time>2026-04-18T15:19:41.848Z</time></trkpt><trkpt lat="43.7657907" lon="11.3028783"><ele>56.25</ele><time>2026-04-18T15:19:42.852Z</time></trkpt><trkpt lat="43.7658086" lon="11.3027079"><ele>56.0</ele><time>2026-04-18T15:19:43.868Z</time></trkpt><trkpt lat="43.7658274" lon="11.3025222"><ele>56.0</ele><time>2026-04-18T15:19:44.86Z</time></trkpt><trkpt lat="43.7658496" lon="11.3023203"><ele>56.0</ele><time>2026-04-18T15:19:45.858Z</time></trkpt><trkpt lat="43.7658796" lon="11.3021125"><ele>56.0</ele><time>2026-04-18T15:19:46.863Z</time></trkpt><trkpt lat="43.7659126" lon="11.3019076"><ele>55.5</ele><time>2026-04-18T15:19:47.867Z</time></trkpt><trkpt lat="43.7659408" lon="11.301713"><ele>55.0</ele><time>2026-04-18T15:19:48.862Z</time></trkpt><trkpt lat="43.7659668" lon="11.3015325"><ele>54.5</ele><time>2026-04-18T15:19:49.868Z</time></trkpt><trkpt lat="43.7659931" lon="11.3013522"><ele>54.0</ele><time>2026-04-18T15:19:50.866Z</time></trkpt><trkpt lat="43.7660201" lon="11.3011682"><ele>54.33333333333333</ele><time>2026-04-18T15:19:51.858Z</time></trkpt><trkpt lat="43.7660489" lon="11.30097"><ele>54.666666666666664</ele><time>2026-04-18T15:19:52.866Z</time></trkpt><trkpt lat="43.7660817" lon="11.3007549"><ele>55.0</ele><time>2026-04-18T15:19:53.861Z</time></trkpt><trkpt lat="43.7661219" lon="11.300522"><ele>54.33333333333333</ele><time>2026-04-18T15:19:54.876Z</time></trkpt><trkpt lat="43.766163" lon="11.30028"><ele>53.66666666666667</ele><time>2026-04-18T15:19:55.872Z</time></trkpt><trkpt lat="43.7662019" lon="11.3000287"><ele>53.0</ele><time>2026-04-18T15:19:56.868Z</time></trkpt><trkpt lat="43.7662397" lon="11.2997667"><ele>53.0</ele><time>2026-04-18T15:19:57.871Z</time></trkpt><trkpt lat="43.7662774" lon="11.2995119"><ele>53.0</ele><time>2026-04-18T15:19:58.87Z</time></trkpt><trkpt lat="43.7663168" lon="11.2992799"><ele>53.0</ele><time>2026-04-18T15:19:59.857Z</time></trkpt><trkpt lat="43.766354" lon="11.2990554"><ele>53.0</ele><time>2026-04-18T15:20:00.872Z</time></trkpt><trkpt lat="43.7663913" lon="11.2988443"><ele>53.0</ele><time>2026-04-18T15:20:01.871Z</time></trkpt><trkpt lat="43.7664247" lon="11.2986332"><ele>53.0</ele><time>2026-04-18T15:20:02.875Z</time></trkpt><trkpt lat="43.7664577" lon="11.2984141"><ele>53.0</ele><time>2026-04-18T15:20:03.88Z</time></trkpt><trkpt lat="43.7664937" lon="11.298203"><ele>53.0</ele><time>2026-04-18T15:20:04.879Z</time></trkpt><trkpt lat="43.7665309" lon="11.2979968"><ele>53.0</ele><time>2026-04-18T15:20:05.876Z</time></trkpt><trkpt lat="43.7665677" lon="11.2977924"><ele>53.0</ele><time>2026-04-18T15:20:06.894Z</time></trkpt><trkpt lat="43.7666052" lon="11.2975994"><ele>53.0</ele><time>2026-04-18T15:20:07.876Z</time></trkpt><trkpt lat="43.7666404" lon="11.2974227"><ele>53.0</ele><time>2026-04-18T15:20:08.875Z</time></trkpt><trkpt lat="43.7666689" lon="11.2972759"><ele>53.0</ele><time>2026-04-18T15:20:09.873Z</time></trkpt><trkpt lat="43.7666944" lon="11.2971642"><ele>53.00000000000001</ele><time>2026-04-18T15:20:10.869Z</time></trkpt><trkpt lat="43.7667276" lon="11.2970501"><ele>53.0</ele><time>2026-04-18T15:20:12.863Z</time></trkpt><trkpt lat="43.7667604" lon="11.2969674"><ele>53.0</ele><time>2026-04-18T15:20:14.88Z</time></trkpt><trkpt lat="43.7668146" lon="11.2969089"><ele>53.0</ele><time>2026-04-18T15:20:16.879Z</time></trkpt><trkpt lat="43.7669246" lon="11.296871"><ele>53.00000000000001</ele><time>2026-04-18T15:20:18.87Z</time></trkpt><trkpt lat="43.7669951" lon="11.2968933"><ele>53.0</ele><time>2026-04-18T15:20:19.844Z</time></trkpt><trkpt lat="43.7670757" lon="11.2969206"><ele>52.833333333333336</ele><time>2026-04-18T15:20:20.845Z</time></trkpt><trkpt lat="43.7671539" lon="11.2969541"><ele>52.66666666666667</ele><time>2026-04-18T15:20:21.846Z</time></trkpt><trkpt lat="43.7672173" lon="11.2969837"><ele>52.5</ele><time>2026-04-18T15:20:22.851Z</time></trkpt><trkpt lat="43.767285" lon="11.2970192"><ele>52.33333333333333</ele><time>2026-04-18T15:20:23.873Z</time></trkpt><trkpt lat="43.7673767" lon="11.2970599"><ele>52.166666666666664</ele><time>2026-04-18T15:20:24.872Z</time></trkpt><trkpt lat="43.7674642" lon="11.2970959"><ele>52.0</ele><time>2026-04-18T15:20:25.869Z</time></trkpt><trkpt lat="43.7675588" lon="11.2971389"><ele>51.99999999999999</ele><time>2026-04-18T15:20:26.86Z</time></trkpt><trkpt lat="43.7676445" lon="11.2971752"><ele>52.0</ele><time>2026-04-18T15:20:27.86Z</time></trkpt><trkpt lat="43.7677145" lon="11.2972119"><ele>52.0</ele><time>2026-04-18T15:20:28.867Z</time></trkpt><trkpt lat="43.7677814" lon="11.2972398"><ele>52.0</ele><time>2026-04-18T15:20:29.863Z</time></trkpt><trkpt lat="43.7678933" lon="11.2972678"><ele>51.99999999999999</ele><time>2026-04-18T15:20:31.855Z</time></trkpt><trkpt lat="43.7679942" lon="11.2972639"><ele>52.0</ele><time>2026-04-18T15:20:33.829Z</time></trkpt><trkpt lat="43.7680502" lon="11.2972158"><ele>52.2</ele><time>2026-04-18T15:20:34.839Z</time></trkpt><trkpt lat="43.7681247" lon="11.2971667"><ele>52.400000000000006</ele><time>2026-04-18T15:20:35.843Z</time></trkpt><trkpt lat="43.7682313" lon="11.2971905"><ele>52.599999999999994</ele><time>2026-04-18T15:20:36.774Z</time></trkpt><trkpt lat="43.7683252" lon="11.2972124"><ele>52.8</ele><time>2026-04-18T15:20:37.779Z</time></trkpt><trkpt lat="43.7684399" lon="11.2972422"><ele>53.0</ele><time>2026-04-18T15:20:38.776Z</time></trkpt><trkpt lat="43.7685739" lon="11.2972624"><ele>53.0</ele><time>2026-04-18T15:20:39.774Z</time></trkpt><trkpt lat="43.7687263" lon="11.2972739"><ele>53.0</ele><time>2026-04-18T15:20:40.763Z</time></trkpt><trkpt lat="43.7689067" lon="11.2972569"><ele>53.0</ele><time>2026-04-18T15:20:41.744Z</time></trkpt><trkpt lat="43.7690812" lon="11.297243"><ele>52.66666666666667</ele><time>2026-04-18T15:20:42.743Z</time></trkpt><trkpt lat="43.7692461" lon="11.2972147"><ele>52.33333333333333</ele><time>2026-04-18T15:20:43.75Z</time></trkpt><trkpt lat="43.7693952" lon="11.2971782"><ele>52.0</ele><time>2026-04-18T15:20:44.768Z</time></trkpt><trkpt lat="43.7695446" lon="11.2971518"><ele>51.99999999999999</ele><time>2026-04-18T15:20:45.778Z</time></trkpt><trkpt lat="43.7696449" lon="11.2971749"><ele>52.0</ele><time>2026-04-18T15:20:46.778Z</time></trkpt><trkpt lat="43.7697219" lon="11.2971691"><ele>52.0</ele><time>2026-04-18T15:20:47.777Z</time></trkpt><trkpt lat="43.7698205" lon="11.2972134"><ele>52.0</ele><time>2026-04-18T15:20:49.775Z</time></trkpt><trkpt lat="43.7699015" lon="11.2972576"><ele>51.99999999999999</ele><time>2026-04-18T15:20:51.776Z</time></trkpt><trkpt lat="43.7699703" lon="11.2972889"><ele>52.0</ele><time>2026-04-18T15:20:53.783Z</time></trkpt><trkpt lat="43.7700378" lon="11.297319"><ele>51.99999999999999</ele><time>2026-04-18T15:20:55.783Z</time></trkpt><trkpt lat="43.7700931" lon="11.297379"><ele>52.0</ele><time>2026-04-18T15:21:00.801Z</time></trkpt><trkpt lat="43.7701383" lon="11.2974748"><ele>52.0</ele><time>2026-04-18T15:21:03.78Z</time></trkpt><trkpt lat="43.7702252" lon="11.2975177"><ele>52.0</ele><time>2026-04-18T15:21:05.783Z</time></trkpt><trkpt lat="43.770293" lon="11.2975212"><ele>51.99999999999999</ele><time>2026-04-18T15:21:06.773Z</time></trkpt><trkpt lat="43.7703631" lon="11.297534"><ele>52.0</ele><time>2026-04-18T15:21:07.784Z</time></trkpt><trkpt lat="43.7704417" lon="11.2975772"><ele>52.2</ele><time>2026-04-18T15:21:08.807Z</time></trkpt><trkpt lat="43.7705223" lon="11.2976603"><ele>52.400000000000006</ele><time>2026-04-18T15:21:09.78Z</time></trkpt><trkpt lat="43.7705927" lon="11.2977593"><ele>52.599999999999994</ele><time>2026-04-18T15:21:10.784Z</time></trkpt><trkpt lat="43.7706627" lon="11.2978732"><ele>52.8</ele><time>2026-04-18T15:21:11.775Z</time></trkpt><trkpt lat="43.7707289" lon="11.297985"><ele>53.0</ele><time>2026-04-18T15:21:12.77Z</time></trkpt><trkpt lat="43.770773" lon="11.2980887"><ele>53.333333333333336</ele><time>2026-04-18T15:21:13.775Z</time></trkpt><trkpt lat="43.7708087" lon="11.2981841"><ele>53.66666666666667</ele><time>2026-04-18T15:21:14.777Z</time></trkpt><trkpt lat="43.7708428" lon="11.2982911"><ele>54.0</ele><time>2026-04-18T15:21:15.778Z</time></trkpt><trkpt lat="43.7708962" lon="11.298392"><ele>54.33333333333333</ele><time>2026-04-18T15:21:16.767Z</time></trkpt><trkpt lat="43.7709591" lon="11.2984554"><ele>54.666666666666664</ele><time>2026-04-18T15:21:17.78Z</time></trkpt><trkpt lat="43.7710629" lon="11.2984719"><ele>55.0</ele><time>2026-04-18T15:21:18.763Z</time></trkpt><trkpt lat="43.7711626" lon="11.2984905"><ele>55.0</ele><time>2026-04-18T15:21:19.775Z</time></trkpt><trkpt lat="43.7712555" lon="11.2985128"><ele>55.0</ele><time>2026-04-18T15:21:20.773Z</time></trkpt><trkpt lat="43.7713538" lon="11.2985329"><ele>55.0</ele><time>2026-04-18T15:21:21.771Z</time></trkpt><trkpt lat="43.7714653" lon="11.2985756"><ele>55.0</ele><time>2026-04-18T15:21:22.77Z</time></trkpt><trkpt lat="43.7715881" lon="11.2986337"><ele>55.0</ele><time>2026-04-18T15:21:23.774Z</time></trkpt><trkpt lat="43.7717216" lon="11.2986816"><ele>55.0</ele><time>2026-04-18T15:21:24.773Z</time></trkpt><trkpt lat="43.7718421" lon="11.298746"><ele>55.0</ele><time>2026-04-18T15:21:25.774Z</time></trkpt><trkpt lat="43.7719649" lon="11.2987959"><ele>55.0</ele><time>2026-04-18T15:21:26.773Z</time></trkpt><trkpt lat="43.7720882" lon="11.2988475"><ele>55.0</ele><time>2026-04-18T15:21:27.773Z</time></trkpt><trkpt lat="43.7721915" lon="11.2988959"><ele>55.6</ele><time>2026-04-18T15:21:28.776Z</time></trkpt><trkpt lat="43.7722701" lon="11.2989238"><ele>56.2</ele><time>2026-04-18T15:21:29.761Z</time></trkpt><trkpt lat="43.7723596" lon="11.2989653"><ele>56.8</ele><time>2026-04-18T15:21:31.761Z</time></trkpt><trkpt lat="43.7724727" lon="11.2990248"><ele>57.4</ele><time>2026-04-18T15:21:33.767Z</time></trkpt><trkpt lat="43.7725672" lon="11.2990926"><ele>58.0</ele><time>2026-04-18T15:21:34.763Z</time></trkpt><trkpt lat="43.7726885" lon="11.2991434"><ele>58.33333333333333</ele><time>2026-04-18T15:21:35.764Z</time></trkpt><trkpt lat="43.772824" lon="11.2992046"><ele>58.66666666666667</ele><time>2026-04-18T15:21:36.766Z</time></trkpt><trkpt lat="43.7729668" lon="11.2993071"><ele>59.0</ele><time>2026-04-18T15:21:37.768Z</time></trkpt><trkpt lat="43.7731013" lon="11.2994338"><ele>59.0</ele><time>2026-04-18T15:21:38.76Z</time></trkpt><trkpt lat="43.7732233" lon="11.2995538"><ele>59.0</ele><time>2026-04-18T15:21:39.794Z</time></trkpt><trkpt lat="43.7733391" lon="11.2996588"><ele>59.0</ele><time>2026-04-18T15:21:40.768Z</time></trkpt><trkpt lat="43.7734568" lon="11.2997471"><ele>59.0</ele><time>2026-04-18T15:21:41.766Z</time></trkpt><trkpt lat="43.7735658" lon="11.2998119"><ele>59.2</ele><time>2026-04-18T15:21:42.767Z</time></trkpt><trkpt lat="43.7736687" lon="11.2998773"><ele>59.400000000000006</ele><time>2026-04-18T15:21:43.763Z</time></trkpt><trkpt lat="43.7737553" lon="11.2999359"><ele>59.6</ele><time>2026-04-18T15:21:44.773Z</time></trkpt><trkpt lat="43.7738288" lon="11.299996"><ele>59.8</ele><time>2026-04-18T15:21:45.776Z</time></trkpt><trkpt lat="43.7739068" lon="11.3000668"><ele>60.0</ele><time>2026-04-18T15:21:46.779Z</time></trkpt><trkpt lat="43.7739806" lon="11.3001313"><ele>60.0</ele><time>2026-04-18T15:21:47.781Z</time></trkpt><trkpt lat="43.7740655" lon="11.3002052"><ele>60.0</ele><time>2026-04-18T15:21:48.778Z</time></trkpt><trkpt lat="43.7741468" lon="11.300276"><ele>60.0</ele><time>2026-04-18T15:21:49.779Z</time></trkpt><trkpt lat="43.7742522" lon="11.3003411"><ele>60.0</ele><time>2026-04-18T15:21:50.769Z</time></trkpt><trkpt lat="43.7743746" lon="11.3004159"><ele>60.0</ele><time>2026-04-18T15:21:51.778Z</time></trkpt><trkpt lat="43.7745164" lon="11.3004972"><ele>59.66666666666667</ele><time>2026-04-18T15:21:52.776Z</time></trkpt><trkpt lat="43.7746857" lon="11.3006074"><ele>59.333333333333336</ele><time>2026-04-18T15:21:53.761Z</time></trkpt><trkpt lat="43.7748254" lon="11.3007306"><ele>59.0</ele><time>2026-04-18T15:21:54.768Z</time></trkpt><trkpt lat="43.7749402" lon="11.3008533"><ele>59.0</ele><time>2026-04-18T15:21:55.765Z</time></trkpt><trkpt lat="43.7750634" lon="11.3009351"><ele>59.0</ele><time>2026-04-18T15:21:56.768Z</time></trkpt><trkpt lat="43.7751599" lon="11.301034"><ele>59.0</ele><time>2026-04-18T15:21:57.772Z</time></trkpt><trkpt lat="43.7752432" lon="11.3011134"><ele>59.0</ele><time>2026-04-18T15:21:58.759Z</time></trkpt><trkpt lat="43.7753316" lon="11.3011851"><ele>59.5</ele><time>2026-04-18T15:21:59.77Z</time></trkpt><trkpt lat="43.7754288" lon="11.3012493"><ele>60.0</ele><time>2026-04-18T15:22:00.775Z</time></trkpt><trkpt lat="43.7755131" lon="11.3013204"><ele>60.5</ele><time>2026-04-18T15:22:01.773Z</time></trkpt><trkpt lat="43.7756212" lon="11.3013868"><ele>61.0</ele><time>2026-04-18T15:22:02.775Z</time></trkpt><trkpt lat="43.77575" lon="11.3014617"><ele>61.0</ele><time>2026-04-18T15:22:03.772Z</time></trkpt><trkpt lat="43.7758929" lon="11.3015337"><ele>61.0</ele><time>2026-04-18T15:22:04.772Z</time></trkpt><trkpt lat="43.7760519" lon="11.3016079"><ele>61.0</ele><time>2026-04-18T15:22:05.77Z</time></trkpt><trkpt lat="43.7761983" lon="11.3017204"><ele>61.75</ele><time>2026-04-18T15:22:06.772Z</time></trkpt><trkpt lat="43.7763333" lon="11.3018155"><ele>62.5</ele><time>2026-04-18T15:22:07.766Z</time></trkpt><trkpt lat="43.7764439" lon="11.301899"><ele>63.25</ele><time>2026-04-18T15:22:08.774Z</time></trkpt><trkpt lat="43.7765469" lon="11.301982"><ele>64.0</ele><time>2026-04-18T15:22:09.784Z</time></trkpt><trkpt lat="43.7766532" lon="11.3020532"><ele>64.0</ele><time>2026-04-18T15:22:10.767Z</time></trkpt><trkpt lat="43.7767625" lon="11.3021314"><ele>64.0</ele><time>2026-04-18T15:22:11.772Z</time></trkpt><trkpt lat="43.7768905" lon="11.3022053"><ele>64.0</ele><time>2026-04-18T15:22:12.771Z</time></trkpt><trkpt lat="43.7770045" lon="11.302295"><ele>64.0</ele><time>2026-04-18T15:22:13.77Z</time></trkpt><trkpt lat="43.7771351" lon="11.3023727"><ele>63.25</ele><time>2026-04-18T15:22:14.77Z</time></trkpt><trkpt lat="43.7772793" lon="11.3024205"><ele>62.5</ele><time>2026-04-18T15:22:15.768Z</time></trkpt><trkpt lat="43.7774091" lon="11.302457"><ele>61.75</ele><time>2026-04-18T15:22:16.779Z</time></trkpt><trkpt lat="43.7775234" lon="11.3024725"><ele>61.0</ele><time>2026-04-18T15:22:17.769Z</time></trkpt><trkpt lat="43.7776087" lon="11.3024712"><ele>61.0</ele><time>2026-04-18T15:22:18.784Z</time></trkpt><trkpt lat="43.777684" lon="11.3024502"><ele>60.99999999999999</ele><time>2026-04-18T15:22:27.786Z</time></trkpt><trkpt lat="43.7777737" lon="11.3024349"><ele>60.99999999999999</ele><time>2026-04-18T15:22:29.769Z</time></trkpt><trkpt lat="43.7778791" lon="11.3023163"><ele>61.0</ele><time>2026-04-18T15:22:31.773Z</time></trkpt><trkpt lat="43.7779318" lon="11.302198"><ele>61.0</ele><time>2026-04-18T15:22:32.766Z</time></trkpt><trkpt lat="43.7779838" lon="11.3020844"><ele>60.99999999999999</ele><time>2026-04-18T15:22:33.776Z</time></trkpt><trkpt lat="43.7780322" lon="11.3019768"><ele>61.0</ele><time>2026-04-18T15:22:34.761Z</time></trkpt><trkpt lat="43.7780708" lon="11.3018828"><ele>61.0</ele><time>2026-04-18T15:22:35.768Z</time></trkpt><trkpt lat="43.7781072" lon="11.3017806"><ele>61.0</ele><time>2026-04-18T15:22:36.772Z</time></trkpt><trkpt lat="43.7781444" lon="11.3016694"><ele>60.99999999999999</ele><time>2026-04-18T15:22:37.767Z</time></trkpt><trkpt lat="43.7781852" lon="11.3015495"><ele>61.0</ele><time>2026-04-18T15:22:38.761Z</time></trkpt><trkpt lat="43.778217" lon="11.3014049"><ele>61.0</ele><time>2026-04-18T15:22:39.762Z</time></trkpt><trkpt lat="43.7782573" lon="11.3012349"><ele>61.0</ele><time>2026-04-18T15:22:40.783Z</time></trkpt><trkpt lat="43.7783028" lon="11.3010614"><ele>61.0</ele><time>2026-04-18T15:22:41.768Z</time></trkpt><trkpt lat="43.7783443" lon="11.300878"><ele>61.0</ele><time>2026-04-18T15:22:42.769Z</time></trkpt><trkpt lat="43.7783915" lon="11.3006888"><ele>61.25</ele><time>2026-04-18T15:22:43.77Z</time></trkpt><trkpt lat="43.7784439" lon="11.300503"><ele>61.5</ele><time>2026-04-18T15:22:44.768Z</time></trkpt><trkpt lat="43.7784924" lon="11.3003149"><ele>61.75</ele><time>2026-04-18T15:22:45.765Z</time></trkpt><trkpt lat="43.7785338" lon="11.3001213"><ele>62.0</ele><time>2026-04-18T15:22:46.761Z</time></trkpt><trkpt lat="43.778581" lon="11.2999367"><ele>62.0</ele><time>2026-04-18T15:22:47.763Z</time></trkpt><trkpt lat="43.778625" lon="11.2997378"><ele>62.0</ele><time>2026-04-18T15:22:48.762Z</time></trkpt><trkpt lat="43.7786557" lon="11.299557"><ele>62.0</ele><time>2026-04-18T15:22:49.753Z</time></trkpt><trkpt lat="43.7786632" lon="11.2993636"><ele>62.0</ele><time>2026-04-18T15:22:50.773Z</time></trkpt><trkpt lat="43.778674" lon="11.2991727"><ele>62.0</ele><time>2026-04-18T15:22:51.771Z</time></trkpt><trkpt lat="43.7786981" lon="11.2989696"><ele>62.0</ele><time>2026-04-18T15:22:52.767Z</time></trkpt><trkpt lat="43.7787587" lon="11.2987732"><ele>62.0</ele><time>2026-04-18T15:22:53.767Z</time></trkpt><trkpt lat="43.7788369" lon="11.2985621"><ele>62.0</ele><time>2026-04-18T15:22:54.764Z</time></trkpt><trkpt lat="43.7789265" lon="11.2983509"><ele>62.0</ele><time>2026-04-18T15:22:55.766Z</time></trkpt><trkpt lat="43.7789967" lon="11.2981705"><ele>62.0</ele><time>2026-04-18T15:22:56.77Z</time></trkpt><trkpt lat="43.7790662" lon="11.2979683"><ele>62.25</ele><time>2026-04-18T15:22:57.765Z</time></trkpt><trkpt lat="43.7791137" lon="11.2977921"><ele>62.5</ele><time>2026-04-18T15:22:58.769Z</time></trkpt><trkpt lat="43.7791689" lon="11.2976213"><ele>62.75</ele><time>2026-04-18T15:22:59.756Z</time></trkpt><trkpt lat="43.7791934" lon="11.2974746"><ele>63.0</ele><time>2026-04-18T15:23:00.752Z</time></trkpt><trkpt lat="43.7792519" lon="11.2973546"><ele>62.8</ele><time>2026-04-18T15:23:01.753Z</time></trkpt><trkpt lat="43.7793084" lon="11.2972357"><ele>62.599999999999994</ele><time>2026-04-18T15:23:02.755Z</time></trkpt><trkpt lat="43.7793683" lon="11.2970934"><ele>62.400000000000006</ele><time>2026-04-18T15:23:03.751Z</time></trkpt><trkpt lat="43.7794108" lon="11.296996"><ele>62.2</ele><time>2026-04-18T15:23:04.752Z</time></trkpt><trkpt lat="43.7794518" lon="11.2968849"><ele>62.0</ele><time>2026-04-18T15:23:05.744Z</time></trkpt><trkpt lat="43.7794953" lon="11.2967672"><ele>62.0</ele><time>2026-04-18T15:23:06.75Z</time></trkpt><trkpt lat="43.7795332" lon="11.2966652"><ele>62.0</ele><time>2026-04-18T15:23:07.76Z</time></trkpt><trkpt lat="43.7795715" lon="11.2965816"><ele>62.0</ele><time>2026-04-18T15:23:08.764Z</time></trkpt><trkpt lat="43.7796069" lon="11.2964806"><ele>62.0</ele><time>2026-04-18T15:23:09.767Z</time></trkpt><trkpt lat="43.7796626" lon="11.2963477"><ele>62.0</ele><time>2026-04-18T15:23:10.76Z</time></trkpt><trkpt lat="43.7797186" lon="11.2961915"><ele>61.333333333333336</ele><time>2026-04-18T15:23:11.771Z</time></trkpt><trkpt lat="43.7797734" lon="11.2960098"><ele>60.66666666666667</ele><time>2026-04-18T15:23:12.756Z</time></trkpt><trkpt lat="43.779841" lon="11.2958045"><ele>60.0</ele><time>2026-04-18T15:23:13.767Z</time></trkpt><trkpt lat="43.7799116" lon="11.2955722"><ele>60.0</ele><time>2026-04-18T15:23:14.774Z</time></trkpt><trkpt lat="43.779999" lon="11.2953777"><ele>60.0</ele><time>2026-04-18T15:23:15.774Z</time></trkpt><trkpt lat="43.780091" lon="11.295202"><ele>60.0</ele><time>2026-04-18T15:23:16.765Z</time></trkpt><trkpt lat="43.7801595" lon="11.295047"><ele>60.0</ele><time>2026-04-18T15:23:17.768Z</time></trkpt><trkpt lat="43.7802228" lon="11.2948953"><ele>60.0</ele><time>2026-04-18T15:23:18.768Z</time></trkpt><trkpt lat="43.7802699" lon="11.2947636"><ele>60.0</ele><time>2026-04-18T15:23:19.778Z</time></trkpt><trkpt lat="43.7803227" lon="11.2946299"><ele>60.0</ele><time>2026-04-18T15:23:20.771Z</time></trkpt><trkpt lat="43.7803651" lon="11.2945261"><ele>60.0</ele><time>2026-04-18T15:23:21.772Z</time></trkpt><trkpt lat="43.7804128" lon="11.2944235"><ele>60.4</ele><time>2026-04-18T15:23:22.767Z</time></trkpt><trkpt lat="43.7804482" lon="11.2943424"><ele>60.8</ele><time>2026-04-18T15:23:23.768Z</time></trkpt><trkpt lat="43.7805251" lon="11.2942001"><ele>61.2</ele><time>2026-04-18T15:23:25.76Z</time></trkpt><trkpt lat="43.7805752" lon="11.2940977"><ele>61.6</ele><time>2026-04-18T15:23:26.759Z</time></trkpt><trkpt lat="43.780625" lon="11.2939852"><ele>62.0</ele><time>2026-04-18T15:23:27.75Z</time></trkpt><trkpt lat="43.7806931" lon="11.2938299"><ele>62.0</ele><time>2026-04-18T15:23:28.76Z</time></trkpt><trkpt lat="43.7807621" lon="11.2936546"><ele>62.0</ele><time>2026-04-18T15:23:29.75Z</time></trkpt><trkpt lat="43.7808235" lon="11.2934808"><ele>62.0</ele><time>2026-04-18T15:23:30.751Z</time></trkpt><trkpt lat="43.7808824" lon="11.2933071"><ele>62.0</ele><time>2026-04-18T15:23:31.746Z</time></trkpt><trkpt lat="43.7809318" lon="11.2931735"><ele>61.833333333333336</ele><time>2026-04-18T15:23:32.746Z</time></trkpt><trkpt lat="43.7809442" lon="11.29306"><ele>61.66666666666667</ele><time>2026-04-18T15:23:33.747Z</time></trkpt><trkpt lat="43.7809657" lon="11.2929105"><ele>61.5</ele><time>2026-04-18T15:23:35.754Z</time></trkpt><trkpt lat="43.7809703" lon="11.2927988"><ele>61.33333333333333</ele><time>2026-04-18T15:23:37.753Z</time></trkpt><trkpt lat="43.7810186" lon="11.2926903"><ele>61.166666666666664</ele><time>2026-04-18T15:23:40.78Z</time></trkpt><trkpt lat="43.7810941" lon="11.2926654"><ele>61.0</ele><time>2026-04-18T15:23:42.78Z</time></trkpt><trkpt lat="43.7812017" lon="11.2927282"><ele>61.599999999999994</ele><time>2026-04-18T15:23:44.78Z</time></trkpt><trkpt lat="43.7812845" lon="11.2928134"><ele>62.199999999999996</ele><time>2026-04-18T15:23:45.76Z</time></trkpt><trkpt lat="43.7813796" lon="11.2929055"><ele>62.800000000000004</ele><time>2026-04-18T15:23:46.77Z</time></trkpt><trkpt lat="43.7814843" lon="11.2929923"><ele>63.400000000000006</ele><time>2026-04-18T15:23:47.772Z</time></trkpt><trkpt lat="43.7815759" lon="11.2930689"><ele>64.0</ele><time>2026-04-18T15:23:48.777Z</time></trkpt><trkpt lat="43.7816528" lon="11.2931261"><ele>64.0</ele><time>2026-04-18T15:23:49.776Z</time></trkpt><trkpt lat="43.7817334" lon="11.2932035"><ele>64.0</ele><time>2026-04-18T15:23:50.775Z</time></trkpt><trkpt lat="43.7818239" lon="11.2932828"><ele>64.0</ele><time>2026-04-18T15:23:51.774Z</time></trkpt><trkpt lat="43.7819308" lon="11.2933676"><ele>64.0</ele><time>2026-04-18T15:23:52.771Z</time></trkpt><trkpt lat="43.7820537" lon="11.2934608"><ele>64.0</ele><time>2026-04-18T15:23:53.771Z</time></trkpt><trkpt lat="43.7821853" lon="11.2935491"><ele>64.0</ele><time>2026-04-18T15:23:54.768Z</time></trkpt><trkpt lat="43.782326" lon="11.2936244"><ele>64.0</ele><time>2026-04-18T15:23:55.771Z</time></trkpt><trkpt lat="43.7824616" lon="11.2937092"><ele>64.0</ele><time>2026-04-18T15:23:56.771Z</time></trkpt><trkpt lat="43.7826127" lon="11.2937812"><ele>64.0</ele><time>2026-04-18T15:23:57.77Z</time></trkpt><trkpt lat="43.7827475" lon="11.2938611"><ele>64.0</ele><time>2026-04-18T15:23:58.782Z</time></trkpt><trkpt lat="43.7828687" lon="11.2939259"><ele>64.0</ele><time>2026-04-18T15:23:59.779Z</time></trkpt><trkpt lat="43.7829825" lon="11.2939787"><ele>64.0</ele><time>2026-04-18T15:24:00.788Z</time></trkpt><trkpt lat="43.7830982" lon="11.2940348"><ele>64.0</ele><time>2026-04-18T15:24:01.778Z</time></trkpt><trkpt lat="43.7832322" lon="11.2940689"><ele>64.0</ele><time>2026-04-18T15:24:02.773Z</time></trkpt><trkpt lat="43.7833757" lon="11.2941155"><ele>64.0</ele><time>2026-04-18T15:24:03.772Z</time></trkpt><trkpt lat="43.7835437" lon="11.2941897"><ele>64.33333333333333</ele><time>2026-04-18T15:24:04.8Z</time></trkpt><trkpt lat="43.7837146" lon="11.2942309"><ele>64.66666666666667</ele><time>2026-04-18T15:24:05.858Z</time></trkpt><trkpt lat="43.7838967" lon="11.294267"><ele>65.0</ele><time>2026-04-18T15:24:06.86Z</time></trkpt><trkpt lat="43.7840871" lon="11.2942889"><ele>65.0</ele><time>2026-04-18T15:24:07.863Z</time></trkpt><trkpt lat="43.7842672" lon="11.2943052"><ele>65.0</ele><time>2026-04-18T15:24:08.851Z</time></trkpt><trkpt lat="43.7844563" lon="11.2943272"><ele>65.0</ele><time>2026-04-18T15:24:09.868Z</time></trkpt><trkpt lat="43.7845925" lon="11.2943402"><ele>65.33333333333334</ele><time>2026-04-18T15:24:10.859Z</time></trkpt><trkpt lat="43.7847077" lon="11.2943497"><ele>65.66666666666667</ele><time>2026-04-18T15:24:11.851Z</time></trkpt><trkpt lat="43.7847763" lon="11.29432"><ele>66.0</ele><time>2026-04-18T15:24:12.854Z</time></trkpt><trkpt lat="43.7848639" lon="11.2943098"><ele>66.33333333333333</ele><time>2026-04-18T15:24:13.871Z</time></trkpt><trkpt lat="43.784944" lon="11.2942969"><ele>66.66666666666666</ele><time>2026-04-18T15:24:14.86Z</time></trkpt><trkpt lat="43.7850096" lon="11.2943015"><ele>67.0</ele><time>2026-04-18T15:24:15.844Z</time></trkpt><trkpt lat="43.7851211" lon="11.2943198"><ele>67.5</ele><time>2026-04-18T15:24:17.85Z</time></trkpt><trkpt lat="43.7852349" lon="11.2942526"><ele>68.0</ele><time>2026-04-18T15:24:19.863Z</time></trkpt><trkpt lat="43.7852773" lon="11.294182"><ele>68.5</ele><time>2026-04-18T15:24:20.851Z</time></trkpt><trkpt lat="43.7853141" lon="11.2939761"><ele>69.0</ele><time>2026-04-18T15:24:22.843Z</time></trkpt><trkpt lat="43.7853086" lon="11.2938165"><ele>69.25</ele><time>2026-04-18T15:24:23.843Z</time></trkpt><trkpt lat="43.7852805" lon="11.2936278"><ele>69.5</ele><time>2026-04-18T15:24:24.838Z</time></trkpt><trkpt lat="43.7852488" lon="11.29343"><ele>69.75</ele><time>2026-04-18T15:24:25.844Z</time></trkpt><trkpt lat="43.7852163" lon="11.2932253"><ele>70.0</ele><time>2026-04-18T15:24:26.847Z</time></trkpt><trkpt lat="43.7851963" lon="11.2930108"><ele>69.66666666666666</ele><time>2026-04-18T15:24:27.847Z</time></trkpt><trkpt lat="43.785157" lon="11.2927845"><ele>69.33333333333333</ele><time>2026-04-18T15:24:28.845Z</time></trkpt><trkpt lat="43.7851193" lon="11.292567"><ele>69.0</ele><time>2026-04-18T15:24:29.836Z</time></trkpt><trkpt lat="43.7850727" lon="11.2923236"><ele>68.66666666666667</ele><time>2026-04-18T15:24:30.836Z</time></trkpt><trkpt lat="43.7850253" lon="11.292073"><ele>68.33333333333334</ele><time>2026-04-18T15:24:31.837Z</time></trkpt><trkpt lat="43.7849839" lon="11.2918354"><ele>68.0</ele><time>2026-04-18T15:24:32.833Z</time></trkpt><trkpt lat="43.7849588" lon="11.2916228"><ele>68.0</ele><time>2026-04-18T15:24:33.824Z</time></trkpt><trkpt lat="43.784943" lon="11.2914256"><ele>68.0</ele><time>2026-04-18T15:24:34.832Z</time></trkpt><trkpt lat="43.7849447" lon="11.2912373"><ele>68.0</ele><time>2026-04-18T15:24:35.839Z</time></trkpt><trkpt lat="43.7849606" lon="11.2910583"><ele>68.0</ele><time>2026-04-18T15:24:36.836Z</time></trkpt><trkpt lat="43.78498" lon="11.2908545"><ele>67.66666666666667</ele><time>2026-04-18T15:24:37.847Z</time></trkpt><trkpt lat="43.7850153" lon="11.2906389"><ele>67.33333333333333</ele><time>2026-04-18T15:24:38.859Z</time></trkpt><trkpt lat="43.7850443" lon="11.2904306"><ele>67.0</ele><time>2026-04-18T15:24:39.854Z</time></trkpt><trkpt lat="43.7850676" lon="11.2902355"><ele>67.0</ele><time>2026-04-18T15:24:40.847Z</time></trkpt><trkpt lat="43.7850919" lon="11.2900752"><ele>67.0</ele><time>2026-04-18T15:24:41.848Z</time></trkpt><trkpt lat="43.7851498" lon="11.2898787"><ele>67.0</ele><time>2026-04-18T15:24:42.844Z</time></trkpt><trkpt lat="43.7852006" lon="11.2896909"><ele>67.0</ele><time>2026-04-18T15:24:43.846Z</time></trkpt><trkpt lat="43.785278" lon="11.2894565"><ele>68.33333333333333</ele><time>2026-04-18T15:24:44.858Z</time></trkpt><trkpt lat="43.7853729" lon="11.2891879"><ele>69.66666666666667</ele><time>2026-04-18T15:24:45.839Z</time></trkpt><trkpt lat="43.7854587" lon="11.2889316"><ele>71.0</ele><time>2026-04-18T15:24:46.839Z</time></trkpt><trkpt lat="43.7855465" lon="11.2886904"><ele>71.0</ele><time>2026-04-18T15:24:47.842Z</time></trkpt><trkpt lat="43.7856285" lon="11.2884651"><ele>71.0</ele><time>2026-04-18T15:24:48.837Z</time></trkpt><trkpt lat="43.7857156" lon="11.2882639"><ele>71.0</ele><time>2026-04-18T15:24:49.836Z</time></trkpt><trkpt lat="43.7858085" lon="11.2880602"><ele>70.0</ele><time>2026-04-18T15:24:50.839Z</time></trkpt><trkpt lat="43.7859045" lon="11.2878572"><ele>69.0</ele><time>2026-04-18T15:24:51.831Z</time></trkpt><trkpt lat="43.7859967" lon="11.287662"><ele>68.0</ele><time>2026-04-18T15:24:52.833Z</time></trkpt><trkpt lat="43.7860963" lon="11.2874731"><ele>67.66666666666667</ele><time>2026-04-18T15:24:53.834Z</time></trkpt><trkpt lat="43.7862071" lon="11.2872814"><ele>67.33333333333333</ele><time>2026-04-18T15:24:54.834Z</time></trkpt><trkpt lat="43.786323" lon="11.287081"><ele>67.0</ele><time>2026-04-18T15:24:55.859Z</time></trkpt><trkpt lat="43.7864322" lon="11.2868865"><ele>67.0</ele><time>2026-04-18T15:24:56.858Z</time></trkpt><trkpt lat="43.7865295" lon="11.2867035"><ele>67.0</ele><time>2026-04-18T15:24:57.86Z</time></trkpt><trkpt lat="43.7866192" lon="11.2865266"><ele>67.0</ele><time>2026-04-18T15:24:58.854Z</time></trkpt><trkpt lat="43.7867013" lon="11.2863582"><ele>66.75</ele><time>2026-04-18T15:24:59.856Z</time></trkpt><trkpt lat="43.7867692" lon="11.2862006"><ele>66.5</ele><time>2026-04-18T15:25:00.857Z</time></trkpt><trkpt lat="43.7868343" lon="11.2860504"><ele>66.25</ele><time>2026-04-18T15:25:01.851Z</time></trkpt><trkpt lat="43.7868958" lon="11.2859037"><ele>66.0</ele><time>2026-04-18T15:25:02.85Z</time></trkpt><trkpt lat="43.7869509" lon="11.2857635"><ele>67.2</ele><time>2026-04-18T15:25:03.854Z</time></trkpt><trkpt lat="43.7870009" lon="11.2856356"><ele>68.39999999999999</ele><time>2026-04-18T15:25:04.853Z</time></trkpt><trkpt lat="43.7870441" lon="11.2855168"><ele>69.6</ele><time>2026-04-18T15:25:05.863Z</time></trkpt><trkpt lat="43.7870788" lon="11.285401"><ele>70.8</ele><time>2026-04-18T15:25:06.854Z</time></trkpt><trkpt lat="43.7871121" lon="11.2852827"><ele>72.0</ele><time>2026-04-18T15:25:07.849Z</time></trkpt><trkpt lat="43.7871329" lon="11.2851659"><ele>72.16666666666667</ele><time>2026-04-18T15:25:08.849Z</time></trkpt><trkpt lat="43.7871522" lon="11.2850502"><ele>72.33333333333333</ele><time>2026-04-18T15:25:09.841Z</time></trkpt><trkpt lat="43.7871799" lon="11.2849415"><ele>72.5</ele><time>2026-04-18T15:25:10.857Z</time></trkpt><trkpt lat="43.7872055" lon="11.2848567"><ele>72.66666666666666</ele><time>2026-04-18T15:25:11.854Z</time></trkpt><trkpt lat="43.787209" lon="11.2847305"><ele>72.83333333333333</ele><time>2026-04-18T15:25:13.841Z</time></trkpt><trkpt lat="43.7872513" lon="11.2846233"><ele>73.0</ele><time>2026-04-18T15:25:16.867Z</time></trkpt><trkpt lat="43.7873134" lon="11.2845459"><ele>73.0</ele><time>2026-04-18T15:25:18.855Z</time></trkpt><trkpt lat="43.7873378" lon="11.284427"><ele>73.0</ele><time>2026-04-18T15:25:20.862Z</time></trkpt><trkpt lat="43.7873157" lon="11.2843241"><ele>73.0</ele><time>2026-04-18T15:25:21.834Z</time></trkpt><trkpt lat="43.7872775" lon="11.2842104"><ele>73.0</ele><time>2026-04-18T15:25:22.841Z</time></trkpt><trkpt lat="43.7872485" lon="11.2841164"><ele>73.0</ele><time>2026-04-18T15:25:23.838Z</time></trkpt><trkpt lat="43.7872209" lon="11.2840292"><ele>73.0</ele><time>2026-04-18T15:25:24.843Z</time></trkpt><trkpt lat="43.787198" lon="11.2839466"><ele>73.8</ele><time>2026-04-18T15:25:25.859Z</time></trkpt><trkpt lat="43.7871447" lon="11.2837747"><ele>74.6</ele><time>2026-04-18T15:25:27.857Z</time></trkpt><trkpt lat="43.787117" lon="11.2836712"><ele>75.4</ele><time>2026-04-18T15:25:28.857Z</time></trkpt><trkpt lat="43.787083" lon="11.2835614"><ele>76.2</ele><time>2026-04-18T15:25:29.862Z</time></trkpt><trkpt lat="43.7870527" lon="11.2834586"><ele>77.0</ele><time>2026-04-18T15:25:30.866Z</time></trkpt><trkpt lat="43.7870236" lon="11.2833618"><ele>77.0</ele><time>2026-04-18T15:25:31.862Z</time></trkpt><trkpt lat="43.7869955" lon="11.2832612"><ele>77.0</ele><time>2026-04-18T15:25:32.859Z</time></trkpt><trkpt lat="43.7869722" lon="11.2831651"><ele>77.0</ele><time>2026-04-18T15:25:33.861Z</time></trkpt><trkpt lat="43.7869483" lon="11.2830581"><ele>77.0</ele><time>2026-04-18T15:25:34.861Z</time></trkpt><trkpt lat="43.7869068" lon="11.2829246"><ele>77.0</ele><time>2026-04-18T15:25:35.858Z</time></trkpt><trkpt lat="43.786873" lon="11.2827717"><ele>75.0</ele><time>2026-04-18T15:25:36.845Z</time></trkpt><trkpt lat="43.7867971" lon="11.2826073"><ele>73.0</ele><time>2026-04-18T15:25:37.853Z</time></trkpt><trkpt lat="43.7867368" lon="11.2824111"><ele>71.0</ele><time>2026-04-18T15:25:38.846Z</time></trkpt><trkpt lat="43.7866649" lon="11.2822171"><ele>71.0</ele><time>2026-04-18T15:25:39.842Z</time></trkpt><trkpt lat="43.7865695" lon="11.2820434"><ele>71.0</ele><time>2026-04-18T15:25:40.835Z</time></trkpt><trkpt lat="43.7864902" lon="11.2818802"><ele>71.0</ele><time>2026-04-18T15:25:41.836Z</time></trkpt><trkpt lat="43.7864153" lon="11.2817209"><ele>71.0</ele><time>2026-04-18T15:25:42.835Z</time></trkpt><trkpt lat="43.7863462" lon="11.2815559"><ele>72.33333333333334</ele><time>2026-04-18T15:25:43.843Z</time></trkpt><trkpt lat="43.7862626" lon="11.2813738"><ele>73.66666666666667</ele><time>2026-04-18T15:25:44.835Z</time></trkpt><trkpt lat="43.7861763" lon="11.2811797"><ele>75.0</ele><time>2026-04-18T15:25:45.834Z</time></trkpt><trkpt lat="43.7860932" lon="11.2809617"><ele>72.33333333333333</ele><time>2026-04-18T15:25:46.841Z</time></trkpt><trkpt lat="43.7859949" lon="11.2807222"><ele>69.66666666666666</ele><time>2026-04-18T15:25:47.848Z</time></trkpt><trkpt lat="43.7858964" lon="11.2804913"><ele>67.0</ele><time>2026-04-18T15:25:48.839Z</time></trkpt><trkpt lat="43.7858022" lon="11.2802824"><ele>67.0</ele><time>2026-04-18T15:25:49.836Z</time></trkpt><trkpt lat="43.7857087" lon="11.2800948"><ele>67.0</ele><time>2026-04-18T15:25:50.839Z</time></trkpt><trkpt lat="43.7856277" lon="11.2799193"><ele>67.0</ele><time>2026-04-18T15:25:51.838Z</time></trkpt><trkpt lat="43.785554" lon="11.2797541"><ele>67.25</ele><time>2026-04-18T15:25:52.843Z</time></trkpt><trkpt lat="43.7854788" lon="11.2795994"><ele>67.5</ele><time>2026-04-18T15:25:53.839Z</time></trkpt><trkpt lat="43.7854099" lon="11.2794462"><ele>67.75</ele><time>2026-04-18T15:25:54.837Z</time></trkpt><trkpt lat="43.7853348" lon="11.2793071"><ele>68.0</ele><time>2026-04-18T15:25:55.834Z</time></trkpt><trkpt lat="43.7852591" lon="11.2791465"><ele>68.0</ele><time>2026-04-18T15:25:56.825Z</time></trkpt><trkpt lat="43.7851805" lon="11.2789616"><ele>68.0</ele><time>2026-04-18T15:25:57.832Z</time></trkpt><trkpt lat="43.7851105" lon="11.2787518"><ele>68.0</ele><time>2026-04-18T15:25:58.834Z</time></trkpt><trkpt lat="43.7850387" lon="11.2785313"><ele>67.66666666666667</ele><time>2026-04-18T15:25:59.823Z</time></trkpt><trkpt lat="43.7849624" lon="11.2783103"><ele>67.33333333333333</ele><time>2026-04-18T15:26:00.834Z</time></trkpt><trkpt lat="43.784884" lon="11.2780909"><ele>67.0</ele><time>2026-04-18T15:26:01.832Z</time></trkpt><trkpt lat="43.7848162" lon="11.2778726"><ele>67.0</ele><time>2026-04-18T15:26:02.829Z</time></trkpt><trkpt lat="43.7847521" lon="11.2776335"><ele>67.0</ele><time>2026-04-18T15:26:03.839Z</time></trkpt><trkpt lat="43.7846929" lon="11.2773662"><ele>67.0</ele><time>2026-04-18T15:26:04.839Z</time></trkpt><trkpt lat="43.7846491" lon="11.2771001"><ele>69.0</ele><time>2026-04-18T15:26:05.844Z</time></trkpt><trkpt lat="43.7846146" lon="11.2768403"><ele>71.0</ele><time>2026-04-18T15:26:06.84Z</time></trkpt><trkpt lat="43.7845811" lon="11.2765684"><ele>73.0</ele><time>2026-04-18T15:26:07.836Z</time></trkpt><trkpt lat="43.7845578" lon="11.2762931"><ele>73.0</ele><time>2026-04-18T15:26:08.838Z</time></trkpt><trkpt lat="43.7844618" lon="11.2760512"><ele>73.0</ele><time>2026-04-18T15:26:09.83Z</time></trkpt><trkpt lat="43.7844554" lon="11.2757996"><ele>73.0</ele><time>2026-04-18T15:26:10.835Z</time></trkpt><trkpt lat="43.784424" lon="11.2755915"><ele>73.0</ele><time>2026-04-18T15:26:11.837Z</time></trkpt><trkpt lat="43.7844399" lon="11.2753786"><ele>73.0</ele><time>2026-04-18T15:26:12.824Z</time></trkpt><trkpt lat="43.784466" lon="11.2751803"><ele>73.0</ele><time>2026-04-18T15:26:13.825Z</time></trkpt><trkpt lat="43.7844925" lon="11.2749908"><ele>73.0</ele><time>2026-04-18T15:26:14.833Z</time></trkpt><trkpt lat="43.7845219" lon="11.2748021"><ele>71.8</ele><time>2026-04-18T15:26:15.825Z</time></trkpt><trkpt lat="43.7845445" lon="11.2746825"><ele>70.6</ele><time>2026-04-18T15:26:16.843Z</time></trkpt><trkpt lat="43.7845841" lon="11.2745317"><ele>69.4</ele><time>2026-04-18T15:26:17.855Z</time></trkpt><trkpt lat="43.7846233" lon="11.2743971"><ele>68.2</ele><time>2026-04-18T15:26:18.838Z</time></trkpt><trkpt lat="43.7846587" lon="11.274269"><ele>67.0</ele><time>2026-04-18T15:26:19.84Z</time></trkpt><trkpt lat="43.7846993" lon="11.2741612"><ele>67.0</ele><time>2026-04-18T15:26:20.84Z</time></trkpt><trkpt lat="43.7847373" lon="11.274071"><ele>67.0</ele><time>2026-04-18T15:26:21.85Z</time></trkpt><trkpt lat="43.7847683" lon="11.2739809"><ele>67.0</ele><time>2026-04-18T15:26:22.834Z</time></trkpt><trkpt lat="43.7847987" lon="11.2739025"><ele>67.0</ele><time>2026-04-18T15:26:23.836Z</time></trkpt><trkpt lat="43.7848647" lon="11.2737769"><ele>67.0</ele><time>2026-04-18T15:26:25.831Z</time></trkpt><trkpt lat="43.7849148" lon="11.2736865"><ele>67.0</ele><time>2026-04-18T15:26:27.844Z</time></trkpt><trkpt lat="43.7849816" lon="11.2736226"><ele>66.5</ele><time>2026-04-18T15:26:48.869Z</time></trkpt><trkpt lat="43.7850348" lon="11.2735345"><ele>66.0</ele><time>2026-04-18T15:26:49.837Z</time></trkpt><trkpt lat="43.7850901" lon="11.273435"><ele>65.5</ele><time>2026-04-18T15:26:50.825Z</time></trkpt><trkpt lat="43.7851786" lon="11.2733026"><ele>65.0</ele><time>2026-04-18T15:26:51.825Z</time></trkpt><trkpt lat="43.7853138" lon="11.2729772"><ele>65.0</ele><time>2026-04-18T15:26:52.823Z</time></trkpt><trkpt lat="43.7853699" lon="11.272819"><ele>65.0</ele><time>2026-04-18T15:26:53.818Z</time></trkpt><trkpt lat="43.7854336" lon="11.2726513"><ele>65.0</ele><time>2026-04-18T15:26:54.831Z</time></trkpt><trkpt lat="43.7855097" lon="11.2724687"><ele>65.0</ele><time>2026-04-18T15:26:55.828Z</time></trkpt><trkpt lat="43.7855918" lon="11.2722687"><ele>64.66666666666667</ele><time>2026-04-18T15:26:56.842Z</time></trkpt><trkpt lat="43.7856887" lon="11.2720459"><ele>64.33333333333333</ele><time>2026-04-18T15:26:57.853Z</time></trkpt><trkpt lat="43.7857879" lon="11.2718084"><ele>64.0</ele><time>2026-04-18T15:26:58.85Z</time></trkpt><trkpt lat="43.7858883" lon="11.2715802"><ele>64.0</ele><time>2026-04-18T15:26:59.851Z</time></trkpt><trkpt lat="43.7859786" lon="11.2713313"><ele>64.0</ele><time>2026-04-18T15:27:00.759Z</time></trkpt><trkpt lat="43.7860423" lon="11.2711509"><ele>64.0</ele><time>2026-04-18T15:27:01.753Z</time></trkpt><trkpt lat="43.7861127" lon="11.2710112"><ele>63.99999999999999</ele><time>2026-04-18T15:27:02.748Z</time></trkpt><trkpt lat="43.7861645" lon="11.2708846"><ele>64.0</ele><time>2026-04-18T15:27:03.745Z</time></trkpt><trkpt lat="43.7861909" lon="11.2707987"><ele>64.0</ele><time>2026-04-18T15:27:04.749Z</time></trkpt><trkpt lat="43.786219" lon="11.2707105"><ele>64.0</ele><time>2026-04-18T15:27:05.749Z</time></trkpt><trkpt lat="43.7862603" lon="11.2705998"><ele>63.99999999999999</ele><time>2026-04-18T15:27:07.75Z</time></trkpt><trkpt lat="43.7863704" lon="11.2705963"><ele>64.0</ele><time>2026-04-18T15:27:09.762Z</time></trkpt><trkpt lat="43.7864258" lon="11.2706514"><ele>64.0</ele><time>2026-04-18T15:27:10.763Z</time></trkpt><trkpt lat="43.7864777" lon="11.27074"><ele>64.0</ele><time>2026-04-18T15:27:11.766Z</time></trkpt><trkpt lat="43.7865502" lon="11.2708715"><ele>64.0</ele><time>2026-04-18T15:27:12.766Z</time></trkpt><trkpt lat="43.7866596" lon="11.2710499"><ele>64.0</ele><time>2026-04-18T15:27:13.735Z</time></trkpt><trkpt lat="43.7867893" lon="11.2712381"><ele>64.0</ele><time>2026-04-18T15:27:14.734Z</time></trkpt><trkpt lat="43.78689" lon="11.2713771"><ele>64.0</ele><time>2026-04-18T15:27:15.734Z</time></trkpt><trkpt lat="43.7869639" lon="11.2715275"><ele>64.0</ele><time>2026-04-18T15:27:16.737Z</time></trkpt><trkpt lat="43.7870325" lon="11.2716348"><ele>64.0</ele><time>2026-04-18T15:27:17.739Z</time></trkpt><trkpt lat="43.7871114" lon="11.2717458"><ele>64.0</ele><time>2026-04-18T15:27:18.743Z</time></trkpt><trkpt lat="43.7871842" lon="11.2718597"><ele>64.0</ele><time>2026-04-18T15:27:19.76Z</time></trkpt><trkpt lat="43.787307" lon="11.2719265"><ele>64.0</ele><time>2026-04-18T15:27:20.742Z</time></trkpt><trkpt lat="43.7873722" lon="11.2720305"><ele>64.0</ele><time>2026-04-18T15:27:21.739Z</time></trkpt><trkpt lat="43.7874459" lon="11.2721185"><ele>64.0</ele><time>2026-04-18T15:27:22.747Z</time></trkpt><trkpt lat="43.7875062" lon="11.2722015"><ele>64.16666666666666</ele><time>2026-04-18T15:27:23.742Z</time></trkpt><trkpt lat="43.7875556" lon="11.2722919"><ele>64.33333333333333</ele><time>2026-04-18T15:27:24.756Z</time></trkpt><trkpt lat="43.787601" lon="11.2723873"><ele>64.5</ele><time>2026-04-18T15:27:25.76Z</time></trkpt><trkpt lat="43.7876452" lon="11.2724718"><ele>64.66666666666667</ele><time>2026-04-18T15:27:26.756Z</time></trkpt><trkpt lat="43.7877177" lon="11.2725728"><ele>64.83333333333334</ele><time>2026-04-18T15:27:28.762Z</time></trkpt><trkpt lat="43.7877641" lon="11.2726655"><ele>65.0</ele><time>2026-04-18T15:27:30.785Z</time></trkpt><trkpt lat="43.7877982" lon="11.2727409"><ele>65.0</ele><time>2026-04-18T15:27:32.775Z</time></trkpt><trkpt lat="43.7878502" lon="11.2728396"><ele>65.0</ele><time>2026-04-18T15:27:34.776Z</time></trkpt><trkpt lat="43.7879014" lon="11.2729121"><ele>65.0</ele><time>2026-04-18T15:27:35.755Z</time></trkpt><trkpt lat="43.7879624" lon="11.2730131"><ele>65.0</ele><time>2026-04-18T15:27:36.755Z</time></trkpt><trkpt lat="43.7880303" lon="11.273115"><ele>65.0</ele><time>2026-04-18T15:27:37.749Z</time></trkpt><trkpt lat="43.7881003" lon="11.2732256"><ele>65.16666666666667</ele><time>2026-04-18T15:27:38.752Z</time></trkpt><trkpt lat="43.7881566" lon="11.2733325"><ele>65.33333333333334</ele><time>2026-04-18T15:27:39.736Z</time></trkpt><trkpt lat="43.788204" lon="11.2734222"><ele>65.5</ele><time>2026-04-18T15:27:40.735Z</time></trkpt><trkpt lat="43.7882519" lon="11.2735064"><ele>65.66666666666667</ele><time>2026-04-18T15:27:41.739Z</time></trkpt><trkpt lat="43.7882996" lon="11.2735726"><ele>65.83333333333333</ele><time>2026-04-18T15:27:42.742Z</time></trkpt><trkpt lat="43.7883496" lon="11.2736913"><ele>66.0</ele><time>2026-04-18T15:27:44.755Z</time></trkpt><trkpt lat="43.7883187" lon="11.2738579"><ele>66.75</ele><time>2026-04-18T15:27:46.769Z</time></trkpt><trkpt lat="43.7882641" lon="11.2739706"><ele>67.5</ele><time>2026-04-18T15:27:47.765Z</time></trkpt><trkpt lat="43.7881935" lon="11.2741168"><ele>68.25</ele><time>2026-04-18T15:27:48.754Z</time></trkpt><trkpt lat="43.7881087" lon="11.2742556"><ele>69.0</ele><time>2026-04-18T15:27:49.755Z</time></trkpt><trkpt lat="43.7880477" lon="11.2743772"><ele>69.0</ele><time>2026-04-18T15:27:50.766Z</time></trkpt><trkpt lat="43.7880004" lon="11.2744421"><ele>69.0</ele><time>2026-04-18T15:27:51.743Z</time></trkpt><trkpt lat="43.7879348" lon="11.274518"><ele>69.0</ele><time>2026-04-18T15:27:53.762Z</time></trkpt><trkpt lat="43.7878641" lon="11.2745384"><ele>69.0</ele><time>2026-04-18T15:27:56.765Z</time></trkpt><trkpt lat="43.7877564" lon="11.2744381"><ele>69.0</ele><time>2026-04-18T15:27:58.755Z</time></trkpt><trkpt lat="43.7876909" lon="11.2743643"><ele>69.0</ele><time>2026-04-18T15:27:59.764Z</time></trkpt><trkpt lat="43.7876141" lon="11.2742866"><ele>69.16666666666667</ele><time>2026-04-18T15:28:00.772Z</time></trkpt><trkpt lat="43.7875424" lon="11.2742243"><ele>69.33333333333333</ele><time>2026-04-18T15:28:01.765Z</time></trkpt><trkpt lat="43.78748" lon="11.2741584"><ele>69.5</ele><time>2026-04-18T15:28:02.767Z</time></trkpt><trkpt lat="43.7874177" lon="11.2741046"><ele>69.66666666666666</ele><time>2026-04-18T15:28:03.761Z</time></trkpt><trkpt lat="43.787365" lon="11.2740555"><ele>69.83333333333333</ele><time>2026-04-18T15:28:04.755Z</time></trkpt><trkpt lat="43.7873416" lon="11.273904"><ele>70.0</ele><time>2026-04-18T15:28:06.761Z</time></trkpt><trkpt lat="43.7873769" lon="11.2738063"><ele>68.0</ele><time>2026-04-18T15:28:08.773Z</time></trkpt><trkpt lat="43.7873172" lon="11.2737655"><ele>68.0</ele><time>2026-04-18T15:28:45.753Z</time></trkpt><trkpt lat="43.7872432" lon="11.2737618"><ele>68.0</ele><time>2026-04-18T15:28:51.749Z</time></trkpt></trkseg></trk></gpx>